[[{"header":{"parameterUnit":"m.s-1","parameterCategory":1,"la1":30.6,"la2":29.2853,"lo1":-89.7004,"lo2":-87.6739,"dy":0.0162,"dx":0.0183,"nx":112,"ny":82,"refTime":"2024-05-02T00:00:00:Z","depth":0,"parameterNumber":2,"parameterNumberName":"U-component_of_WINDS"},"data":[0.0,0.0,0.0,0.0,0.0,0.0,0.0,0.0,0.0,0.0,0.0,0.0,0.0,0.0,0.0,0.0,0.0,0.0,0.0,0.0,0.0,0.0,0.0,0.0,0.0,0.0,0.0,0.0,0.0,0.0,0.0,0.0,0.0,0.0,0.0,0.0,0.0,0.0,0.0,0.0,0.0,0.0,0.0,0.0,0.0,0.0,0.0,0.0,0.0,0.0,0.0,0.0,0.0,0.0,0.0,0.0,0.0,0.0,0.0,0.0,0.0,0.0,0.0,0.0,0.0,0.0,0.0,0.0,0.0,0.0,0.0,0.0,0.0,0.0,0.0,0.0,0.0,0.0,0.0,0.0,0.0,0.0,0.0,0.0,0.0,0.0,0.0,0.0,0.0,0.0,-7.1524,-7.1601,-7.0664,-6.9733,-6.8962,-6.8605,-6.8411,-6.8398,0.0,0.0,0.0,0.0,0.0,0.0,0.0,0.0,0.0,0.0,0.0,0.0,0.0,0.0,0.0,0.0,0.0,0.0,0.0,0.0,0.0,0.0,0.0,0.0,0.0,0.0,0.0,0.0,0.0,0.0,0.0,0.0,0.0,0.0,0.0,0.0,0.0,0.0,0.0,0.0,0.0,0.0,0.0,0.0,0.0,0.0,0.0,0.0,0.0,0.0,0.0,0.0,0.0,0.0,0.0,0.0,0.0,0.0,0.0,0.0,0.0,0.0,0.0,0.0,0.0,0.0,0.0,0.0,0.0,0.0,0.0,0.0,0.0,0.0,0.0,0.0,0.0,0.0,0.0,0.0,0.0,0.0,0.0,0.0,0.0,0.0,0.0,0.0,0.0,0.0,0.0,0.0,0.0,0.0,0.0,0.0,0.0,0.0,0.0,0.0,0.0,0.0,0.0,0.0,-7.047,-6.9921,-6.9577,-6.9245,-6.8929,-6.8691,-6.8524,-6.8411,0.0,0.0,0.0,0.0,0.0,0.0,0.0,0.0,0.0,0.0,0.0,0.0,0.0,0.0,0.0,0.0,0.0,0.0,0.0,0.0,0.0,0.0,0.0,0.0,0.0,0.0,0.0,0.0,0.0,0.0,0.0,0.0,0.0,0.0,0.0,0.0,0.0,0.0,0.0,0.0,0.0,0.0,0.0,0.0,0.0,0.0,0.0,0.0,0.0,0.0,0.0,0.0,0.0,0.0,0.0,0.0,0.0,0.0,0.0,0.0,0.0,0.0,0.0,0.0,0.0,0.0,0.0,0.0,0.0,0.0,0.0,0.0,0.0,0.0,0.0,0.0,0.0,0.0,0.0,0.0,0.0,0.0,0.0,0.0,0.0,0.0,0.0,0.0,0.0,0.0,0.0,0.0,0.0,0.0,0.0,0.0,0.0,0.0,0.0,0.0,0.0,0.0,0.0,-7.018,-6.9679,-6.8867,-6.8609,-6.8253,-6.7612,-6.7368,-6.7188,-6.7026,-6.7051,0.0,0.0,0.0,0.0,0.0,0.0,0.0,0.0,0.0,0.0,0.0,0.0,0.0,0.0,0.0,0.0,0.0,0.0,0.0,0.0,0.0,0.0,0.0,0.0,0.0,0.0,0.0,0.0,0.0,0.0,0.0,0.0,0.0,0.0,0.0,0.0,0.0,0.0,0.0,0.0,0.0,0.0,0.0,0.0,0.0,0.0,0.0,0.0,0.0,0.0,0.0,0.0,0.0,0.0,0.0,0.0,0.0,0.0,0.0,0.0,0.0,0.0,0.0,0.0,0.0,0.0,0.0,0.0,0.0,0.0,0.0,0.0,0.0,0.0,0.0,0.0,0.0,0.0,0.0,0.0,0.0,0.0,0.0,0.0,0.0,0.0,0.0,0.0,0.0,0.0,0.0,0.0,0.0,0.0,0.0,0.0,0.0,0.0,0.0,0.0,0.0,0.0,-6.918,-6.8867,-6.8008,-6.776,-6.7315,-6.6535,-6.6283,-6.609,-6.5955,-6.5909,0.0,0.0,0.0,0.0,0.0,0.0,0.0,0.0,0.0,0.0,0.0,0.0,0.0,0.0,0.0,0.0,0.0,0.0,0.0,0.0,0.0,0.0,0.0,0.0,0.0,0.0,0.0,0.0,0.0,0.0,0.0,0.0,0.0,0.0,0.0,0.0,0.0,0.0,0.0,0.0,0.0,0.0,0.0,0.0,0.0,0.0,0.0,0.0,0.0,0.0,0.0,0.0,0.0,0.0,0.0,0.0,0.0,0.0,0.0,0.0,0.0,0.0,0.0,0.0,0.0,0.0,0.0,0.0,0.0,0.0,0.0,0.0,0.0,0.0,0.0,0.0,0.0,0.0,0.0,0.0,0.0,0.0,0.0,0.0,0.0,0.0,0.0,0.0,0.0,0.0,0.0,0.0,0.0,0.0,0.0,0.0,0.0,0.0,0.0,0.0,0.0,0.0,-6.8281,-6.7969,-6.707,-6.6992,-6.6867,-6.6616,-6.6463,-6.629,-6.61,-6.5951,0.0,0.0,0.0,0.0,0.0,0.0,0.0,0.0,0.0,0.0,0.0,0.0,0.0,0.0,0.0,0.0,0.0,0.0,0.0,0.0,0.0,0.0,0.0,0.0,0.0,0.0,0.0,0.0,0.0,0.0,0.0,0.0,0.0,0.0,0.0,0.0,0.0,0.0,0.0,0.0,0.0,0.0,0.0,0.0,0.0,0.0,0.0,0.0,0.0,0.0,0.0,0.0,0.0,0.0,0.0,0.0,0.0,0.0,0.0,0.0,0.0,0.0,0.0,0.0,0.0,0.0,0.0,0.0,0.0,0.0,0.0,0.0,0.0,0.0,0.0,0.0,0.0,0.0,0.0,0.0,0.0,0.0,0.0,0.0,0.0,0.0,0.0,0.0,0.0,0.0,0.0,0.0,0.0,0.0,0.0,0.0,0.0,0.0,0.0,0.0,0.0,0.0,-6.7383,-6.7265,-6.6953,-6.6914,-6.6831,-6.6622,-6.6073,-6.5839,-6.6098,0.0,0.0,0.0,0.0,0.0,0.0,0.0,0.0,0.0,0.0,0.0,0.0,0.0,0.0,0.0,0.0,0.0,0.0,0.0,0.0,0.0,0.0,0.0,0.0,0.0,0.0,0.0,0.0,0.0,0.0,0.0,0.0,0.0,0.0,0.0,0.0,0.0,0.0,0.0,0.0,0.0,0.0,0.0,0.0,0.0,0.0,0.0,0.0,0.0,0.0,0.0,0.0,0.0,0.0,0.0,0.0,0.0,0.0,0.0,0.0,0.0,0.0,0.0,0.0,0.0,0.0,0.0,0.0,0.0,0.0,0.0,0.0,0.0,0.0,0.0,0.0,0.0,0.0,0.0,0.0,0.0,0.0,0.0,0.0,0.0,0.0,0.0,0.0,0.0,0.0,0.0,0.0,0.0,0.0,0.0,0.0,0.0,0.0,0.0,0.0,0.0,0.0,-6.6992,-6.664,-6.6484,-6.6484,-6.625,-6.6014,-6.5872,-6.5301,-6.5069,-6.5443,0.0,0.0,0.0,0.0,0.0,0.0,0.0,0.0,0.0,0.0,0.0,0.0,0.0,0.0,0.0,0.0,0.0,0.0,0.0,0.0,0.0,0.0,0.0,0.0,0.0,0.0,0.0,0.0,0.0,0.0,0.0,0.0,0.0,0.0,0.0,0.0,0.0,0.0,0.0,0.0,0.0,0.0,0.0,0.0,0.0,0.0,0.0,0.0,0.0,0.0,0.0,0.0,0.0,0.0,0.0,0.0,0.0,0.0,0.0,0.0,0.0,0.0,0.0,0.0,0.0,0.0,0.0,0.0,0.0,0.0,0.0,0.0,0.0,0.0,0.0,0.0,0.0,0.0,0.0,0.0,0.0,0.0,0.0,0.0,0.0,0.0,0.0,0.0,0.0,0.0,0.0,0.0,0.0,0.0,0.0,0.0,0.0,0.0,0.0,0.0,0.0,0.0,-6.6875,-6.6133,-6.5586,-6.5586,-6.4805,-6.4297,-6.4297,-6.4156,-6.4076,0.0,0.0,0.0,0.0,0.0,0.0,0.0,0.0,0.0,0.0,0.0,0.0,0.0,0.0,0.0,0.0,0.0,0.0,0.0,0.0,0.0,0.0,0.0,0.0,0.0,0.0,0.0,0.0,0.0,0.0,0.0,0.0,0.0,0.0,0.0,0.0,0.0,0.0,0.0,0.0,0.0,0.0,0.0,0.0,0.0,0.0,0.0,0.0,0.0,0.0,0.0,0.0,0.0,0.0,0.0,0.0,0.0,0.0,0.0,0.0,0.0,0.0,0.0,0.0,0.0,0.0,0.0,0.0,0.0,0.0,0.0,0.0,0.0,0.0,0.0,0.0,0.0,0.0,0.0,0.0,0.0,0.0,0.0,0.0,0.0,0.0,0.0,0.0,0.0,0.0,0.0,0.0,0.0,0.0,0.0,0.0,0.0,0.0,0.0,0.0,0.0,0.0,0.0,-6.6055,-6.5742,-6.5351,-6.4765,-6.4453,-6.4297,-6.4297,-6.3708,-6.3538,-6.4079,0.0,0.0,0.0,0.0,0.0,0.0,0.0,0.0,0.0,0.0,0.0,0.0,0.0,0.0,0.0,0.0,0.0,0.0,0.0,0.0,0.0,0.0,0.0,0.0,0.0,0.0,0.0,0.0,0.0,0.0,0.0,0.0,0.0,0.0,0.0,0.0,0.0,0.0,0.0,0.0,0.0,0.0,0.0,0.0,0.0,0.0,0.0,0.0,0.0,0.0,0.0,0.0,0.0,0.0,0.0,0.0,0.0,0.0,0.0,0.0,0.0,0.0,0.0,0.0,0.0,0.0,0.0,0.0,0.0,0.0,0.0,0.0,0.0,0.0,0.0,0.0,0.0,0.0,0.0,0.0,0.0,0.0,0.0,0.0,0.0,0.0,0.0,0.0,0.0,0.0,0.0,0.0,0.0,0.0,0.0,0.0,0.0,0.0,0.0,0.0,0.0,0.0,-6.5195,-6.4765,-6.4375,-6.3828,-6.3476,-6.3242,-6.3242,-6.2773,-6.2654,-6.3103,0.0,0.0,0.0,0.0,0.0,0.0,0.0,0.0,0.0,0.0,0.0,0.0,0.0,0.0,0.0,0.0,0.0,0.0,0.0,0.0,0.0,0.0,0.0,0.0,0.0,0.0,0.0,0.0,0.0,0.0,0.0,0.0,0.0,0.0,0.0,0.0,0.0,0.0,0.0,0.0,0.0,0.0,0.0,0.0,0.0,0.0,0.0,0.0,0.0,0.0,0.0,0.0,0.0,0.0,0.0,0.0,0.0,0.0,0.0,0.0,0.0,0.0,0.0,0.0,0.0,0.0,0.0,0.0,0.0,0.0,0.0,0.0,0.0,0.0,0.0,0.0,0.0,0.0,0.0,0.0,0.0,0.0,0.0,0.0,0.0,0.0,0.0,0.0,0.0,0.0,0.0,0.0,0.0,0.0,0.0,0.0,0.0,0.0,0.0,0.0,0.0,0.0,-6.4297,-6.3476,-6.2969,-6.289,-6.2187,-6.1719,-6.1719,-6.1719,-6.1719,-6.1719,0.0,0.0,0.0,0.0,0.0,0.0,0.0,0.0,0.0,0.0,0.0,0.0,0.0,0.0,0.0,0.0,0.0,0.0,0.0,0.0,0.0,0.0,0.0,0.0,0.0,0.0,0.0,0.0,0.0,0.0,0.0,0.0,0.0,0.0,0.0,0.0,0.0,0.0,0.0,0.0,0.0,0.0,0.0,0.0,0.0,0.0,0.0,0.0,0.0,0.0,0.0,0.0,0.0,0.0,0.0,0.0,0.0,0.0,0.0,0.0,-7.1389,0.0,0.0,0.0,0.0,0.0,0.0,0.0,0.0,0.0,0.0,0.0,0.0,0.0,0.0,0.0,0.0,0.0,0.0,0.0,0.0,0.0,0.0,0.0,0.0,0.0,0.0,0.0,0.0,0.0,0.0,0.0,0.0,0.0,0.0,0.0,0.0,0.0,0.0,0.0,0.0,0.0,-6.3398,-6.3125,-6.2734,-6.2031,-6.1797,-6.1719,-6.1719,-6.1719,-6.1719,-6.1719,-6.1579,0.0,0.0,0.0,0.0,0.0,0.0,0.0,0.0,0.0,0.0,0.0,0.0,0.0,0.0,0.0,0.0,0.0,0.0,0.0,0.0,0.0,0.0,0.0,0.0,0.0,0.0,0.0,0.0,0.0,0.0,0.0,0.0,0.0,0.0,0.0,0.0,0.0,0.0,0.0,0.0,0.0,0.0,0.0,0.0,0.0,0.0,0.0,0.0,0.0,0.0,0.0,0.0,0.0,0.0,0.0,0.0,0.0,0.0,0.0,0.0,-7.1397,0.0,0.0,0.0,0.0,0.0,0.0,0.0,0.0,0.0,0.0,0.0,0.0,0.0,0.0,0.0,0.0,0.0,0.0,0.0,0.0,0.0,0.0,0.0,0.0,0.0,0.0,0.0,0.0,0.0,0.0,0.0,0.0,0.0,0.0,0.0,0.0,0.0,0.0,0.0,0.0,-6.25,-6.2383,-6.2187,-6.1758,-6.1719,-6.1719,-6.1719,-6.1719,-6.1719,-6.1719,-6.1634,0.0,0.0,0.0,0.0,0.0,0.0,0.0,0.0,0.0,0.0,0.0,0.0,0.0,0.0,0.0,0.0,0.0,0.0,0.0,0.0,0.0,0.0,0.0,0.0,0.0,0.0,0.0,0.0,0.0,0.0,0.0,0.0,0.0,0.0,0.0,0.0,0.0,0.0,0.0,0.0,0.0,0.0,0.0,0.0,0.0,0.0,0.0,0.0,0.0,0.0,0.0,0.0,0.0,-7.0898,-7.0898,-7.0898,-7.0898,-7.0898,-7.0912,-7.1074,-7.1169,-7.1213,-7.1497,0.0,0.0,0.0,0.0,0.0,0.0,0.0,0.0,0.0,0.0,0.0,0.0,0.0,0.0,0.0,0.0,0.0,0.0,0.0,0.0,0.0,0.0,0.0,0.0,-6.8984,-6.8945,0.0,0.0,0.0,0.0,0.0,0.0,0.0,0.0,0.0,0.0,0.0,0.0,-6.1797,-6.1719,-6.1719,-6.1719,-6.1562,-6.1484,-6.1484,-6.1328,-6.125,-6.125,-6.125,-6.125,0.0,0.0,0.0,0.0,0.0,0.0,0.0,0.0,0.0,0.0,0.0,0.0,0.0,0.0,0.0,0.0,0.0,0.0,0.0,0.0,0.0,0.0,0.0,0.0,0.0,0.0,0.0,0.0,0.0,0.0,0.0,0.0,-7.0898,-7.0898,0.0,0.0,0.0,0.0,0.0,0.0,0.0,0.0,0.0,0.0,0.0,0.0,0.0,-7.0898,-7.0898,-7.0898,-7.0898,-7.0898,-7.0898,-7.0898,-7.0898,-7.0898,-7.0898,-7.0898,-7.0952,0.0,-7.1182,-7.1252,0.0,0.0,0.0,0.0,0.0,0.0,0.0,0.0,0.0,0.0,0.0,0.0,0.0,0.0,0.0,0.0,0.0,0.0,0.0,0.0,0.0,0.0,-6.8164,-6.7422,-6.7226,-6.7031,0.0,-6.7305,-6.789,-6.625,-6.5937,0.0,0.0,0.0,0.0,0.0,0.0,0.0,-6.1719,-6.1719,-6.1719,-6.1719,-6.1015,-6.0586,-6.0586,-5.9922,-5.9531,-5.9531,-5.9531,-5.9531,-5.9531,-5.9531,0.0,0.0,0.0,0.0,0.0,0.0,0.0,0.0,0.0,0.0,0.0,0.0,0.0,0.0,0.0,0.0,0.0,0.0,0.0,0.0,0.0,0.0,0.0,0.0,0.0,0.0,0.0,0.0,0.0,-7.0898,-7.0898,-7.0898,-7.0898,-7.0898,0.0,0.0,0.0,0.0,0.0,0.0,0.0,0.0,0.0,-7.0898,-7.0898,-7.0898,-7.0898,-7.0898,-7.0898,-7.0898,-7.0898,-7.0898,-7.0898,-7.0898,-7.0898,-7.0898,-7.0898,-7.0953,-7.1026,-7.1148,-7.1252,-7.137,0.0,0.0,0.0,0.0,-7.1629,-7.1702,-7.1609,-7.1398,0.0,-7.1151,0.0,0.0,0.0,0.0,0.0,0.0,0.0,0.0,0.0,0.0,0.0,-6.6367,-6.6172,-6.5937,-6.5078,-6.5469,-6.5781,0.0,-6.4883,-6.4609,-6.3711,0.0,0.0,0.0,0.0,-6.1719,-6.1719,-6.1289,-6.0976,-6.0976,-6.0234,-5.9726,-5.9726,-5.9414,-5.9219,-5.9219,-5.9219,-5.9219,-5.9219,-5.9219,-5.9219,0.0,0.0,0.0,0.0,0.0,0.0,0.0,0.0,0.0,0.0,0.0,0.0,0.0,0.0,0.0,0.0,0.0,0.0,0.0,0.0,0.0,0.0,0.0,0.0,0.0,0.0,0.0,0.0,-7.0898,-7.0898,-7.0898,-7.0898,-7.0898,0.0,0.0,0.0,0.0,0.0,0.0,-7.0898,-7.0898,-7.0898,-7.0898,-7.0898,-7.0898,-7.0898,-7.0898,-7.0898,-7.0898,-7.0898,-7.0898,-7.0898,-7.0898,-7.0898,-7.0898,-7.0667,-7.0591,-7.0618,-7.0973,-7.1115,-7.1137,-7.1323,-7.1288,-7.1093,-7.1093,-7.0975,-7.0816,-7.0805,-7.0485,-7.0091,-7.0091,0.0,-6.9019,-6.9097,0.0,0.0,0.0,0.0,-6.7539,-6.7539,-6.6875,-6.6055,-6.543,-6.5273,-6.5039,-6.414,-6.3984,-6.3984,0.0,-6.3984,-6.3672,-6.2812,0.0,0.0,0.0,0.0,-6.1367,-6.1367,-6.0625,-6.0078,-6.0078,-5.9375,-5.8867,-5.8867,-5.8672,-5.8515,-5.8515,-5.8515,-5.8515,-5.8515,-5.8515,-5.8515,-5.8515,0.0,0.0,0.0,0.0,0.0,0.0,0.0,0.0,0.0,0.0,0.0,0.0,0.0,0.0,0.0,0.0,0.0,0.0,0.0,0.0,0.0,0.0,0.0,0.0,0.0,0.0,0.0,0.0,0.0,-7.0898,-7.0898,0.0,0.0,0.0,0.0,-7.0898,-7.0898,-7.0898,-7.0898,-7.0898,-7.0898,-7.0898,-7.0898,-7.0898,-7.0898,-7.0898,-7.0898,-7.0898,-7.0898,-7.0898,-7.0898,-7.0898,-7.0898,-7.086,-7.009,-6.9744,-6.9821,-7.0604,-7.0925,-7.0927,-7.1126,-7.0699,-6.9963,-6.9963,-6.9575,-6.9026,-6.8864,-6.8901,-6.8987,-6.8987,-6.8534,-6.7991,-6.7991,-6.7523,0.0,0.0,-6.6406,-6.5742,-6.5742,-6.5078,-6.4414,-6.4375,-6.4375,-6.414,-6.3242,-6.3086,-6.3086,0.0,-6.3086,-6.2773,-6.1914,0.0,-6.1758,-6.1719,-6.1015,-6.0469,-6.0469,-5.9765,-5.9258,-5.9258,-5.8476,-5.7969,-5.7969,-5.7226,-5.6719,-5.6719,-5.6719,-5.6719,-5.6719,-5.6719,-5.6719,-5.6719,-5.6719,0.0,0.0,0.0,0.0,0.0,0.0,0.0,0.0,0.0,0.0,0.0,0.0,0.0,0.0,0.0,0.0,0.0,0.0,0.0,0.0,0.0,0.0,0.0,0.0,0.0,0.0,0.0,0.0,-7.0378,-7.0378,0.0,-7.0871,-7.0898,-7.0898,-7.0898,-7.0898,-7.0898,-7.0898,-7.0898,-7.0898,-7.0898,-7.0898,-7.0667,-7.0129,-7.0129,-6.986,-6.9283,-6.9283,-6.9283,-6.9283,-6.9283,-6.9283,-6.9283,-6.9013,-6.8859,-6.8898,-6.9167,-6.9283,-6.9296,-6.9373,-6.9191,-6.8921,-6.8921,-6.876,-6.858,-6.8506,-6.8274,-6.7859,-6.7443,-6.713,-6.6941,-6.6941,-6.6436,-6.5872,-6.5872,-6.5344,-6.4765,-6.4765,-6.4531,-6.414,-6.3594,-6.3476,-6.3203,-6.2344,-6.2148,-6.2148,-6.2148,-6.2148,-6.207,-6.1758,-6.1719,-6.1523,-6.0937,-6.0586,-6.0195,-5.9687,-5.8906,-5.8359,-5.8359,-5.7578,-5.707,-5.707,-5.6797,-5.6601,-5.6601,-5.6601,-5.6601,-5.6601,-5.6601,-5.6601,-5.6601,-5.6601,-5.6601,0.0,0.0,0.0,0.0,0.0,0.0,0.0,0.0,0.0,0.0,0.0,0.0,0.0,0.0,0.0,0.0,0.0,0.0,0.0,0.0,0.0,0.0,0.0,0.0,0.0,-7.0009,-7.0112,-7.0112,-7.0266,-7.0509,-7.0871,-7.0898,-7.0898,-7.0898,-7.0898,-7.0783,-7.0514,-7.0514,-7.036,-7.009,-7.0052,-6.9821,-6.9283,-6.9244,-6.8975,-6.8385,-6.8385,-6.8385,-6.8385,-6.8385,-6.8385,-6.8385,-6.809,-6.7975,-6.7936,-6.7667,-6.7552,-6.7628,-6.8205,-6.8244,-6.7975,-6.7975,-6.7782,-6.7552,-6.7552,-6.7266,-6.6812,-6.6367,-6.6042,-6.587,-6.587,-6.5372,-6.4821,-6.4893,-6.4347,-6.3784,-6.3867,-6.3633,-6.3281,-6.2695,-6.2578,-6.2383,-6.1836,-6.1719,-6.1601,-6.1328,-6.1484,-6.1601,-6.1328,-6.125,-6.0976,-6.0117,-5.9726,-5.9375,-5.8828,-5.8008,-5.7461,-5.7461,-5.6953,-5.6601,-5.6601,-5.6601,-5.6601,-5.6601,-5.6601,-5.6601,-5.6601,-5.6601,-5.6601,-5.6601,-5.6328,-5.6172,-5.6172,0.0,0.0,0.0,0.0,0.0,0.0,0.0,0.0,0.0,0.0,0.0,0.0,0.0,0.0,0.0,0.0,0.0,0.0,0.0,0.0,0.0,0.0,0.0,-6.921,-6.972,-7.0061,-7.0061,-7.0509,-7.0819,-7.0857,-7.0871,-7.0885,-7.0885,-7.0885,-7.0552,-6.9783,-6.9744,-6.936,-6.85,-6.8475,-6.8475,-6.8423,-6.8398,-6.8385,-6.8359,-6.8308,-6.8321,-6.8321,-6.8321,-6.8321,-6.8282,-6.7436,-6.7051,-6.7013,-6.6205,-6.5897,-6.6051,-6.7705,-6.7821,-6.7051,-6.7051,-6.6551,-6.5897,-6.5859,-6.5859,-6.5859,-6.582,-6.5341,-6.4744,-6.4744,-6.4295,-6.3781,-6.3975,-6.3416,-6.2769,-6.2927,-6.2344,-6.1719,-6.1719,-6.1719,-6.1719,-6.1719,-6.168,-6.1406,-6.0547,-6.1055,-6.1367,-6.0508,-6.0351,-6.0078,-5.9297,-5.8437,0.0,-5.7851,-5.7109,-5.6601,-5.6601,-5.6601,-5.6601,-5.6601,-5.6601,-5.6601,-5.6601,-5.6562,-5.6562,-5.6562,-5.6523,-5.6523,-5.6523,-5.5703,-5.5273,-5.5273,0.0,0.0,0.0,0.0,0.0,0.0,0.0,0.0,0.0,0.0,0.0,0.0,0.0,0.0,0.0,0.0,0.0,0.0,0.0,0.0,0.0,-6.8284,-6.8123,-6.8637,-6.8825,-6.8935,-6.8935,-6.9085,-6.9333,-6.9701,-7.0095,-7.0314,-7.0314,-7.0666,-7.0783,-7.0591,-7.0552,-7.0475,-7.0206,-7.0206,-6.9937,-6.936,-6.8744,-6.809,-6.7436,-6.6859,-6.659,-6.659,-6.659,-6.659,-6.6551,-6.632,-6.6244,-6.6205,-6.5974,-6.5897,-6.5936,-6.6397,-6.6436,-6.6244,-6.6244,-6.609,-6.582,-6.5166,-6.4974,-6.4859,-6.4205,-6.388,-6.3719,-6.3719,-6.3255,-6.2726,-6.2788,-6.2357,-6.1861,-6.1918,-6.1828,-6.1719,-6.1719,-6.1719,-6.1719,-6.1719,-6.1211,-6.0703,-6.0469,-6.0117,-5.9805,-5.957,-5.9531,-5.9258,-5.8398,-5.8047,0.0,-5.7031,-5.6758,-5.6601,-5.6601,-5.6601,-5.6601,-5.6601,-5.6601,-5.6601,-5.6601,-5.6015,-5.5664,-5.5664,-5.5039,-5.4726,-5.4726,-5.4492,-5.4375,0.0,0.0,0.0,0.0,0.0,0.0,0.0,0.0,0.0,0.0,0.0,0.0,0.0,0.0,0.0,0.0,0.0,0.0,0.0,0.0,0.0,0.0,-6.7878,-6.781,-6.8123,-6.8344,-6.8511,-6.8511,-6.8705,-6.8956,-6.9272,-6.9588,-6.9757,-6.9757,-7.0266,-7.0386,-7.0041,-7.0277,-7.0244,-6.986,-6.986,-6.9629,-6.9167,-6.8667,-6.7975,-6.709,-6.6628,-6.6244,-6.5897,-6.5897,-6.5897,0.0,-6.5897,-6.5897,-6.5897,-6.5897,-6.5667,0.0,0.0,0.0,0.0,0.0,-6.5128,-6.4743,-6.4243,-6.4051,-6.3974,-6.3462,-6.3089,-6.2781,-6.2781,-6.2282,-6.1669,-6.1735,-6.1522,-6.1315,-6.1446,-6.1571,-6.1633,-6.1679,-6.1406,-6.1172,-6.1172,-6.0508,-5.9805,-5.9414,0.0,0.0,-5.8076,-5.8397,-5.8359,-5.75,-5.7344,-5.7187,-5.668,-5.6601,-5.6601,-5.6601,-5.6601,-5.6601,-5.6601,-5.6601,0.0,0.0,0.0,-5.5156,-5.4765,-5.4258,0.0,0.0,0.0,-5.3476,-5.3437,0.0,0.0,0.0,-5.3672,-5.3984,0.0,0.0,0.0,0.0,0.0,0.0,0.0,0.0,0.0,0.0,0.0,0.0,0.0,0.0,0.0,0.0,-6.7687,-6.7687,-6.7687,-6.8123,-6.8392,-6.8392,-6.884,-6.9127,-6.9127,-6.9169,-6.921,-6.921,-6.9757,-6.9752,-6.8989,0.0,0.0,0.0,0.0,-6.8692,-6.8692,-6.859,-6.8129,-6.7244,-6.7128,-6.6667,-6.5897,-6.5897,-6.5897,-6.5897,-6.5897,-6.582,-6.5743,-6.5743,-6.5243,-6.4551,-6.5282,-6.559,-6.5513,-6.4743,-6.3974,0.0,0.0,0.0,0.0,-6.3051,-6.2551,-6.1947,-6.1947,-6.1408,-6.08,-6.0935,-6.0979,-6.105,-6.1387,-6.1442,-6.147,-6.1519,-6.0936,-6.0351,-6.0273,-5.9648,-5.8828,-5.8046,-5.7714,-5.7286,-5.6497,-5.7127,-5.7458,-5.6677,-5.6561,0.0,-5.6562,-5.6601,-5.6601,-5.6601,0.0,0.0,-5.6601,-5.6601,-5.6211,-5.5351,-5.5117,-5.4609,-5.375,-5.3711,-5.3711,-5.3711,-5.2969,-5.2539,-5.2539,-5.1797,-5.1406,-5.1445,-5.3008,-5.3711,0.0,0.0,0.0,0.0,0.0,0.0,0.0,0.0,0.0,0.0,0.0,0.0,0.0,0.0,0.0,-6.7784,-6.7687,-6.7687,-6.7687,-6.7784,-6.7863,-6.7863,-6.7956,-6.8033,-6.8033,-6.8392,-6.866,-6.866,-6.9569,-7.0019,-6.9866,-7.0392,-7.0591,-7.0437,-7.0437,-7.0437,-7.0437,-6.9783,-6.9013,-6.8129,0.0,0.0,-6.5897,-6.5897,-6.5897,-6.5897,-6.5897,-6.5513,-6.4859,-6.4859,-6.4359,-6.3589,-6.3743,-6.382,-6.3782,-6.3628,-6.3435,-6.3205,-6.2551,-6.232,-6.2204,-6.1512,-6.1166,-6.105,-6.105,-6.0935,0.0,-6.0823,-6.0925,-6.1023,-6.1066,-6.1234,-6.1208,-6.0648,-6.0351,-6.0091,-5.9569,-5.875,-5.8085,-5.7785,-5.7141,-5.6566,-5.629,-5.6407,-5.6464,-5.6308,-5.6374,-5.6448,-5.6448,-5.6517,-5.6601,-5.6601,-5.6601,-5.6601,-5.6601,-5.6601,-5.6211,-5.5351,-5.3984,-5.2812,-5.1953,-5.1914,-5.1914,-5.1914,-5.1758,-5.1641,-5.1641,-5.1484,-5.1406,-5.1406,-5.1758,-5.1914,0.0,0.0,0.0,0.0,0.0,0.0,0.0,0.0,0.0,0.0,0.0,-6.9847,-6.9042,0.0,-6.8184,-6.7269,-6.743,-6.754,-6.7136,-6.743,-6.7687,-6.7687,-6.7687,-6.7687,-6.7687,-6.793,-6.8097,-6.8097,-6.9106,-6.9701,-6.9701,-7.0463,-7.0898,-7.0898,-7.0898,-7.0898,-7.0898,-7.0514,-6.9667,-6.8385,-6.7975,-6.709,-6.5897,-6.5897,-6.5897,-6.5897,-6.5897,-6.5397,-6.4551,-6.3705,-6.3089,-6.2666,-6.2204,-6.232,-6.2704,-6.2704,-6.2435,-6.1973,-6.1589,-6.1447,-6.1358,-6.0935,-6.0781,-6.0781,-6.0781,-6.0781,-6.0781,-6.0781,-6.0856,-6.0799,-6.0506,-6.0468,-6.0352,-5.9615,-5.9135,-5.8722,-5.8376,-5.7643,-5.7046,-5.696,-5.651,-5.6125,-5.6045,-5.5993,-5.5993,-5.6169,-5.6246,-5.6285,-5.6285,-5.6368,-5.6391,-5.6391,-5.6391,-5.6391,-5.6391,-5.5677,-5.5024,-5.4595,-5.2967,-5.1836,-5.1406,-5.1406,-5.1406,-5.1406,-5.1406,-5.1406,-5.1406,-5.1406,-5.1406,-5.1406,-5.1406,-5.1406,0.0,0.0,0.0,0.0,0.0,0.0,0.0,-7.0898,-7.0885,-7.0762,-7.0378,-6.9863,-6.9046,-6.8556,-6.7887,-6.6691,-6.7026,-6.7283,-6.6806,-6.7283,-6.7687,-6.7687,-6.7687,-6.7687,-6.7687,-6.7687,-6.7687,-6.7687,-6.8705,-6.9313,-6.9313,-7.0314,-7.0898,-7.0898,-7.0898,-7.0898,-7.0898,-7.0898,-7.0052,-6.8385,-6.8385,-6.7513,-6.5897,-6.5897,-6.5897,-6.5859,-6.5551,-6.5013,-6.4205,-6.2551,-6.187,-6.1793,-6.105,-6.1243,-6.187,-6.187,-6.1408,-6.0781,-6.0781,-6.0781,-6.0781,-6.0781,-6.0781,-6.0781,-6.0781,-6.0781,-6.0742,-6.0589,-6.055,-6.0376,-5.9679,-5.9502,-5.9332,-5.8571,-5.7869,-5.7331,-5.7203,-5.6664,-5.6186,-5.6152,-5.5991,-5.5907,-5.5866,-5.5769,-5.5779,-5.6057,-5.6128,-5.6146,-5.6146,-5.6175,-5.6191,-5.6191,-5.6191,-5.6114,-5.5963,-5.4601,-5.3715,-5.3576,-5.2174,-5.1366,-5.1406,-5.1406,-5.1406,-5.1406,-5.1406,-5.1406,-5.1406,-5.1406,-5.1406,-5.1406,-5.1406,-5.1406,-7.0898,-7.0898,-7.0898,-7.0898,-7.0898,-7.0898,0.0,-7.0898,-7.0762,-7.0298,-7.0145,-6.9565,-6.7822,-6.7477,-6.7219,-6.6581,-6.6586,-6.6843,-6.7467,-6.7614,-6.7687,-6.7687,-6.7687,-6.7687,-6.7687,-6.7687,-6.7687,-6.7687,-6.8705,-6.9313,-6.9313,-7.0314,-7.0898,-7.0898,-7.0898,-7.0898,-7.0898,-7.0898,-7.0052,-6.8385,-6.8385,-6.7513,-6.5897,-6.5897,-6.5897,-6.582,-6.4282,-6.3538,-6.332,-6.1627,-6.0935,-6.0935,-6.0819,-6.0858,-6.0935,-6.0935,-6.0858,-6.0781,-6.0781,-6.0781,-6.0781,-6.0781,-6.0781,-6.0781,-6.0781,-6.0781,-6.0627,-5.9858,-5.9665,-5.9446,-5.8671,-5.8479,-5.8284,-5.7533,-5.7273,-5.7048,-5.6475,-5.6269,-5.6152,-5.5954,-5.5932,-5.5857,-5.5758,-5.5724,-5.5724,-5.5748,-5.587,-5.5916,-5.5916,-5.6104,-5.6191,-5.6191,-5.6191,-5.5885,-5.5107,-5.4183,-5.3338,-5.2684,-5.1757,-5.1271,-5.1406,-5.1406,-5.1406,-5.1406,-5.1406,-5.1406,-5.1406,-5.1406,-5.1406,-5.1406,-5.1406,-5.1406,-7.0052,-7.0206,-7.0321,-7.0783,-7.0898,-7.0783,-7.0321,-7.0206,-7.0011,-6.9265,-6.9121,-6.8785,-6.7675,-6.7587,-6.7373,-6.6381,-6.6773,-6.7136,-6.7026,-6.7393,-6.7687,-6.7687,-6.7687,-6.7687,-6.7687,-6.7687,-6.7687,-6.7687,-6.8705,-6.9313,-6.9313,-7.0314,-7.0898,-7.0898,-7.0898,-7.0898,-7.0898,-7.0898,-7.0052,-6.8385,-6.8385,-6.7513,-6.5897,-6.5897,-6.5897,-6.5782,-6.4051,-6.3308,-6.3166,-6.1473,-6.0781,-6.0781,-6.0781,-6.0781,-6.0781,-6.0781,-6.0781,-6.0781,-6.0781,-6.0781,-6.0781,-6.0781,-6.0781,-6.0781,-6.0781,-6.0435,-5.9973,-5.9588,-5.9165,-5.8627,-5.7742,-5.755,-5.7352,-5.6502,-5.6339,-5.6252,-5.5965,-5.5913,-5.5879,-5.5817,-5.5798,-5.576,-5.5724,-5.5703,-5.5703,-5.5703,-5.5768,-5.5798,-5.5798,-5.5852,-5.5913,-5.5913,-5.5913,-5.5565,-5.4752,-5.3924,-5.3163,-5.2442,-5.1645,-5.1267,-5.1406,-5.1406,-5.1406,-5.1406,-5.1406,-5.1406,-5.1406,-5.1406,-5.1406,-5.1406,-5.1406,-5.1406,-6.9167,-6.936,-6.9475,-7.0052,-7.0206,-7.0052,-6.9475,-6.936,-6.9167,-6.8552,-6.8385,-6.8161,-6.7414,-6.7592,-6.7482,-6.6202,-6.6877,-6.741,-6.6906,-6.732,-6.7687,-6.7687,-6.7687,-6.7687,-6.7687,-6.7687,-6.7687,-6.7687,-6.8581,-6.9148,-6.9292,-7.02,-7.0762,-7.0898,-7.0898,-7.0898,-7.0898,-7.0898,-7.0052,-6.8385,-6.8385,-6.7513,-6.5897,-6.5897,-6.5782,-6.5474,-6.3935,-6.3166,-6.2858,-6.1396,-6.0781,-6.0781,-6.0781,-6.0781,-6.0781,-6.0781,-6.0781,-6.0781,-6.0781,-6.0781,-6.0781,-6.0781,-6.0627,-6.0435,-6.0435,-5.9858,-5.9127,-5.8896,-5.8396,-5.7742,-5.6868,-5.6637,-5.6483,-5.5857,-5.5703,-5.5703,-5.5703,-5.5703,-5.5703,-5.5703,-5.5703,-5.5703,-5.5703,-5.5703,-5.5703,-5.5703,-5.5703,-5.5703,-5.5703,-5.5703,-5.5703,-5.5703,-5.5703,-5.528,-5.4241,-5.3637,-5.2934,-5.1952,-5.1399,-5.1185,-5.1324,-5.1324,-5.1366,-5.1406,-5.1406,-5.1406,-5.1406,-5.1406,-5.1406,-5.1406,-5.1406,-5.1406,-6.8436,-6.8423,-6.8462,-6.8475,-6.8475,-6.8475,-6.8462,-6.8423,-6.8436,-6.8398,-6.8385,-6.8021,-6.6666,-6.7082,-6.7271,-6.6194,-6.6737,-6.738,-6.7647,-6.7677,-6.7687,-6.7687,-6.7687,-6.7687,-6.7687,-6.7687,-6.7687,-6.7687,-6.821,-6.875,-6.9272,-6.9811,-7.0346,-7.0885,-7.0898,-7.0898,-7.0898,-7.0898,-7.0052,-6.8385,-6.8385,-6.7513,-6.5897,-6.5897,-6.5436,-6.4589,-6.3705,-6.2858,-6.2062,-6.1166,-6.0781,-6.0781,-6.0781,-6.0781,-6.0781,-6.0781,-6.0781,-6.0781,-6.0781,-6.0781,-6.0781,-6.0781,-6.0242,-5.955,-5.955,-5.8973,-5.8165,-5.733,-5.706,-5.683,-5.5972,-5.5742,-5.5742,-5.5703,-5.5703,-5.5703,-5.5703,-5.5703,-5.5703,-5.5703,-5.5703,-5.5703,-5.5703,-5.5703,-5.5703,-5.5703,-5.5703,-5.5703,-5.5703,-5.5703,-5.5703,-5.5703,-5.5703,-5.5011,-5.3395,-5.3203,-5.255,-5.1036,-5.0903,-5.0981,-5.1201,-5.1206,-5.1268,-5.1406,-5.1406,-5.1406,-5.1406,-5.1406,-5.1406,-5.1406,-5.1406,-5.1406,-6.7398,-6.7552,-6.7667,-6.8282,-6.8385,-6.8244,-6.7667,-6.7552,-6.7398,-6.6859,-6.7167,-6.7397,-6.6943,-6.7692,-6.8278,-6.7921,-6.798,-6.8142,-6.8222,-6.793,-6.7687,-6.7687,-6.7687,-6.7687,-6.7687,-6.7687,0.0,-6.7687,-6.8185,-6.875,-6.9272,-6.9811,-7.0346,-7.0885,-7.0898,-7.0898,-7.0898,-7.036,-6.9552,-6.8385,-6.7282,-6.6436,-6.5897,-6.5897,-6.5436,-6.4551,-6.3666,-6.2858,-6.2024,-6.1166,-6.0781,-6.0781,-6.0781,-6.0781,-6.0781,-6.0781,-6.0781,-6.0781,-6.0781,-6.0781,-6.0704,-6.0127,-5.9742,-5.9396,-5.8858,-5.8127,-5.7357,-5.7099,-5.6599,-5.6049,-5.578,-5.5703,-5.5703,-5.5703,-5.5703,-5.5703,-5.5703,-5.5703,-5.5703,-5.5703,-5.5703,-5.5703,-5.5703,-5.5703,-5.5703,-5.5703,-5.5703,-5.5703,-5.5703,-5.5703,-5.5703,-5.5703,-5.5203,-5.4434,-5.3318,-5.2654,-5.1924,-5.0952,-5.0889,-5.1008,-5.1196,-5.1204,-5.1267,-5.1406,-5.1406,-5.1406,-5.1406,-5.1406,-5.1406,-5.1406,-5.1406,-5.1406,-6.6513,-6.6667,-6.6821,-6.7359,-6.7513,-6.7359,-6.6782,-6.6667,-6.6513,-6.6013,-6.6551,-6.709,-6.709,-6.8206,-6.9053,-6.8853,-6.8963,-6.8999,-6.8803,-6.8296,-6.8007,-6.8007,-6.781,-6.7687,-6.7687,-6.7687,-6.7687,-6.7687,-6.7996,-6.8558,-6.9272,-6.9626,-7.0145,-7.0885,-7.0898,-7.0898,-7.0898,-7.009,-6.9129,-6.7936,-6.6551,-6.5897,-6.5897,-6.5897,-6.5243,-6.4089,-6.3538,-6.2666,-6.1601,-6.1012,-6.0781,-6.0781,-6.0781,-6.0781,-6.0781,-6.0781,-6.0781,-6.0781,-6.0781,-6.0589,-6.0242,-5.9665,-5.9088,-5.8511,-5.7973,-5.7242,-5.656,-5.656,-5.6126,-5.5703,-5.5703,-5.5703,-5.5703,-5.5703,-5.5703,-5.5703,-5.5703,-5.5703,-5.5703,-5.5703,-5.5703,-5.5703,-5.5703,-5.5703,-5.5703,-5.5703,-5.5703,-5.5703,-5.5703,-5.5703,-5.5703,-5.5703,-5.4972,-5.4164,-5.328,-5.2385,-5.1578,-5.0888,-5.0819,-5.0893,-5.1101,-5.1144,-5.1238,-5.1321,-5.1366,-5.1406,-5.1406,-5.1406,-5.1406,-5.1406,-5.1406,-5.1406,-6.5897,-6.5897,-6.5897,-6.5897,-6.5897,-6.5897,-6.5897,-6.5897,-6.5897,-6.5897,-6.6551,-6.709,-6.7167,-6.8552,-6.9505,-6.9011,-6.9578,-6.9901,-6.9413,-6.8884,-6.8511,-6.8511,-6.8058,-6.7687,-6.7687,-6.7687,-6.7687,-6.7687,0.0,-6.8161,-6.9251,-6.9313,-6.9775,-7.0871,-7.0898,-7.0898,-7.0821,-6.9975,-6.8706,-6.7013,-6.6244,-6.5897,-6.5897,-6.5859,-6.4897,-6.3308,-6.3281,-6.232,-6.0781,-6.0781,-6.0781,-6.0781,-6.0781,-6.0781,-6.0781,-6.0781,-6.0781,-6.0781,-6.0742,-6.0204,-5.9473,-5.9435,-5.8319,-5.6983,-5.6945,-5.6368,-5.5703,-5.5703,-5.5703,-5.5703,-5.5703,-5.5703,-5.5703,-5.5703,-5.5703,-5.5703,-5.5703,-5.5703,-5.5703,-5.5703,-5.5703,-5.5703,-5.5703,-5.5703,-5.5703,-5.5703,-5.5703,-5.5703,-5.5703,-5.5703,-5.5703,-5.5703,-5.4934,-5.4087,-5.328,-5.2346,-5.151,-5.075,-5.0712,-5.0747,-5.0882,-5.1008,-5.1101,-5.1196,-5.1321,-5.1406,-5.1406,-5.1406,-5.1406,-5.1406,-5.1406,-5.1406,-6.5897,-6.5897,-6.5897,-6.5897,-6.5897,-6.5897,-6.5897,-6.5897,-6.5897,-6.5897,-6.6551,-6.7282,-6.7936,-6.8975,-6.9871,-7.0273,-7.0232,-7.0061,-6.9901,-6.9106,-6.8511,-6.8511,-6.8058,-6.7687,-6.7687,-6.7687,-6.7687,-6.7687,-6.7687,-6.8161,-6.9251,-6.9313,-6.9775,-7.0871,-7.0898,-7.0591,-7.0014,-6.8513,-6.7244,-6.6205,-6.6013,-6.5897,-6.5859,-6.5243,-6.432,-6.3281,-6.2666,-6.1781,-6.0781,-6.0781,-6.0781,-6.0781,-6.0781,-6.0781,-6.0781,-6.0781,-6.0781,-6.0704,-6.005,-5.9704,-5.9396,-5.8819,-5.7896,-5.6868,-5.6252,-5.5857,-5.5703,-5.5703,-5.5703,-5.5703,-5.5703,-5.5703,-5.5703,-5.5703,-5.5703,-5.5703,-5.5703,-5.5703,-5.5703,-5.5703,-5.5703,-5.5703,-5.5703,-5.5703,-5.5703,-5.5703,-5.5703,-5.5703,-5.5703,-5.5703,-5.5703,-5.5703,-5.4395,-5.3433,-5.3241,-5.1856,-5.0933,-5.0712,-5.0712,-5.0747,-5.0882,-5.0932,-5.1002,-5.1135,-5.1194,-5.1263,-5.1263,-5.1364,-5.1406,-5.1406,-5.1406,-5.1406,-6.5897,-6.5897,-6.5897,-6.5897,-6.5897,-6.5897,-6.5897,-6.5897,-6.5897,-6.5897,-6.6551,-6.7244,-6.7744,-6.8552,-6.9398,-7.0244,-7.01,-7.0042,-7.0386,-6.9738,-6.9127,-6.8869,-6.8368,-6.7956,-6.7741,-6.7687,-6.7687,-6.7687,-6.7687,-6.8161,-6.9251,-6.9313,-6.9775,-7.0871,-7.0321,-6.9428,-6.8277,-6.7472,-6.6705,-6.5897,-6.5897,-6.5897,-6.5859,-6.5013,-6.4128,-6.3281,0.0,-6.1601,-6.0781,-6.0781,-6.0781,-6.0781,-6.0781,-6.0781,-6.0781,-6.0781,-6.055,-6.0165,-5.9665,-5.9011,-5.8319,-5.7896,-5.7126,-5.6329,-5.5857,-5.5703,-5.5703,-5.5703,-5.5703,-5.5703,-5.5703,-5.5703,-5.5703,-5.5703,-5.5703,-5.5703,-5.5703,-5.5703,-5.5703,-5.5703,-5.5703,-5.5703,-5.5703,-5.5703,-5.5703,-5.5703,-5.5703,-5.5703,-5.5703,-5.5703,-5.5549,-5.5203,-5.3972,-5.3049,-5.2654,-5.1433,-5.0712,-5.0712,-5.0712,-5.073,-5.0825,-5.0883,-5.0972,-5.1089,-5.1164,-5.1215,-5.1274,-5.1366,-5.1406,-5.1406,-5.1406,-5.1406,-6.591,-6.5897,-6.5897,-6.5897,-6.5897,-6.5897,-6.5897,-6.5897,-6.5897,-6.5897,-6.6436,-6.6974,-6.709,-6.7705,-6.8513,-6.9398,-6.9629,-6.9937,-7.0629,-7.0371,-6.9883,-6.9373,-6.884,-6.8308,-6.7731,-6.7687,-6.7687,-6.7687,-6.7687,-6.8148,-6.9148,-6.9272,-6.9719,-7.0609,-6.9228,-6.7812,-6.6396,-6.6681,-6.6513,-6.5897,-6.5897,-6.582,-6.5705,-6.482,-6.3974,-6.3089,0.0,0.0,-6.0781,-6.0781,-6.0781,-6.0781,-6.0781,-6.0781,-6.0781,-6.0666,-6.0165,-5.9473,-5.9242,-5.8204,-5.6983,-5.6983,-5.6406,-5.5703,-5.5703,-5.5703,-5.5703,-5.5703,-5.5703,-5.5703,-5.5703,-5.5703,-5.5703,-5.5703,-5.5703,-5.5703,-5.5703,-5.5703,-5.5703,-5.5703,-5.5703,-5.5703,-5.5703,-5.5703,-5.5703,-5.5703,-5.5703,-5.5703,-5.5703,-5.5703,-5.5395,-5.4587,-5.3703,-5.2856,-5.1962,-5.1164,-5.0712,-5.0712,-5.0712,-5.0712,-5.0712,-5.0795,-5.0939,-5.1063,-5.1144,-5.1258,-5.1366,-5.1406,-5.1406,-5.1406,-5.1406,-5.1406,-6.5933,-6.5897,-6.5897,-6.5897,-6.5897,-6.5897,-6.5897,-6.5897,-6.5897,-6.5897,-6.6013,-6.632,-6.6974,-6.7205,-6.759,-6.8475,-6.9244,-6.9744,-6.9898,-7.0026,-6.9883,-6.9373,-6.884,-6.8308,-6.7731,-6.7687,-6.7687,-6.7687,-6.7687,-6.7982,-6.859,-6.9064,-6.9304,-6.9234,-6.725,-6.6269,-6.6396,-6.5788,-6.5614,-6.5897,-6.5897,-6.5513,-6.4782,-6.3935,-6.3089,-6.2255,-6.1396,0.0,-6.0781,-6.0781,-6.0781,-6.0781,-6.0781,-6.0781,-6.0704,-5.9973,-5.9627,-5.9319,-5.7896,-5.7253,-5.6983,-5.6983,-5.6406,-5.5703,-5.5703,-5.5703,-5.5703,-5.5703,-5.5703,-5.5703,-5.5703,-5.5703,-5.5703,-5.5703,-5.5703,-5.5703,-5.5703,-5.5703,-5.5703,-5.5703,-5.5703,-5.5703,-5.5703,-5.5703,-5.5703,-5.5703,-5.5703,-5.5703,-5.5703,-5.5703,-5.5395,-5.4587,-5.3703,-5.2856,-5.1962,-5.1164,-5.0712,-5.0712,-5.0712,-5.0712,-5.0712,-5.0712,-5.0808,-5.0932,-5.1058,-5.114,-5.1219,-5.1363,-5.1406,-5.1406,-5.1406,-5.1406,-6.6024,-6.5955,-6.5897,-6.5897,-6.5897,-6.5897,-6.5897,-6.5897,-6.5897,-6.5897,-6.5897,-6.6013,-6.6397,-6.6474,-6.6744,-6.759,-6.8052,-6.8513,-6.8975,-6.9131,-6.9071,-6.8675,-6.8387,-6.8082,-6.772,-6.7687,-6.7687,-6.7687,-6.7283,-6.7487,-6.845,-6.8608,-6.8087,-6.6842,-6.6011,-6.552,-6.5376,-6.5177,-6.5388,-6.5897,-6.5436,-6.5013,-6.4551,-6.3243,-6.2474,-6.2062,-6.1166,0.0,-6.0781,-6.0781,-6.0781,-6.0781,-6.0781,-6.0781,-6.0704,-5.9819,-5.9242,-5.8704,-5.7434,-5.6703,-5.6329,-5.6329,-5.6049,-5.5703,-5.5703,-5.5703,-5.5703,-5.5703,-5.5703,-5.5703,-5.5703,-5.5703,-5.5703,-5.5703,-5.5703,-5.5703,-5.5703,-5.5703,-5.5703,-5.5703,-5.5703,-5.5703,-5.5703,-5.5703,-5.5703,-5.5703,-5.5703,-5.5703,-5.5703,-5.5703,-5.5203,-5.3972,-5.3433,-5.2664,-5.1395,-5.0933,-5.0712,-5.0712,-5.0712,-5.0712,-5.0712,-5.0712,-5.0747,-5.0889,-5.0972,-5.105,-5.1204,-5.1267,-5.1323,-5.1406,-5.1406,-5.1406,-6.6137,-6.6035,-6.5946,-6.5923,-6.5897,-6.5897,-6.5897,-6.5897,-6.5897,-6.5897,-6.5897,-6.5897,-6.5897,-6.5897,-6.609,-6.6744,-6.6974,-6.7321,-6.8013,-6.8282,-6.8286,-6.7941,-6.7825,-6.7616,-6.7366,-6.7242,-6.7173,-6.7173,-6.6586,-6.675,-6.7929,-6.7529,-6.6523,-6.4964,-6.4982,-6.4738,-6.4217,-6.4696,-6.5215,-6.5717,-6.4975,-6.4512,-6.4282,-6.2781,-6.1985,-6.1793,-6.1089,0.0,0.0,-6.0781,-6.0781,-6.0781,-6.0781,-6.0704,-6.0435,-5.955,-5.8704,-5.7896,-5.7011,-5.628,-5.5703,-5.5703,-5.5703,-5.5703,-5.5703,-5.5703,-5.5703,-5.5703,-5.5703,-5.5703,-5.5703,-5.5703,-5.5703,-5.5703,-5.5703,-5.5703,-5.5703,-5.5703,-5.5703,-5.5703,-5.5703,-5.5703,-5.5703,-5.5703,-5.5703,-5.5703,-5.5703,-5.5703,-5.5703,-5.5549,-5.4857,-5.3356,-5.3203,-5.251,-5.0827,-5.0712,-5.0712,-5.0712,-5.0712,-5.0712,-5.0712,-5.0712,-5.0747,-5.0889,-5.0889,-5.1008,-5.118,-5.1196,-5.1263,-5.1365,-5.1406,-5.1406,-6.6187,-6.609,-6.6059,-6.5933,-6.5897,-6.5897,-6.5897,-6.5897,-6.5897,-6.5897,-6.5897,-6.5897,-6.5897,-6.5897,-6.5897,-6.6013,-6.6628,-6.7128,-6.7205,-6.7898,-6.8196,-6.7697,-6.7202,-6.6695,-6.6193,-6.5767,-6.5521,-6.5521,-6.5448,-6.568,-6.6276,-6.5138,-6.4572,-6.4882,-6.3672,-6.3265,-6.3659,-6.4197,-6.4696,-6.5161,-6.478,-6.4205,-6.3397,-6.2512,-6.1678,-6.0935,-6.0819,0.0,0.0,-6.0781,-6.0781,-6.0781,-6.0781,-6.0319,-5.9511,-5.8704,-5.7857,-5.6983,-5.6126,-5.578,-5.5703,-5.5703,-5.5703,-5.5703,-5.5703,-5.5703,-5.5703,-5.5703,-5.5703,-5.5703,-5.5703,-5.5703,-5.5703,-5.5703,-5.5703,-5.5703,-5.5703,-5.5703,-5.5703,-5.5703,-5.5703,-5.5703,-5.5703,-5.5703,-5.5703,-5.5703,-5.5703,-5.5703,-5.5703,-5.5049,-5.4241,-5.3318,-5.3203,-5.251,-5.0827,-5.0712,-5.0712,-5.0712,-5.0712,-5.0712,-5.0712,-5.0712,-5.0747,-5.0889,-5.0889,-5.0985,-5.1108,-5.1167,-5.1206,-5.1213,-5.1324,-5.1406,-6.6429,-6.6322,-6.6228,-6.6059,-6.6024,-6.6019,-6.5909,-6.5897,-6.5897,-6.5897,-6.5897,-6.5897,-6.5897,-6.5897,-6.5897,-6.5897,-6.6167,-6.6359,-6.6359,-6.6667,-6.6866,-6.6831,-6.6386,-6.6056,-6.6,-6.5571,-6.5118,-6.4604,-6.4567,-6.4437,-6.4118,-6.4094,-6.3959,-6.3638,-6.3076,-6.3062,-6.3571,-6.4119,-6.436,-6.4298,-6.3999,-6.3397,-6.2551,-6.1704,-6.1127,-6.0781,-6.0781,0.0,0.0,-6.0781,-6.0781,-6.0742,-6.0204,-5.9819,-5.9358,-5.8011,-5.7291,-5.6868,-5.6011,-5.5703,-5.5703,-5.5703,-5.5703,-5.5703,-5.5703,-5.5703,-5.5703,-5.5703,-5.5703,-5.5703,-5.5703,-5.5703,-5.5703,-5.5703,-5.5703,-5.5703,-5.5703,-5.5703,-5.5703,-5.5703,-5.5703,-5.5703,-5.5703,-5.5703,-5.5703,-5.5703,-5.5703,-5.5703,-5.5703,-5.5011,-5.4164,-5.328,-5.2731,-5.1972,-5.0789,-5.0712,-5.0712,-5.0712,-5.0712,-5.0712,-5.0712,-5.0712,-5.0721,-5.0773,-5.0773,-5.0844,-5.0998,-5.1025,-5.1096,-5.1204,-5.1263,-5.1321,-6.5881,-6.5784,-6.5666,-6.5407,-6.5373,-6.5306,-6.5163,-6.532,-6.5513,-6.5513,-6.5513,-6.5513,-6.5513,-6.5513,-6.5513,-6.5513,-6.5743,-6.5897,-6.5897,-6.5897,-6.596,-6.6162,-6.5641,-6.5346,-6.5518,-6.4953,-6.4347,-6.3759,-6.3723,-6.3466,-6.2817,-6.3392,-6.3429,-6.2817,-6.278,-6.2965,-6.334,-6.3651,-6.3728,-6.3612,-6.2992,-6.2503,-6.2062,-6.1204,-6.0781,-6.0781,0.0,0.0,0.0,-6.0781,-6.0781,-6.0704,-5.9858,-5.9358,-5.8973,-5.7522,-5.683,-5.6522,-5.5895,-5.5703,-5.5703,-5.5703,-5.5703,-5.5703,-5.5703,-5.5703,-5.5703,-5.5703,-5.5703,-5.5703,-5.5703,-5.5703,-5.5703,-5.5703,-5.5703,-5.5703,-5.5703,-5.5703,-5.5703,-5.5703,-5.5703,-5.5703,-5.5703,-5.5703,-5.5703,-5.5703,-5.5703,-5.5703,-5.5703,-5.478,-5.3895,-5.328,-5.2202,-5.1318,-5.075,-5.0712,-5.0712,-5.0712,-5.0712,-5.0712,-5.0712,-5.0712,-5.0712,-5.0712,-5.0712,-5.0758,-5.0835,-5.0859,-5.1008,-5.1171,-5.1194,-5.127,-6.4174,-6.4112,-6.4025,-6.3696,-6.3612,-6.3584,-6.338,-6.4012,-6.4628,-6.4628,-6.4628,-6.4628,-6.4628,-6.4628,-6.4628,-6.4628,-6.532,-6.5897,-6.5897,-6.5897,-6.5897,-6.5897,-6.5025,-6.4426,-6.4407,-6.3431,-6.2817,-6.278,-6.278,0.0,-6.278,-6.278,-6.278,-6.278,-6.278,-6.2805,-6.2805,-6.2561,-6.2657,-6.3087,-6.1977,-6.1666,-6.2062,-6.1204,-6.0781,0.0,0.0,0.0,0.0,-6.0781,-6.0781,-6.0704,-5.9858,-5.9011,-5.8204,-5.733,-5.6445,-5.5703,-5.5703,-5.5703,-5.5703,-5.5703,-5.5703,-5.5703,-5.5703,-5.5703,-5.5703,-5.5703,-5.5703,-5.5703,-5.5703,-5.5703,-5.5703,-5.5703,-5.5703,-5.5703,-5.5703,-5.5703,-5.5703,-5.5703,-5.5703,-5.5703,-5.5703,-5.5703,-5.5703,-5.5703,-5.5703,-5.5703,-5.5703,-5.4241,-5.3203,-5.3203,-5.1702,-5.0712,-5.0712,-5.0712,-5.0712,-5.0712,-5.0712,-5.0712,-5.0712,-5.0712,-5.0712,-5.0712,-5.0712,-5.0712,-5.0712,-5.0827,-5.0985,-5.1099,-5.1167,-5.127,-6.4253,-6.4251,-6.4154,-6.3819,-6.3733,-6.3643,-6.3361,-6.3512,-6.3705,-6.3705,-6.3705,-6.3705,-6.3705,-6.3705,-6.3705,-6.3705,-6.3935,-6.432,-6.4936,-6.5013,-6.5243,-6.582,-6.5276,-6.4608,-6.3934,-6.3565,-6.3191,-6.283,-6.278,-6.278,-6.278,-6.278,-6.278,-6.278,-6.278,-6.2548,-6.1998,-6.2264,-6.189,-6.0933,-6.1224,-6.1182,-6.072,-6.0762,0.0,0.0,0.0,0.0,0.0,-6.0781,-6.0435,-5.9819,-5.9011,-5.8165,-5.7319,-5.6434,-5.5934,-5.5703,-5.5703,-5.5703,-5.5703,-5.5703,-5.5703,-5.5703,-5.5703,-5.5703,-5.5703,-5.5703,-5.5703,-5.5703,-5.5703,-5.5703,-5.5703,-5.5703,-5.5703,-5.5703,-5.5703,-5.5703,-5.5703,-5.5703,-5.5703,-5.5703,-5.5703,-5.5703,-5.5703,-5.5703,-5.5703,-5.5703,-5.5703,-5.4241,-5.3203,-5.3203,-5.1702,-5.0712,-5.0712,-5.0712,-5.0712,-5.0712,-5.0712,-5.0712,-5.0712,-5.0712,-5.0712,-5.0712,-5.0712,-5.0712,-5.0712,-5.0749,-5.0827,-5.0985,-5.1136,-5.1213,-6.332,-6.332,-6.3236,-6.2917,-6.2846,-6.2754,-6.242,-6.2627,-6.2858,-6.2858,-6.2858,-6.2858,-6.2858,-6.2858,-6.2858,-6.2858,-6.3089,-6.3512,-6.4051,-6.4128,-6.4347,-6.5022,-6.51,-6.4782,-6.3958,-6.3723,-6.3476,-6.3121,-6.2635,0.0,-6.2365,-6.2071,-6.1887,-6.1887,-6.2181,-6.1961,-6.1153,-6.1186,-6.0772,-5.9922,-6.0402,-6.0464,-6.0118,-6.0597,0.0,0.0,0.0,0.0,0.0,-6.0435,-5.9973,-5.9396,-5.8242,-5.7473,-5.6907,-5.6011,-5.5703,-5.5703,-5.5703,-5.5703,-5.5703,-5.5703,-5.5703,-5.5703,-5.5703,-5.5703,-5.5703,-5.5703,-5.5703,-5.5703,-5.5703,-5.5703,-5.5703,-5.5703,-5.5703,-5.5703,-5.5703,-5.5703,-5.5703,-5.5703,-5.5703,-5.5703,-5.5703,-5.5703,-5.5703,-5.5703,-5.5703,-5.5703,-5.5703,-5.4241,-5.3203,-5.3203,-5.1702,-5.0712,-5.0712,-5.0712,-5.0712,-5.0712,-5.0712,-5.0712,-5.0712,-5.0712,-5.0712,-5.0712,-5.0712,-5.0712,-5.0712,-5.0767,-5.0803,-5.0896,-5.1078,-5.1158,0.0,-6.1719,-6.1634,-6.1359,-6.1283,-6.12,-6.0877,-6.1435,0.0,-6.2024,-6.2024,-6.2024,-6.2024,-6.2024,-6.2024,-6.2024,-6.2627,-6.3115,-6.3205,-6.3281,-6.3425,-6.3726,-6.4497,-6.478,-6.4275,-6.3767,-6.3466,-6.3379,-6.2224,0.0,-6.152,-6.0823,-6.0382,-6.0309,-6.1043,-6.108,-6.0309,-5.9551,-5.9388,-5.9748,-5.9478,-5.9559,-6.0044,-6.0508,0.0,0.0,0.0,0.0,0.0,-5.9823,-5.945,-5.9242,-5.7627,-5.6945,-5.683,-5.6011,-5.5703,-5.5703,-5.5703,-5.5703,-5.5703,-5.5703,-5.5703,-5.5703,-5.5703,-5.5703,-5.5703,-5.5703,-5.5703,-5.5703,-5.5703,-5.5703,-5.5703,-5.5703,-5.5703,-5.5703,-5.5703,-5.5703,-5.5703,-5.5703,-5.5703,-5.5703,-5.5703,-5.5703,-5.5703,-5.5703,-5.5703,-5.5703,-5.5703,-5.4241,-5.3203,-5.3203,-5.1702,-5.0712,-5.0712,-5.0712,-5.0712,-5.0712,-5.0712,-5.0712,-5.0712,-5.0712,-5.0712,-5.0712,-5.0712,-5.0712,-5.0712,-5.0811,-5.0905,-5.0874,-5.1008,-5.1079,-6.1719,0.0,-6.1634,-6.1359,-6.1283,-6.12,0.0,-6.0973,-6.1089,-6.1089,-6.1089,-6.1089,-6.1089,-6.1089,-6.1089,-6.1089,-6.1243,-6.1627,-6.2281,-6.2897,-6.3321,-6.3399,-6.3617,-6.3408,-6.2574,-6.2372,-6.1963,-6.1218,0.0,-6.0676,-6.0676,-6.0493,-6.0126,-5.9478,-5.9661,-5.9661,-5.9478,-5.9294,-5.8947,-5.8444,-5.8727,-5.8932,-5.9084,-5.9885,0.0,0.0,0.0,0.0,-6.0207,-5.9314,-5.8821,-5.8473,-5.7407,-5.6599,-5.5972,-5.578,-5.5703,-5.5703,-5.5703,-5.5703,-5.5703,-5.5703,-5.5703,-5.5703,-5.5703,-5.5703,-5.5703,-5.5703,-5.5703,-5.5703,-5.5703,-5.5703,-5.5703,-5.5703,-5.5703,-5.5703,-5.5703,-5.5703,-5.5703,-5.5703,-5.5703,-5.5703,-5.5703,-5.5703,-5.5703,-5.5703,-5.5703,-5.5703,-5.5703,-5.4241,-5.3203,-5.3203,-5.1702,-5.0712,-5.0712,-5.0712,-5.0712,-5.0712,-5.0712,-5.0712,-5.0712,-5.0712,-5.0712,-5.0712,-5.0712,-5.0712,-5.0712,-5.073,-5.0758,-5.0767,-5.0867,-5.0952,-6.1719,-6.1719,-6.1637,-6.1424,-6.1339,-6.122,-6.0964,-6.0845,-6.0781,-6.0781,-6.0781,-6.0781,-6.0781,-6.0781,-6.0781,-6.0781,-6.0781,-6.0973,-6.1435,-6.2204,-6.2743,-6.2743,-6.3089,-6.3039,0.0,-6.2042,-6.1599,-6.0818,0.0,-5.9869,-5.9869,-5.9501,-5.9098,-5.8657,-5.8657,-5.8657,-5.8657,-5.8657,-5.8437,-5.7997,-5.8482,-5.8713,-5.8696,-5.9441,-5.9625,0.0,0.0,0.0,-5.9455,-5.8602,-5.8017,-5.7627,-5.6742,-5.6126,-5.5703,-5.5703,-5.5703,-5.5703,-5.5703,-5.5703,-5.5703,-5.5703,-5.5703,-5.5703,-5.5703,-5.5703,-5.5703,-5.5703,-5.5703,-5.5703,-5.5703,-5.5703,-5.5703,-5.5703,-5.5703,-5.5703,-5.5703,-5.5703,-5.5703,-5.5703,-5.5703,-5.5703,-5.5703,-5.5703,-5.5703,-5.5703,-5.5703,-5.5703,-5.5703,-5.4241,-5.3203,-5.3203,-5.1702,-5.0712,-5.0712,-5.0712,-5.0712,-5.0712,-5.0712,-5.0712,-5.0712,-5.0712,-5.0712,-5.0712,-5.0712,-5.0712,-5.0712,-5.0712,-5.0712,-5.0712,-5.0764,-5.0825,-6.1719,-6.1719,-6.1678,-6.1522,-6.1387,-6.1246,-6.1048,-6.0923,-6.0781,-6.0781,-6.0781,-6.0781,-6.0781,-6.0781,-6.0781,-6.0781,-6.0781,-6.0781,-6.0781,-6.1435,-6.1908,-6.1908,-6.2512,0.0,-6.226,-6.178,-6.1338,0.0,0.0,-5.9001,-5.9001,-5.8364,-5.7997,-5.7997,-5.7997,-5.7997,-5.7997,-5.7997,-5.7997,-5.7997,-5.8397,-5.8591,-5.8611,-5.9065,-5.9248,0.0,0.0,0.0,-5.8629,-5.7815,-5.7315,-5.6907,-5.6049,-5.5703,-5.5703,-5.5703,-5.5703,-5.5703,-5.5703,-5.5703,-5.5703,-5.5703,-5.5703,-5.5703,-5.5703,-5.5703,-5.5703,-5.5703,-5.5703,-5.5703,-5.5703,-5.5703,-5.5703,-5.5703,-5.5703,-5.5703,-5.5703,-5.5703,-5.5703,-5.5703,-5.5703,-5.5703,-5.5703,-5.5703,-5.5703,-5.5703,-5.5703,-5.5703,-5.5703,-5.4241,-5.3203,-5.3203,-5.1702,-5.0712,-5.0712,-5.0712,-5.0712,-5.0712,-5.0712,-5.0712,-5.0712,-5.0712,-5.0712,-5.0712,-5.0712,-5.0712,-5.0712,-5.0712,-5.0712,-5.0712,-5.0712,-5.0712,-6.1719,-6.1719,-6.1678,-6.1522,-6.1387,-6.1246,-6.1048,-6.0923,-6.0781,-6.0781,-6.0781,-6.0781,-6.0781,-6.0781,-6.0781,-6.0781,-6.0781,-6.0781,-6.0781,-6.0935,-6.1012,-6.1012,0.0,-6.1006,-6.0528,-6.0075,0.0,0.0,0.0,-5.818,-5.818,-5.807,-5.7997,-5.7997,-5.7997,-5.7997,-5.7997,-5.7997,-5.7997,-5.7997,-5.8051,-5.8097,-5.8119,-5.8591,-5.8591,0.0,0.0,-5.8578,-5.8136,-5.7326,-5.6992,-5.6907,-5.6049,-5.5703,-5.5703,-5.5703,-5.5703,-5.5703,-5.5703,-5.5703,-5.5703,-5.5703,-5.5703,-5.5703,-5.5703,-5.5703,-5.5703,-5.5703,-5.5703,-5.5703,-5.5703,-5.5703,-5.5703,-5.5703,-5.5703,-5.5703,-5.5703,-5.5703,-5.5703,-5.5703,-5.5703,-5.5703,-5.5703,-5.5703,-5.5703,-5.5703,-5.5703,-5.5703,-5.5703,-5.4241,-5.3203,-5.3203,-5.1702,-5.0712,-5.0712,-5.0712,-5.0712,-5.0712,-5.0712,-5.0712,-5.0712,-5.0712,-5.0712,-5.0712,-5.0712,-5.0712,-5.0712,-5.0712,-5.0712,-5.0712,-5.0712,-5.0712,-6.1719,-6.1719,-6.1679,-6.1632,-6.1507,-6.1364,-6.1214,-6.1044,-6.0902,-6.0816,-6.0781,-6.0781,-6.0781,-6.0781,-6.0781,-6.0781,-6.0781,-6.0781,-6.0781,-6.0781,-6.0781,0.0,0.0,-6.0622,-6.0146,0.0,0.0,0.0,0.0,0.0,-5.7997,-5.7997,-5.7997,-5.7997,-5.7997,-5.7997,-5.7997,-5.7997,-5.7997,-5.7997,-5.7997,-5.7997,-5.802,-5.8216,-5.8194,-5.7983,0.0,-5.7595,-5.7377,-5.6585,-5.6264,-5.6252,-5.5857,-5.5703,-5.5703,-5.5703,-5.5703,-5.5703,-5.5703,-5.5703,-5.5703,-5.5703,-5.5703,-5.5703,-5.5703,-5.5703,-5.5703,-5.5703,-5.5703,-5.5703,-5.5703,-5.5703,-5.5703,-5.5703,-5.5703,-5.5703,-5.5703,-5.5703,-5.5703,-5.5703,-5.5703,-5.5703,-5.5703,-5.5703,-5.5703,-5.5703,-5.5703,-5.5549,-5.5126,-5.3972,-5.301,-5.2538,-5.1433,-5.0712,-5.0712,-5.0712,-5.0712,-5.0712,-5.0712,-5.0712,-5.0712,-5.0712,-5.0712,-5.0712,-5.0712,-5.0712,-5.0712,-5.0712,-5.0712,-5.0712,-5.0712,-5.0712,-6.1719,-6.1719,-6.1719,-6.1719,-6.1587,-6.1442,-6.1323,-6.115,-6.0973,-6.085,-6.0781,-6.0781,-6.0781,-6.0781,-6.0781,-6.0781,-6.0781,-6.0781,-6.0781,-6.0781,-6.0781,-6.0781,-6.0781,-6.0647,0.0,0.0,0.0,0.0,0.0,0.0,-5.7997,-5.7997,-5.7997,-5.7997,-5.7997,-5.7997,-5.7997,-5.7997,-5.7997,-5.7997,-5.7997,-5.7997,-5.7997,-5.7997,-5.7997,-5.796,-5.7152,-5.6772,-5.6694,-5.6003,-5.5651,-5.5566,-5.5566,-5.5566,-5.5577,-5.5682,-5.5703,-5.5703,-5.5703,-5.5703,-5.5703,-5.5703,-5.5703,-5.5703,-5.5703,-5.5703,-5.5703,-5.5703,-5.5703,-5.5703,-5.5703,-5.5703,-5.5703,-5.5703,-5.5703,-5.5703,-5.5703,-5.5703,-5.5703,-5.5703,-5.5703,-5.5703,-5.5703,-5.5703,-5.5703,-5.5703,-5.5703,-5.5395,-5.4587,-5.3741,-5.2856,-5.2,-5.1164,-5.0712,-5.0712,-5.0712,-5.0712,-5.0712,-5.0712,-5.0712,-5.0712,-5.0712,-5.0712,-5.0712,-5.0712,-5.0712,-5.0712,-5.0712,-5.0712,-5.0712,-5.0712,-5.0712,-6.1719,-6.1719,-6.1719,-6.1719,-6.1587,-6.1442,-6.1323,-6.115,-6.0973,-6.085,-6.0781,-6.0781,-6.0781,-6.0781,-6.0781,-6.0781,-6.0781,-6.0781,-6.0781,0.0,-6.0781,-6.0781,-6.0781,0.0,0.0,0.0,0.0,0.0,0.0,0.0,-5.7997,-5.7997,-5.7997,-5.7997,-5.7997,-5.7997,-5.7997,-5.7997,-5.7997,-5.7997,-5.7997,-5.7997,-5.7997,-5.7997,-5.7997,-5.796,-5.7152,-5.6599,-5.6218,-5.5867,-5.5489,-5.5147,-5.5147,-5.5147,-5.5186,-5.5566,-5.5703,-5.5703,-5.5703,-5.5703,-5.5703,-5.5703,-5.5703,-5.5703,-5.5703,-5.5703,-5.5703,-5.5703,-5.5703,-5.5703,-5.5703,-5.5703,-5.5703,-5.5703,-5.5703,-5.5703,-5.5703,-5.5703,-5.5703,-5.5703,-5.5703,-5.5703,-5.5703,-5.5703,-5.5703,-5.5703,-5.5703,-5.5395,-5.4587,-5.3741,-5.2856,-5.2,-5.1164,-5.0712,-5.0712,-5.0712,-5.0712,-5.0712,-5.0712,-5.0712,-5.0712,-5.0712,-5.0712,-5.0712,-5.0712,-5.0712,-5.0712,-5.0712,-5.0712,-5.0712,-5.0712,-5.0712,-6.1719,-6.1719,-6.1719,-6.1719,-6.1677,-6.1575,-6.1339,-6.124,-6.1135,-6.0954,-6.0877,-6.0781,-6.0781,-6.0781,-6.0781,-6.0781,-6.0781,-6.0781,-6.0781,-6.0781,-6.0781,-6.0781,-6.0781,0.0,0.0,0.0,0.0,0.0,0.0,0.0,-5.7997,-5.7997,-5.7997,-5.7997,-5.7997,-5.7997,-5.7997,-5.7997,-5.7997,-5.7997,-5.7997,-5.7997,-5.7997,-5.7997,-5.774,-5.7226,-5.6381,-5.5824,-5.5454,-5.5078,-5.4881,-5.4745,-5.4988,-5.5107,-5.5147,-5.5554,-5.5703,-5.5703,-5.5703,-5.5703,-5.5703,-5.5703,-5.5703,-5.5703,-5.5703,-5.5703,-5.5703,-5.5703,-5.5703,-5.5703,-5.5703,-5.5703,-5.5703,-5.5703,-5.5703,-5.5703,-5.5703,-5.5703,-5.5703,-5.5703,-5.5703,-5.5703,-5.5703,-5.5703,-5.5703,-5.5703,-5.5703,-5.5203,-5.3857,-5.3395,-5.2664,-5.1318,-5.0894,-5.0712,-5.0712,-5.0712,-5.0712,-5.0712,-5.0712,-5.0712,-5.0712,-5.0712,-5.0712,-5.0712,-5.0712,-5.0712,-5.0712,-5.0712,-5.0712,-5.0712,-5.0712,-5.0712,-6.1719,-6.1719,-6.1719,-6.1719,-6.1719,-6.1633,-6.1354,-6.1283,-6.124,-6.1048,-6.0874,-6.0781,-6.0781,-6.0781,-6.0781,-6.0781,-6.0781,-6.0781,-6.0781,-6.0781,-6.0781,-6.0781,0.0,0.0,0.0,0.0,0.0,0.0,0.0,0.0,0.0,-5.7997,-5.7997,-5.7997,-5.7997,-5.7997,-5.7997,-5.7997,-5.7997,-5.7997,-5.7997,-5.7997,-5.7997,-5.774,-5.7336,-5.6748,-5.5684,-5.5054,-5.4776,-5.442,-5.4272,-5.4338,-5.4876,-5.5002,-5.496,-5.5481,-5.5703,-5.5703,-5.5703,-5.5703,-5.5703,-5.5703,-5.5703,-5.5703,-5.5703,-5.5703,-5.5703,-5.5703,-5.5703,-5.5703,-5.5703,-5.5703,-5.5703,-5.5703,-5.5703,-5.5703,-5.5703,-5.5703,-5.5703,-5.5703,-5.5703,-5.5703,-5.5703,-5.5703,-5.5703,-5.5703,-5.5703,-5.5088,-5.3433,-5.3203,-5.2549,-5.0866,-5.0712,-5.0712,-5.0712,-5.0712,-5.0712,-5.0712,-5.0712,-5.0712,-5.0712,-5.0712,-5.0712,-5.0712,-5.0712,-5.0712,-5.0712,-5.0712,-5.0712,-5.0712,-5.0712,-5.0712,-6.1719,-6.1719,-6.1719,-6.1719,-6.1719,-6.1633,-6.1354,-6.1289,-6.124,-6.1048,-6.0874,-6.0793,-6.0781,-6.0781,-6.0781,-6.0781,-6.0781,-6.0781,-6.0781,-6.0781,-6.0781,0.0,0.0,0.0,0.0,0.0,0.0,0.0,0.0,0.0,0.0,-5.7997,-5.7997,0.0,-5.7997,-5.7997,-5.7997,-5.7997,-5.7997,-5.7997,-5.7997,-5.7997,-5.796,-5.7189,-5.6822,-5.6712,-5.5097,-5.4399,-5.4369,-5.3977,-5.3777,-5.3887,-5.4775,-5.4833,-5.4594,-5.5399,-5.5703,-5.5703,-5.5703,-5.5703,-5.5703,-5.5703,-5.5703,-5.5703,-5.5703,-5.5703,-5.5703,-5.5703,-5.5703,-5.5703,-5.5703,-5.5703,-5.5703,-5.5703,-5.5703,-5.5703,-5.5703,-5.5703,-5.5703,-5.5703,-5.5703,-5.5703,-5.5703,-5.5703,-5.5703,-5.5703,-5.5703,-5.5088,-5.3433,-5.3203,-5.2549,-5.0866,-5.0712,-5.0712,-5.0712,-5.0712,-5.0712,-5.0712,-5.0712,-5.0712,-5.0712,-5.0712,-5.0712,-5.0712,-5.0712,-5.0712,-5.0712,-5.0712,-5.0712,-5.0712,-5.0712,-5.0712,-6.1719,-6.1719,-6.1719,-6.1719,-6.1633,-6.1525,-6.1474,-6.1424,-6.1369,-6.1081,-6.0982,-6.0915,-6.0827,-6.0781,-6.0781,-6.0781,-6.0781,-6.0781,-6.0781,-6.0781,0.0,0.0,0.0,0.0,0.0,0.0,0.0,0.0,0.0,0.0,0.0,-5.7997,0.0,0.0,-5.7997,-5.7997,-5.7997,-5.7997,-5.7997,-5.7997,-5.7997,-5.7997,-5.796,-5.7189,-5.6492,-5.5904,-5.484,-5.4069,-5.3555,-5.3429,-5.3526,-5.3851,-5.4452,-5.4594,-5.4594,-5.5399,-5.5703,-5.5703,-5.5703,-5.5703,-5.5703,-5.5703,-5.5703,-5.5703,-5.5703,-5.5703,-5.5703,-5.5703,-5.5703,-5.5703,-5.5703,-5.5703,-5.5703,-5.5703,-5.5703,-5.5703,-5.5703,-5.5703,-5.5703,-5.5703,-5.5703,-5.5703,-5.5703,-5.5703,-5.5703,-5.5703,-5.5703,-5.5088,-5.3433,-5.2164,-5.1241,-5.075,-5.0712,-5.0712,-5.0712,-5.0712,-5.0712,-5.0712,-5.0712,-5.0712,-5.0712,-5.0712,-5.0712,-5.0712,-5.0712,-5.0712,-5.0712,-5.0712,-5.0712,-5.0712,-5.0712,-5.0712,-6.1634,-6.1631,-6.1631,-6.1631,-6.1515,-6.1409,-6.1409,-6.1373,-6.1226,-6.0973,-6.0925,-6.0923,-6.0816,-6.0781,-6.0781,-6.0781,-6.0781,-6.0781,-6.0781,-6.0781,0.0,0.0,0.0,0.0,0.0,0.0,0.0,0.0,0.0,0.0,0.0,-5.7997,0.0,0.0,-5.7997,-5.7997,-5.7997,-5.7997,-5.7997,-5.7997,-5.7666,-5.7519,-5.7483,-5.6675,-5.5868,-5.506,-5.4289,-5.3665,-5.3203,-5.3203,-5.3339,-5.3604,-5.4031,-5.4338,-5.4563,-5.5224,-5.5566,-5.5703,-5.5703,-5.5703,-5.5703,-5.5703,-5.5703,-5.5703,-5.5703,-5.5703,-5.5703,-5.5703,-5.5703,-5.5703,-5.5703,-5.5703,-5.5703,-5.5703,-5.5703,-5.5703,-5.5703,-5.5703,-5.5703,-5.5703,-5.5703,-5.5703,-5.5703,-5.5703,-5.5703,-5.5703,-5.5126,-5.4357,-5.3318,-5.1741,-5.0712,-5.0712,-5.0712,-5.0712,-5.0712,-5.0712,-5.0712,-5.0712,-5.0712,-5.0712,-5.0712,-5.0712,-5.0712,-5.0712,-5.0712,-5.0712,-5.0712,-5.0712,-5.0712,-5.0712,-5.0712,-5.0712,-6.1522,-6.1504,-6.1501,-6.1495,-6.1373,-6.1259,-6.1246,-6.1112,-6.0954,-6.0834,-6.0804,-6.0781,-6.0781,-6.0781,-6.0781,-6.0781,-6.0781,-6.0781,-6.0781,-6.0781,0.0,0.0,0.0,0.0,0.0,0.0,0.0,0.0,0.0,0.0,0.0,0.0,0.0,-5.7997,-5.7997,-5.7997,-5.7997,-5.7923,-5.7886,0.0,-5.7079,-5.6638,-5.6565,-5.5831,-5.506,-5.4252,-5.3518,-5.3203,-5.3203,-5.3203,-5.3203,-5.323,-5.3683,-5.4118,-5.4532,-5.4933,-5.535,-5.5671,-5.5671,-5.5671,-5.5632,-5.5703,-5.5703,-5.5703,-5.5703,-5.5703,-5.5703,-5.5703,-5.5703,-5.5703,-5.5703,-5.5703,-5.5703,-5.5703,-5.5703,-5.5703,-5.5703,-5.5703,-5.5703,-5.5703,-5.5703,-5.5703,-5.5703,-5.5703,-5.5703,-5.5703,-5.428,-5.3203,-5.3203,-5.1741,-5.0712,-5.0712,-5.0712,-5.0712,-5.0712,-5.0712,-5.0712,-5.0712,-5.0712,-5.0712,-5.0712,-5.0712,-5.0712,-5.0712,-5.0712,-5.0712,-5.0712,-5.0712,-5.0712,-5.0712,-5.0712,-5.0712,-6.1522,-6.1504,-6.1488,-6.1359,-6.1214,-6.1023,-6.0943,-6.0888,-6.085,-6.0935,-6.0871,-6.0781,-6.0781,-6.0781,-6.0781,-6.0781,-6.0781,-6.0781,-6.0781,-6.0781,0.0,0.0,0.0,0.0,0.0,0.0,0.0,0.0,0.0,0.0,0.0,0.0,0.0,-5.7997,-5.7997,-5.7997,-5.7997,-5.7373,-5.7079,0.0,-5.6235,-5.5537,-5.4913,-5.473,-5.4216,-5.3445,-5.3277,-5.3203,-5.3203,-5.3203,-5.3203,-5.3272,-5.405,-5.4404,-5.4532,-5.4933,-5.516,-5.5224,-5.5224,-5.5224,-5.5262,-5.5599,-5.5703,-5.5703,-5.5703,-5.5703,-5.5703,-5.5703,-5.5703,-5.5703,-5.5703,-5.5703,-5.5703,-5.5703,-5.5703,-5.5703,-5.5703,-5.5703,-5.5703,-5.5703,-5.5703,-5.5703,-5.5703,-5.5703,-5.5703,-5.5703,-5.428,-5.3203,-5.3203,-5.1741,-5.0712,-5.0712,-5.0712,-5.0712,-5.0712,-5.0712,-5.0712,-5.0712,-5.0712,-5.0712,-5.0712,-5.0712,-5.0712,-5.0712,-5.0712,-5.0712,-5.0712,-5.0712,-5.0712,-5.0712,-5.0712,-5.0712,-6.1474,-6.1392,-6.1349,-6.1128,-6.1044,-6.0973,-6.0811,-6.0781,-6.0827,-6.0902,-6.0856,-6.0781,-6.0781,-6.0781,-6.0781,-6.0781,-6.0781,-6.0781,-6.0781,0.0,0.0,0.0,0.0,0.0,0.0,0.0,0.0,0.0,0.0,-5.792,0.0,-5.6963,-5.6859,-5.6859,-5.6859,-5.6859,-5.6859,-5.6418,-5.6235,-5.6235,-5.539,-5.4583,-5.3849,-5.3849,-5.3592,-5.3203,-5.3203,-5.3203,-5.3203,-5.3203,-5.3203,-5.323,-5.3682,-5.3997,-5.4187,-5.4382,-5.464,-5.4795,-5.4545,-5.4497,-5.4549,-5.499,-5.5126,-5.5203,-5.5588,-5.5703,-5.5703,-5.5703,-5.5703,-5.5703,-5.5703,-5.5703,-5.5703,-5.5703,-5.5703,-5.5703,-5.5703,-5.5703,-5.5703,-5.5703,-5.5703,-5.5703,-5.5703,-5.5703,-5.5703,-5.5703,-5.428,-5.3203,-5.3203,-5.1741,-5.0712,-5.0712,-5.0712,-5.0712,-5.0712,-5.0712,-5.0712,-5.0712,-5.0712,-5.0712,-5.0712,-5.0712,-5.0712,-5.0712,-5.0712,-5.0712,-5.0712,-5.0712,-5.0712,-5.0712,-5.0712,-5.0712,-6.1378,-6.1289,-6.1165,-6.0877,-6.0892,-6.0925,-6.0839,-6.0781,-6.0781,-6.0781,-6.0781,-6.0781,-6.0781,-6.0781,-6.0781,-6.0781,-6.0781,-6.0781,-6.0781,0.0,0.0,0.0,0.0,0.0,0.0,0.0,0.0,0.0,0.0,0.0,-5.5754,-5.564,-5.5596,-5.5596,-5.5596,-5.5596,-5.5596,-5.5486,-5.539,-5.5354,-5.4583,-5.3849,-5.3203,-5.3203,-5.3203,-5.3203,-5.3203,-5.3203,-5.3203,-5.3203,-5.3203,-5.3225,-5.3293,-5.3524,-5.3777,-5.3777,-5.3973,-5.4134,-5.3736,-5.3536,-5.3543,-5.4039,-5.4325,-5.4626,-5.528,-5.5588,-5.5703,-5.5703,-5.5703,-5.5703,-5.5703,-5.5703,-5.5703,-5.5703,-5.5703,-5.5703,-5.5703,-5.5703,-5.5703,-5.5703,-5.5703,-5.5703,-5.5703,-5.5703,-5.5703,-5.5703,-5.428,-5.3203,-5.3203,-5.1741,-5.0712,-5.0712,-5.0712,-5.0712,-5.0712,-5.0712,-5.0712,-5.0712,-5.0712,-5.0712,-5.0712,-5.0712,-5.0712,-5.0712,-5.0712,-5.0712,-5.0712,-5.0712,-5.0712,-5.0712,-5.0712,-5.0712,-6.1432,-6.1256,-6.0979,-6.0834,-6.0816,-6.0839,-6.0793,-6.0781,-6.0781,-6.0781,-6.0781,-6.0781,-6.0781,-6.0781,-6.0781,-6.0781,-6.0781,-6.0781,0.0,0.0,0.0,0.0,0.0,0.0,0.0,0.0,0.0,0.0,-5.7147,0.0,-5.6215,-5.5839,-5.5596,-5.5596,-5.5596,-5.5596,-5.5596,-5.4913,-5.4546,-5.4546,-5.3739,-5.3298,-5.3203,-5.3203,-5.3203,-5.3203,-5.3203,-5.3203,-5.3203,-5.3203,-5.3203,-5.323,-5.3585,-5.3758,-5.3777,-5.3777,-5.3385,-5.284,-5.2781,-5.2526,-5.2294,-5.273,-5.3595,-5.4511,-5.4626,-5.5164,-5.5703,-5.5703,-5.5703,-5.5703,-5.5703,-5.5703,-5.5703,-5.5703,-5.5703,-5.5703,-5.5703,-5.5703,-5.5703,-5.5703,-5.5703,-5.5703,-5.5703,-5.5703,-5.5703,-5.5703,-5.428,-5.3203,-5.3203,-5.1741,-5.0712,-5.0712,-5.0712,-5.0712,-5.0712,-5.0712,-5.0712,-5.0712,-5.0712,-5.0712,-5.0712,-5.0712,-5.0712,-5.0712,-5.0712,-5.0712,-5.0712,-5.0712,-5.0712,-5.0712,-5.0712,-5.0712,-6.1226,-6.1056,-6.0871,-6.0816,-6.0781,-6.0781,-6.0781,-6.0781,-6.0781,-6.0781,-6.0781,-6.0781,-6.0781,-6.0781,-6.0781,-6.0781,-6.0781,-6.0627,0.0,0.0,0.0,0.0,0.0,0.0,0.0,0.0,0.0,0.0,-5.5815,-5.5341,-5.4913,-5.4494,-5.4252,-5.4252,-5.4252,-5.4252,-5.4252,-5.3922,-5.3739,-5.3739,-5.335,-5.3203,-5.3203,-5.3203,-5.3203,-5.3203,-5.3203,-5.3203,-5.3203,-5.3203,-5.3203,-5.3246,-5.34,-5.3464,-5.339,-5.2966,-5.256,-5.2194,-5.1714,-5.1409,-5.1366,-5.2014,-5.2609,-5.3241,-5.4203,-5.4741,-5.5126,-5.5549,-5.5703,-5.5703,-5.5703,-5.5703,-5.5703,-5.5703,-5.5703,-5.5703,-5.5703,-5.5703,-5.5703,-5.5703,-5.5703,-5.5703,-5.5703,-5.5703,-5.5703,-5.5703,-5.4703,-5.3741,-5.328,-5.2125,-5.1202,-5.075,-5.0712,-5.0712,-5.0712,-5.0712,-5.0712,-5.0712,-5.0712,-5.0712,-5.0712,-5.0712,-5.0712,-5.0712,-5.0712,-5.0712,-5.0712,-5.0712,-5.0712,-5.0712,-5.0712,-5.0933,-6.1027,-6.0895,-6.0845,-6.0804,-6.0781,-6.0781,-6.0781,-6.0781,-6.0781,-6.0781,-6.0781,-6.0781,-6.0781,-6.0781,-6.0781,-6.0781,-6.0589,0.0,0.0,0.0,0.0,0.0,0.0,0.0,0.0,0.0,0.0,0.0,-5.4716,-5.4288,-5.3814,-5.3404,-5.3203,-5.3203,-5.3203,-5.3203,-5.3203,-5.3203,-5.3203,-5.3203,-5.3203,-5.3203,-5.3203,-5.3203,-5.3203,-5.3203,-5.3203,-5.3203,-5.3203,-5.3203,-5.3203,-5.3203,-5.3203,-5.3078,-5.2821,-5.2197,-5.172,-5.129,-5.0641,-5.0338,-5.0365,-5.1075,-5.1497,-5.1994,-5.3413,-5.4164,-5.4626,-5.5241,-5.5549,-5.5703,-5.5703,-5.5703,-5.5703,-5.5703,-5.5703,-5.5703,-5.5703,-5.5703,-5.5703,-5.5703,-5.5703,-5.5703,-5.5703,-5.5703,-5.5703,-5.5703,-5.5011,-5.4203,-5.3318,-5.2423,-5.1587,-5.0789,-5.0712,-5.0712,-5.0712,-5.0712,-5.0712,-5.0712,-5.0712,-5.0712,-5.0712,-5.0712,-5.0712,-5.0712,-5.0712,-5.0712,-5.0712,-5.0712,-5.0712,-5.0712,-5.0894,-5.1318,-6.0882,-6.0884,-6.0963,-6.0823,-6.0781,-6.0781,-6.0781,-6.0781,-6.0781,-6.0781,-6.0781,-6.0781,-6.0781,-6.0781,-6.0781,-6.0781,-6.0127,0.0,0.0,0.0,0.0,0.0,0.0,0.0,0.0,0.0,0.0,0.0,0.0,-5.4288,-5.3814,-5.3404,-5.3203,-5.3203,-5.3203,-5.3203,-5.3203,-5.3203,-5.3203,-5.3203,-5.3203,-5.3203,-5.3203,-5.3203,-5.3203,-5.3203,-5.3203,-5.3203,-5.3203,-5.3203,-5.3203,-5.3203,-5.3203,-5.2747,-5.205,-5.2013,-5.1042,-4.9721,-4.9669,-4.9362,-4.9069,-4.9506,-5.0415,-5.1429,-5.189,-5.3203,-5.4511,-5.4549,-5.5126,-5.5703,-5.5703,-5.5703,-5.5703,-5.5703,-5.5703,-5.5703,-5.5703,-5.5703,-5.5703,-5.5703,-5.5703,-5.5703,-5.5703,-5.5703,-5.5703,-5.5703,-5.5011,-5.4203,-5.3318,-5.2423,-5.1587,-5.0789,-5.0712,-5.0712,-5.0712,-5.0712,-5.0712,-5.0712,-5.0712,-5.0712,-5.0712,-5.0712,-5.0712,-5.0712,-5.0712,-5.0712,-5.0712,-5.0712,-5.0712,-5.0712,-5.1471,-5.1846,-6.085,-6.0823,-6.0839,-6.0816,-6.0781,-6.0781,-6.0781,-6.0781,-6.0781,-6.0781,-6.0781,-6.0627,-6.0089,-5.9973,-5.9973,-5.9973,-5.9281,0.0,0.0,0.0,0.0,0.0,0.0,0.0,0.0,0.0,0.0,0.0,0.0,0.0,-5.4255,-5.3602,-5.3203,-5.3203,-5.3203,-5.3203,-5.3203,-5.3203,-5.3203,-5.3203,-5.3203,-5.3203,-5.3203,-5.3203,-5.3203,-5.3203,-5.3203,-5.3203,-5.3203,-5.3203,-5.3203,-5.313,-5.2637,-5.2234,-5.1867,-5.0859,-5.0088,-4.9539,-4.927,-4.9039,-4.8961,-4.9371,-4.9778,-5.0312,-5.1226,-5.1932,-5.2744,-5.4122,-5.4703,-5.5049,-5.5549,-5.5703,-5.5703,-5.5703,-5.5703,-5.5703,-5.5703,-5.5703,-5.5703,-5.5703,-5.5703,-5.5703,-5.5703,-5.5703,-5.5703,-5.5703,-5.5434,-5.4972,-5.4126,-5.328,-5.2433,-5.1548,-5.101,-5.0712,-5.0712,-5.0712,-5.0712,-5.0712,-5.0712,-5.0712,-5.0712,-5.0712,-5.0712,-5.0712,-5.0712,-5.0712,-5.0712,-5.0712,-5.0712,-5.0712,-5.1548,-5.2192,-6.0781,-6.0781,-6.0781,-6.0781,-6.0781,-6.0781,-6.0781,-6.055,-6.0358,-6.0358,-6.0165,-5.9781,-5.9204,-5.8858,-5.8742,-5.905,0.0,0.0,0.0,0.0,0.0,0.0,0.0,0.0,0.0,0.0,0.0,0.0,0.0,0.0,-5.4484,-5.3662,-5.3203,-5.3203,-5.3203,-5.3203,-5.3203,-5.3203,-5.3203,-5.3203,-5.3203,-5.3203,-5.3203,-5.3203,-5.3203,-5.3203,-5.3203,-5.3203,-5.3203,-5.3203,-5.3041,-5.2747,-5.2197,-5.1646,-5.1079,-4.9978,-4.9427,-4.9135,-4.8789,-4.8692,-4.8761,-4.9171,-4.9295,-4.9446,-5.0413,-5.099,-5.1584,-5.3019,-5.3947,-5.4626,-5.5164,-5.5511,-5.5703,-5.5703,-5.5703,-5.5703,-5.5703,-5.5703,-5.5703,-5.5703,-5.5703,-5.5703,-5.5703,-5.5703,-5.5703,-5.5703,-5.5703,-5.5395,-5.4587,-5.3972,-5.3318,-5.2423,-5.1587,-5.1087,-5.1087,-5.0866,-5.0712,-5.0712,-5.0712,-5.0712,-5.0712,-5.0712,-5.0712,-5.0712,-5.0712,-5.0712,-5.0712,-5.0712,-5.0827,-5.1125,-5.1972,-5.2972,0.0,0.0,0.0,-6.0781,-6.0742,-6.0742,-6.0742,-6.0089,-5.9473,-5.9473,-5.8858,-5.828,-5.828,-5.755,-5.7291,-5.8088,0.0,0.0,0.0,0.0,0.0,0.0,0.0,0.0,0.0,0.0,0.0,0.0,0.0,-5.4484,-5.4484,-5.3662,-5.3203,-5.3203,-5.3203,-5.3203,-5.3203,-5.3203,-5.3203,-5.3203,-5.3203,-5.3203,-5.3203,-5.3203,-5.3203,-5.3203,-5.3203,-5.3188,-5.3167,-5.3167,-5.2711,-5.1977,-5.194,-5.0969,-4.961,-4.9574,-4.9003,-4.8306,-4.8306,-4.8306,-4.8345,-4.8761,-4.8861,-4.8945,-4.9356,-5.0323,-5.1243,-5.1306,-5.2832,-5.4462,-5.4511,-5.5126,-5.5703,-5.5703,-5.5703,-5.5703,-5.5703,-5.5703,-5.5703,-5.5703,-5.5703,-5.5703,-5.5703,-5.5703,-5.5703,-5.5703,-5.5703,-5.5434,-5.4626,-5.4511,-5.4164,-5.3318,-5.2462,-5.1923,-5.1923,-5.1202,-5.075,-5.075,-5.0712,-5.0712,-5.0712,-5.0712,-5.0712,-5.0712,-5.0712,-5.0712,-5.075,-5.0712,-5.1125,-5.1923,-5.2818,-5.4126,-6.0781,0.0,0.0,0.0,0.0,0.0,-5.9127,-5.8819,-5.8627,-5.8627,-5.8473,-5.8127,-5.7473,-5.7176,-5.6868,-5.6472,0.0,0.0,0.0,0.0,0.0,0.0,0.0,0.0,0.0,0.0,0.0,0.0,-5.4947,-5.4484,-5.4484,-5.3662,-5.3203,-5.3203,-5.3203,-5.3203,-5.3203,-5.3203,-5.3203,-5.3203,-5.3203,-5.3203,-5.3203,-5.3203,-5.3203,-5.3203,-5.3203,-5.2858,-5.2344,-5.2344,-5.2197,-5.1867,-5.0712,-4.9978,-4.9537,-4.8893,-4.8526,-4.8306,-4.8306,-4.8306,-4.8325,-4.8439,-4.8477,-4.8532,-4.8928,-4.9305,-4.9823,-5.0976,-5.2181,-5.346,-5.4968,-5.5511,-5.5703,-5.5703,-5.5703,-5.5703,-5.5703,-5.5703,-5.5703,-5.5703,-5.5703,-5.5703,-5.5703,-5.5703,-5.5703,-5.5703,-5.5703,-5.5626,-5.5395,-5.4857,-5.4395,-5.4164,-5.3356,-5.2856,-5.2856,-5.2049,-5.1587,-5.1587,-5.101,-5.0712,-5.0712,-5.0712,-5.0712,-5.0712,-5.0712,-5.0971,-5.1587,-5.0971,-5.1125,-5.1923,-5.3433,-5.4703,-5.9858,-5.9742,-5.9627,-5.9127,0.0,0.0,-5.8396,-5.8011,-5.7742,-5.7742,-5.7473,-5.7049,-5.656,-5.6483,-5.6291,0.0,0.0,0.0,0.0,0.0,0.0,0.0,0.0,0.0,0.0,-5.5703,0.0,-5.5703,-5.4947,-5.4322,-5.3979,-5.3501,-5.3203,-5.3203,-5.3203,-5.3203,-5.3203,-5.3203,-5.3203,-5.3203,-5.3203,-5.3203,-5.3203,-5.3203,-5.3203,-5.3167,-5.2858,-5.2417,-5.194,-5.13,-5.1006,-5.0932,-4.9978,-4.939,-4.9003,-4.8489,-4.8306,-4.8306,-4.8306,-4.8306,-4.8306,-4.8306,-4.8306,-4.8363,-4.8568,-4.8761,-4.9106,-5.0017,-5.1282,-5.274,-5.4494,-5.5216,-5.547,-5.5682,-5.5703,-5.5703,-5.5703,-5.5703,-5.5703,-5.5703,-5.5703,-5.5703,-5.5703,-5.5703,-5.5703,-5.5703,-5.5703,-5.5703,-5.5703,-5.528,-5.5011,-5.5011,-5.4241,-5.3741,-5.3741,-5.2933,-5.2423,-5.2423,-5.1664,-5.1202,-5.1202,-5.0894,-5.0866,-5.1202,-5.1202,-5.1625,-5.2423,-5.1625,-5.1818,-5.301,-5.4357,-5.5241,-5.8511,-5.8319,-5.828,-5.8165,-5.8165,0.0,-5.805,-5.7396,-5.6868,-5.6868,-5.6252,-5.5703,-5.5703,-5.5703,-5.5703,0.0,0.0,0.0,0.0,0.0,0.0,0.0,0.0,0.0,-5.5703,-5.5703,-5.5703,-5.5703,-5.4947,-5.4156,-5.3334,-5.3209,-5.3203,-5.3203,-5.3203,-5.3203,-5.3203,-5.3203,-5.3203,-5.3203,-5.3203,-5.3203,-5.3203,-5.3203,-5.313,-5.3041,-5.2307,-5.1903,-5.161,-5.0198,-4.961,-4.961,-4.95,-4.8967,-4.8306,-4.8306,-4.8306,-4.8306,-4.8306,-4.8306,-4.8306,-4.8306,-4.8306,-4.8306,-4.8306,-4.855,-4.8864,-4.899,-5.0403,-5.2174,-5.3554,-5.4434,-5.5084,-5.5599,-5.5703,-5.5703,-5.5703,-5.5703,-5.5703,-5.5703,-5.5703,-5.5703,-5.5703,-5.5703,-5.5703,-5.5703,-5.5703,-5.5703,-5.5703,-5.5703,-5.5703,-5.5703,-5.5049,-5.4626,-5.4626,-5.3857,-5.3356,-5.3356,-5.2538,-5.2038,-5.2038,-5.1356,-5.1318,-5.2038,-5.2154,-5.2577,-5.3356,-5.2577,-5.301,-5.4511,-5.5318,-5.5703,-5.8357,-5.8319,-5.8127,-5.7434,-5.7253,0.0,-5.6357,-5.6088,-5.5934,-5.5934,-5.5818,-5.5703,-5.5703,-5.5703,0.0,0.0,0.0,0.0,0.0,0.0,0.0,0.0,0.0,0.0,-5.5703,-5.5703,-5.5703,-5.5703,-5.4947,-5.4255,-5.3702,-5.338,-5.3203,-5.3203,-5.3203,-5.3203,-5.3203,-5.3203,-5.3203,-5.3203,-5.3203,-5.3203,-5.3203,-5.3203,-5.2858,-5.2234,-5.205,-5.1263,-5.0051,-4.9721,-4.961,-4.9537,-4.882,-4.8453,-4.8306,-4.8306,-4.8306,-4.8306,-4.8306,-4.8306,-4.8306,-4.8306,-4.8306,-4.8306,-4.8306,-4.8326,-4.8606,-4.9648,-5.0456,-5.1471,-5.3415,-5.4027,-5.4422,-5.5445,-5.5703,-5.5703,-5.5703,-5.5703,-5.5703,-5.5703,-5.5703,-5.5703,-5.5703,-5.5703,-5.5703,-5.5703,-5.5703,-5.5703,-5.5703,-5.5703,-5.5703,-5.5703,-5.5549,-5.5472,-5.5472,-5.4703,-5.4241,-5.4241,-5.3433,-5.2972,-5.2972,-5.2818,-5.2779,-5.2933,-5.3626,-5.4087,-5.4241,-5.4087,-5.4164,-5.4511,-5.5318,-5.5703,-5.7126,-5.7011,-5.6896,-5.6472,-5.6368,0.0,0.0,-5.5703,-5.5703,-5.5703,-5.5703,-5.5703,-5.5703,0.0,-5.5703,0.0,0.0,0.0,0.0,0.0,0.0,0.0,0.0,0.0,0.0,-5.5703,-5.561,-5.5411,-5.4833,-5.4288,-5.3814,-5.3404,-5.3203,-5.3203,-5.3203,-5.3203,-5.3203,-5.3203,-5.3203,-5.3203,-5.3203,-5.3203,-5.3188,-5.2784,-5.238,-5.194,-5.1153,-5.0345,-4.9574,-4.9114,-4.893,-4.8893,-4.8489,-4.8306,-4.8306,-4.8306,-4.8306,-4.8306,-4.8306,-4.8306,-4.8306,-4.8306,-4.8306,-4.8306,-4.8306,-4.8306,-4.8437,-4.9067,-4.969,-5.0467,-5.1706,-5.2643,-5.3452,-5.4278,-5.4777,-5.516,-5.5363,-5.5399,-5.5446,-5.5682,-5.5703,-5.5703,-5.5703,-5.5703,-5.5703,-5.5703,-5.5703,-5.5703,-5.5703,-5.5703,-5.5703,-5.5703,-5.5703,-5.5703,-5.5703,-5.5318,-5.5088,-5.5088,-5.4318,-5.3857,-5.3857,-5.3433,-5.3395,-5.3857,-5.4664,-5.5088,-5.5088,-5.5088,-5.5088,-5.5126,-5.5511,-5.5703,-5.5895,-5.5703,-5.5703,-5.5703,-5.5703,-5.5703,0.0,0.0,0.0,-5.5703,0.0,0.0,0.0,0.0,0.0,0.0,0.0,0.0,0.0,0.0,0.0,0.0,0.0,0.0,0.0,-5.5703,-5.5566,-5.5237,-5.476,-5.4322,-5.3941,-5.3464,-5.3203,-5.3203,-5.3203,-5.3203,-5.3203,-5.3203,-5.3203,-5.3203,-5.3203,-5.3093,-5.2968,-5.2307,-5.183,-5.1483,-5.0161,-4.95,-4.9317,-4.86,-4.8306,-4.8306,-4.8306,-4.8306,-4.8306,-4.8306,-4.8306,-4.8306,-4.8306,-4.8306,-4.8306,-4.8306,-4.8306,-4.8306,-4.8306,-4.8306,-4.8306,-4.8306,-4.8783,-4.9433,-5.0058,-5.1297,-5.2522,-5.3085,-5.3858,-5.4579,-5.4905,-5.5067,-5.5199,-5.5531,-5.5671,-5.5703,-5.5703,-5.5703,-5.5703,-5.5703,-5.5703,-5.5703,-5.5703,-5.5703,-5.5703,-5.5703,-5.5703,-5.5703,-5.5703,-5.5703,-5.5703,-5.5703,-5.5088,-5.4741,-5.4741,-5.4049,-5.401,-5.4703,-5.5357,-5.5703,-5.5703,-5.5703,-5.5703,-5.5703,-5.5703,-5.5703,-5.5742,-5.5703,-5.5703,-5.5703,-5.5703,-5.5703,-5.5703,0.0,-5.5703,-5.5703,0.0,0.0,0.0,0.0,0.0,0.0,0.0,0.0,0.0,0.0,0.0,0.0,0.0,0.0,0.0,0.0,-5.5692,-5.5621,-5.4919,-5.4468,-5.442,-5.3624,-5.3203,-5.3203,-5.3203,-5.3203,-5.3203,-5.3203,-5.3203,-5.3203,-5.3203,-5.2821,-5.2123,-5.205,-5.1226,-4.9867,-4.9684,-4.915,-4.8453,-4.8343,-4.8306,-4.8306,-4.8306,-4.8306,-4.8306,-4.8306,-4.8306,-4.8306,-4.8306,-4.8306,-4.8306,-4.8306,-4.8306,-4.8306,-4.8306,-4.8306,-4.8306,-4.8306,-4.8379,-4.8714,-4.9909,-5.085,-5.1812,-5.2934,-5.3858,-5.45,-5.4547,-5.4833,-5.5121,-5.516,-5.5446,-5.5703,-5.5703,-5.5703,-5.5703,-5.5703,-5.5703,-5.5703,-5.5703,-5.5703,-5.5703,-5.5703,-5.5703,-5.5703,-5.5703,-5.5703,-5.5703,-5.5703,-5.5588,-5.5549,-5.5549,-5.5472,-5.5472,-5.5549,-5.5665,-5.5703,-5.5703,-5.5703,-5.5703,-5.5703,-5.5703,-5.5703,-5.5703,-5.5703,-5.5703,-5.5703,-5.5703,0.0,-5.5703,0.0,-5.5703,0.0,0.0,0.0,0.0,0.0,0.0,0.0,-5.5703,0.0,0.0,0.0,0.0,0.0,0.0,0.0,0.0,0.0,0.0,0.0,0.0,-5.4484,-5.4484,-5.3662,-5.3203,-5.3203,-5.3203,-5.3203,-5.3203,-5.3203,-5.2968,-5.2491,-5.2491,-5.2087,-5.1279,-5.0802,-5.0235,-4.9574,-4.9077,-4.8636,-4.8306,-4.8306,-4.8306,-4.8306,-4.8306,-4.8306,-4.8306,-4.8306,-4.8306,-4.8306,-4.8306,-4.8306,-4.8306,-4.8306,-4.8306,-4.8306,-4.8306,-4.8306,-4.8306,-4.8306,-4.8306,-4.8418,-4.8956,-5.0065,-5.1193,-5.1714,-5.2791,-5.3814,-5.4031,-5.4238,-5.4494,-5.4988,-5.5224,-5.5423,-5.5682,-5.5703,-5.5703,-5.5703,-5.5703,-5.5703,-5.5703,-5.5703,-5.5703,-5.5703,-5.5703,-5.5703,-5.5703,-5.5703,-5.5703,-5.5703,-5.5703,-5.5703,-5.5703,-5.5703,-5.5703,-5.5703,-5.5703,-5.5703,-5.5703,-5.5703,-5.5703,-5.5703,-5.5703,-5.5703,-5.5703,0.0,0.0,0.0,0.0,0.0,0.0,0.0,0.0,0.0,0.0,0.0,0.0,0.0,-5.5703,-5.5703,0.0,-5.5703,0.0,0.0,0.0,0.0,0.0,0.0,0.0,0.0,0.0,0.0,0.0,0.0,-5.4484,-5.3662,-5.3203,-5.3203,-5.3203,-5.3203,-5.3203,-5.3004,-5.2564,-5.1977,-5.1756,-5.1242,-5.0435,-4.9867,-4.9463,-4.9206,-4.8563,-4.8306,-4.8306,-4.8306,-4.8306,-4.8306,-4.8306,-4.8306,-4.8306,-4.8306,-4.8306,-4.8306,-4.8306,-4.8306,-4.8306,-4.8306,-4.8306,-4.8306,-4.8306,-4.8306,-4.8306,-4.8306,-4.8306,-4.8306,-4.8306,-4.9554,-5.0802,-5.0802,-5.205,-5.3293,-5.3565,-5.372,-5.3995,-5.4602,-5.4933,-5.5186,-5.5508,-5.5621,-5.5703,-5.5703,-5.5703,-5.5703,-5.5703,-5.5703,-5.5703,-5.5703,-5.5703,-5.5703,-5.5703,-5.5703,-5.5703,-5.5703,-5.5703,-5.5703,-5.5703,-5.5703,-5.5703,-5.5703,-5.5703,-5.5703,-5.5703,-5.5703,-5.5703,-5.5703,-5.5703,-5.5703,0.0,0.0,0.0,-5.5703,0.0,0.0,0.0,0.0,-5.5703,0.0,0.0,0.0,0.0,-5.5703,-5.5703,-5.5703,-5.5703,0.0,0.0,0.0,0.0,0.0,0.0,0.0,0.0,0.0,0.0,0.0,0.0,0.0,-5.4484,-5.3662,-5.3203,-5.3203,-5.3203,-5.3203,-5.3203,-5.2417,-5.2013,-5.1977,-5.1206,-5.0398,-4.9647,-4.961,-4.9114,-4.8343,-4.8306,-4.8306,-4.8306,-4.8306,-4.8306,-4.8306,-4.8306,-4.8306,-4.8306,-4.8306,-4.8306,-4.8306,-4.8306,-4.8306,-4.8306,-4.8306,-4.8306,-4.8306,-4.8306,-4.8306,-4.8306,-4.8306,-4.8306,-4.8306,-4.8306,-4.9554,-5.0802,-5.0802,-5.205,-5.3225,-5.3246,-5.3543,-5.3795,-5.3832,-5.451,-5.5121,-5.5121,-5.5435,-5.5703,-5.5703,-5.5703,-5.5703,-5.5703,-5.5703,-5.5703,-5.5703,-5.5703,-5.5703,-5.5703,-5.5703,-5.5703,-5.5703,-5.5703,-5.5703,-5.5703,-5.5703,-5.5703,-5.5703,-5.5703,-5.5703,-5.5703,-5.5703,-5.5703,-5.5703,-5.5703,-5.5703,0.0,0.0,-5.5703,-5.5703,0.0,0.0,0.0,0.0,0.0,0.0,0.0,0.0,0.0,-5.5703,-5.5703,-5.5703,-5.5703,-5.5703,0.0,0.0,0.0,0.0,0.0,0.0,0.0,0.0,0.0,0.0,0.0,0.0,0.0,-5.3662,-5.3203,-5.3203,-5.3203,-5.2931,-5.2417,-5.2123,-5.1483,-5.0418,-5.0068,-4.9517,-4.8746,-4.8746,-4.86,-4.8306,-4.8306,-4.8306,-4.8306,-4.8306,-4.8306,-4.8306,-4.8306,-4.8306,-4.8306,-4.8306,-4.8306,-4.8306,-4.8306,-4.8306,-4.8306,-4.8306,-4.8306,-4.8306,-4.8306,-4.8306,-4.8306,-4.8306,-4.8306,-4.8306,-4.8306,-4.915,-5.0141,-5.0655,-5.161,-5.2564,-5.3115,-5.3334,-5.3484,-5.3758,-5.4048,-5.4414,-5.4988,-5.5212,-5.5399,-5.5682,-5.5703,-5.5703,-5.5703,-5.5703,-5.5703,-5.5703,-5.5703,-5.5703,-5.5703,-5.5703,-5.5703,-5.5703,-5.5703,-5.5703,-5.5703,-5.5703,-5.5703,-5.5703,-5.5703,-5.5703,-5.5703,-5.5703,-5.5703,-5.5703,-5.5703,-5.5703,-5.5262,-5.5262,0.0,-5.5446,-5.547,0.0,-5.5682,0.0,0.0,0.0,0.0,0.0,0.0,0.0,-5.5703,-5.5703,-5.5703,-5.5703,0.0,-5.5703,0.0,0.0,0.0,-5.5703,0.0,0.0,0.0,-5.5703,-5.4947,0.0,0.0,0.0,-5.3203,-5.3203,-5.2931,-5.2527,-5.2013,-5.1426,-5.0639,-4.961,-4.9224,-4.882,-4.8306,-4.8306,-4.8306,-4.8306,-4.8306,-4.8306,-4.8306,-4.8306,-4.8306,-4.8306,-4.8306,-4.8306,-4.8306,-4.8306,-4.8306,-4.8306,-4.8306,-4.8306,-4.8306,-4.8306,-4.8306,-4.8306,-4.8306,-4.8306,-4.8306,-4.8306,-4.8306,-4.8306,-4.8306,-4.893,-4.9794,-5.0618,-5.1389,-5.2197,-5.3041,-5.3203,-5.3293,-5.3526,-5.3702,-5.3995,-5.4541,-5.479,-5.508,-5.561,-5.5703,-5.5703,-5.5703,-5.5703,-5.5703,-5.5703,-5.5703,-5.5703,-5.5703,-5.5703,-5.5703,-5.5703,-5.5703,-5.5703,-5.5703,-5.5703,-5.5857,-5.6175,-5.5857,-5.5857,-5.6165,-5.5857,-5.5703,-5.5703,-5.5703,-5.5703]},{"header":{"parameterUnit":"m.s-1","parameterCategory":1,"la1":30.6,"la2":29.2853,"lo1":-89.7004,"lo2":-87.6739,"dy":0.0162,"dx":0.0183,"nx":112,"ny":82,"refTime":"2024-05-02T00:00:00:Z","depth":0,"parameterNumber":3,"parameterNumberName":"V-component_of_WINDS"},"data":[0.0,0.0,0.0,0.0,0.0,0.0,0.0,0.0,0.0,0.0,0.0,0.0,0.0,0.0,0.0,0.0,0.0,0.0,0.0,0.0,0.0,0.0,0.0,0.0,0.0,0.0,0.0,0.0,0.0,0.0,0.0,0.0,0.0,0.0,0.0,0.0,0.0,0.0,0.0,0.0,0.0,0.0,0.0,0.0,0.0,0.0,0.0,0.0,0.0,0.0,0.0,0.0,0.0,0.0,0.0,0.0,0.0,0.0,0.0,0.0,0.0,0.0,0.0,0.0,0.0,0.0,0.0,0.0,0.0,0.0,0.0,0.0,0.0,0.0,0.0,0.0,0.0,0.0,0.0,0.0,0.0,0.0,0.0,0.0,0.0,0.0,0.0,0.0,0.0,0.0,-0.2341,-0.0234,-0.3317,-0.5641,-0.5958,-0.9489,-1.1755,-1.206,0.0,0.0,0.0,0.0,0.0,0.0,0.0,0.0,0.0,0.0,0.0,0.0,0.0,0.0,0.0,0.0,0.0,0.0,0.0,0.0,0.0,0.0,0.0,0.0,0.0,0.0,0.0,0.0,0.0,0.0,0.0,0.0,0.0,0.0,0.0,0.0,0.0,0.0,0.0,0.0,0.0,0.0,0.0,0.0,0.0,0.0,0.0,0.0,0.0,0.0,0.0,0.0,0.0,0.0,0.0,0.0,0.0,0.0,0.0,0.0,0.0,0.0,0.0,0.0,0.0,0.0,0.0,0.0,0.0,0.0,0.0,0.0,0.0,0.0,0.0,0.0,0.0,0.0,0.0,0.0,0.0,0.0,0.0,0.0,0.0,0.0,0.0,0.0,0.0,0.0,0.0,0.0,0.0,0.0,0.0,0.0,0.0,0.0,0.0,0.0,0.0,0.0,0.0,0.0,-0.2307,-0.0229,-0.2126,-0.4235,-0.5879,-0.8206,-1.0317,-1.1986,0.0,0.0,0.0,0.0,0.0,0.0,0.0,0.0,0.0,0.0,0.0,0.0,0.0,0.0,0.0,0.0,0.0,0.0,0.0,0.0,0.0,0.0,0.0,0.0,0.0,0.0,0.0,0.0,0.0,0.0,0.0,0.0,0.0,0.0,0.0,0.0,0.0,0.0,0.0,0.0,0.0,0.0,0.0,0.0,0.0,0.0,0.0,0.0,0.0,0.0,0.0,0.0,0.0,0.0,0.0,0.0,0.0,0.0,0.0,0.0,0.0,0.0,0.0,0.0,0.0,0.0,0.0,0.0,0.0,0.0,0.0,0.0,0.0,0.0,0.0,0.0,0.0,0.0,0.0,0.0,0.0,0.0,0.0,0.0,0.0,0.0,0.0,0.0,0.0,0.0,0.0,0.0,0.0,0.0,0.0,0.0,0.0,0.0,0.0,0.0,0.0,0.0,0.0,-0.1455,-0.1064,-0.0075,-0.1797,-0.3801,-0.5692,-0.775,-0.9742,-1.1743,-1.1823,0.0,0.0,0.0,0.0,0.0,0.0,0.0,0.0,0.0,0.0,0.0,0.0,0.0,0.0,0.0,0.0,0.0,0.0,0.0,0.0,0.0,0.0,0.0,0.0,0.0,0.0,0.0,0.0,0.0,0.0,0.0,0.0,0.0,0.0,0.0,0.0,0.0,0.0,0.0,0.0,0.0,0.0,0.0,0.0,0.0,0.0,0.0,0.0,0.0,0.0,0.0,0.0,0.0,0.0,0.0,0.0,0.0,0.0,0.0,0.0,0.0,0.0,0.0,0.0,0.0,0.0,0.0,0.0,0.0,0.0,0.0,0.0,0.0,0.0,0.0,0.0,0.0,0.0,0.0,0.0,0.0,0.0,0.0,0.0,0.0,0.0,0.0,0.0,0.0,0.0,0.0,0.0,0.0,0.0,0.0,0.0,0.0,0.0,0.0,0.0,0.0,0.0,0.0,0.0,0.0,-0.1331,-0.3013,-0.4944,-0.6894,-0.8848,-1.0815,-1.1325,0.0,0.0,0.0,0.0,0.0,0.0,0.0,0.0,0.0,0.0,0.0,0.0,0.0,0.0,0.0,0.0,0.0,0.0,0.0,0.0,0.0,0.0,0.0,0.0,0.0,0.0,0.0,0.0,0.0,0.0,0.0,0.0,0.0,0.0,0.0,0.0,0.0,0.0,0.0,0.0,0.0,0.0,0.0,0.0,0.0,0.0,0.0,0.0,0.0,0.0,0.0,0.0,0.0,0.0,0.0,0.0,0.0,0.0,0.0,0.0,0.0,0.0,0.0,0.0,0.0,0.0,0.0,0.0,0.0,0.0,0.0,0.0,0.0,0.0,0.0,0.0,0.0,0.0,0.0,0.0,0.0,0.0,0.0,0.0,0.0,0.0,0.0,0.0,0.0,0.0,0.0,0.0,0.0,0.0,0.0,0.0,0.0,0.0,0.0,0.0,0.0,0.0,0.0,0.0,0.0,-0.0146,-0.1021,-0.2909,-0.4866,-0.6821,-0.8776,-1.0593,0.0,0.0,0.0,0.0,0.0,0.0,0.0,0.0,0.0,0.0,0.0,0.0,0.0,0.0,0.0,0.0,0.0,0.0,0.0,0.0,0.0,0.0,0.0,0.0,0.0,0.0,0.0,0.0,0.0,0.0,0.0,0.0,0.0,0.0,0.0,0.0,0.0,0.0,0.0,0.0,0.0,0.0,0.0,0.0,0.0,0.0,0.0,0.0,0.0,0.0,0.0,0.0,0.0,0.0,0.0,0.0,0.0,0.0,0.0,0.0,0.0,0.0,0.0,0.0,0.0,0.0,0.0,0.0,0.0,0.0,0.0,0.0,0.0,0.0,0.0,0.0,0.0,0.0,0.0,0.0,0.0,0.0,0.0,0.0,0.0,0.0,0.0,0.0,0.0,0.0,0.0,0.0,0.0,0.0,0.0,0.0,0.0,0.0,0.0,0.0,0.0,0.0,0.0,0.0,0.0,0.0,-0.0802,-0.2763,-0.3607,-0.5326,-0.8482,0.0,0.0,0.0,0.0,0.0,0.0,0.0,0.0,0.0,0.0,0.0,0.0,0.0,0.0,0.0,0.0,0.0,0.0,0.0,0.0,0.0,0.0,0.0,0.0,0.0,0.0,0.0,0.0,0.0,0.0,0.0,0.0,0.0,0.0,0.0,0.0,0.0,0.0,0.0,0.0,0.0,0.0,0.0,0.0,0.0,0.0,0.0,0.0,0.0,0.0,0.0,0.0,0.0,0.0,0.0,0.0,0.0,0.0,0.0,0.0,0.0,0.0,0.0,0.0,0.0,0.0,0.0,0.0,0.0,0.0,0.0,0.0,0.0,0.0,0.0,0.0,0.0,0.0,0.0,0.0,0.0,0.0,0.0,0.0,0.0,0.0,0.0,0.0,0.0,0.0,0.0,0.0,0.0,0.0,0.0,0.0,0.0,0.0,0.0,0.0,0.0,0.0,0.0,0.0,0.0,0.0,0.0,-0.0504,-0.1869,-0.2566,-0.4051,-0.6662,0.0,0.0,0.0,0.0,0.0,0.0,0.0,0.0,0.0,0.0,0.0,0.0,0.0,0.0,0.0,0.0,0.0,0.0,0.0,0.0,0.0,0.0,0.0,0.0,0.0,0.0,0.0,0.0,0.0,0.0,0.0,0.0,0.0,0.0,0.0,0.0,0.0,0.0,0.0,0.0,0.0,0.0,0.0,0.0,0.0,0.0,0.0,0.0,0.0,0.0,0.0,0.0,0.0,0.0,0.0,0.0,0.0,0.0,0.0,0.0,0.0,0.0,0.0,0.0,0.0,0.0,0.0,0.0,0.0,0.0,0.0,0.0,0.0,0.0,0.0,0.0,0.0,0.0,0.0,0.0,0.0,0.0,0.0,0.0,0.0,0.0,0.0,0.0,0.0,0.0,0.0,0.0,0.0,0.0,0.0,0.0,0.0,0.0,0.0,0.0,0.0,0.0,0.0,0.0,0.0,0.0,0.0,0.0,0.0,-0.175,-0.2868,0.0,0.0,0.0,0.0,0.0,0.0,0.0,0.0,0.0,0.0,0.0,0.0,0.0,0.0,0.0,0.0,0.0,0.0,0.0,0.0,0.0,0.0,0.0,0.0,0.0,0.0,0.0,0.0,0.0,0.0,0.0,0.0,0.0,0.0,0.0,0.0,0.0,0.0,0.0,0.0,0.0,0.0,0.0,0.0,0.0,0.0,0.0,0.0,0.0,0.0,0.0,0.0,0.0,0.0,0.0,0.0,0.0,0.0,0.0,0.0,0.0,0.0,0.0,0.0,0.0,0.0,0.0,0.0,0.0,0.0,0.0,0.0,0.0,0.0,0.0,0.0,0.0,0.0,0.0,0.0,0.0,0.0,0.0,0.0,0.0,0.0,0.0,0.0,0.0,0.0,0.0,0.0,0.0,0.0,0.0,0.0,0.0,0.0,0.0,0.0,0.0,0.0,0.0,0.0,0.0,0.0,0.0,0.0,0.0,0.0,-0.0556,-0.1456,-0.2798,0.0,0.0,0.0,0.0,0.0,0.0,0.0,0.0,0.0,0.0,0.0,0.0,0.0,0.0,0.0,0.0,0.0,0.0,0.0,0.0,0.0,0.0,0.0,0.0,0.0,0.0,0.0,0.0,0.0,0.0,0.0,0.0,0.0,0.0,0.0,0.0,0.0,0.0,0.0,0.0,0.0,0.0,0.0,0.0,0.0,0.0,0.0,0.0,0.0,0.0,0.0,0.0,0.0,0.0,0.0,0.0,0.0,0.0,0.0,0.0,0.0,0.0,0.0,0.0,0.0,0.0,0.0,0.0,0.0,0.0,0.0,0.0,0.0,0.0,0.0,0.0,0.0,0.0,0.0,0.0,0.0,0.0,0.0,0.0,0.0,0.0,0.0,0.0,0.0,0.0,0.0,0.0,0.0,0.0,0.0,0.0,0.0,0.0,0.0,0.0,0.0,0.0,0.0,0.0,0.0,0.0,0.0,0.0,0.0,0.0,-0.0478,-0.1652,0.0,0.0,0.0,0.0,0.0,0.0,0.0,0.0,0.0,0.0,0.0,0.0,0.0,0.0,0.0,0.0,0.0,0.0,0.0,0.0,0.0,0.0,0.0,0.0,0.0,0.0,0.0,0.0,0.0,0.0,0.0,0.0,0.0,0.0,0.0,0.0,0.0,0.0,0.0,0.0,0.0,0.0,0.0,0.0,0.0,0.0,0.0,0.0,0.0,0.0,0.0,0.0,0.0,0.0,0.0,0.0,0.0,0.0,0.0,0.0,0.0,0.0,0.0,0.0,0.0,0.0,0.0,0.0,0.0,0.0,0.0,0.0,0.0,0.0,0.0,0.0,0.0,0.0,0.0,0.0,0.0,0.0,0.0,0.0,0.0,0.0,0.0,0.0,0.0,0.0,0.0,0.0,0.0,0.0,0.0,0.0,0.0,0.0,0.0,0.0,0.0,0.0,0.0,0.0,0.0,0.0,0.0,0.0,0.0,0.0,0.0,0.0,0.0,0.0,0.0,0.0,0.0,0.0,0.0,0.0,0.0,0.0,0.0,0.0,0.0,0.0,0.0,0.0,0.0,0.0,0.0,0.0,0.0,0.0,0.0,0.0,0.0,0.0,0.0,0.0,0.0,0.0,0.0,0.0,0.0,0.0,0.0,0.0,0.0,0.0,0.0,0.0,0.0,0.0,0.0,0.0,0.0,0.0,0.0,0.0,0.0,0.0,0.0,0.0,0.0,0.0,0.0,0.0,0.0,0.0,0.0,0.0,0.7267,0.0,0.0,0.0,0.0,0.0,0.0,0.0,0.0,0.0,0.0,0.0,0.0,0.0,0.0,0.0,0.0,0.0,0.0,0.0,0.0,0.0,0.0,0.0,0.0,0.0,0.0,0.0,0.0,0.0,0.0,0.0,0.0,0.0,0.0,0.0,0.0,0.0,0.0,0.0,0.0,0.0,0.0,0.0,0.0,0.0,0.0,0.0,0.0,0.0,0.0,0.0,-0.168,0.0,0.0,0.0,0.0,0.0,0.0,0.0,0.0,0.0,0.0,0.0,0.0,0.0,0.0,0.0,0.0,0.0,0.0,0.0,0.0,0.0,0.0,0.0,0.0,0.0,0.0,0.0,0.0,0.0,0.0,0.0,0.0,0.0,0.0,0.0,0.0,0.0,0.0,0.0,0.0,0.0,0.0,0.0,0.0,0.0,0.0,0.0,0.0,0.0,0.0,0.0,0.0,0.0,0.0,0.0,0.0,0.0,0.0,0.0,0.0,0.7189,0.0,0.0,0.0,0.0,0.0,0.0,0.0,0.0,0.0,0.0,0.0,0.0,0.0,0.0,0.0,0.0,0.0,0.0,0.0,0.0,0.0,0.0,0.0,0.0,0.0,0.0,0.0,0.0,0.0,0.0,0.0,0.0,0.0,0.0,0.0,0.0,0.0,0.0,0.0,0.0,0.0,0.0,0.0,0.0,0.0,0.0,0.0,0.0,0.0,0.0,-0.0874,0.0,0.0,0.0,0.0,0.0,0.0,0.0,0.0,0.0,0.0,0.0,0.0,0.0,0.0,0.0,0.0,0.0,0.0,0.0,0.0,0.0,0.0,0.0,0.0,0.0,0.0,0.0,0.0,0.0,0.0,0.0,0.0,0.0,0.0,0.0,0.0,0.0,0.0,0.0,0.0,0.0,0.0,0.0,0.0,0.0,0.0,0.0,0.0,0.0,0.0,0.0,0.0,0.0,1.2501,1.2501,1.2501,1.2501,1.2501,1.2424,1.0701,0.9765,0.9138,0.5627,0.0,0.0,0.0,0.0,0.0,0.0,0.0,0.0,0.0,0.0,0.0,0.0,0.0,0.0,0.0,0.0,0.0,0.0,0.0,0.0,0.0,0.0,0.0,0.0,0.0,0.0,0.0,0.0,0.0,0.0,0.0,0.0,0.0,0.0,0.0,0.0,0.0,0.0,0.0,0.0,0.0,0.0,0.0,0.0,0.0,0.0,0.0,0.0,0.0,0.0,0.0,0.0,0.0,0.0,0.0,0.0,0.0,0.0,0.0,0.0,0.0,0.0,0.0,0.0,0.0,0.0,0.0,0.0,0.0,0.0,0.0,0.0,0.0,0.0,0.0,0.0,0.0,0.0,0.0,0.0,0.0,0.0,1.2501,1.2501,0.0,0.0,0.0,0.0,0.0,0.0,0.0,0.0,0.0,0.0,0.0,0.0,0.0,1.2501,1.2501,1.2501,1.2501,1.2501,1.2501,1.2501,1.2501,1.2501,1.2501,1.2501,1.2192,0.0,0.9371,0.8828,0.0,0.0,0.0,0.0,0.0,0.0,0.0,0.0,0.0,0.0,0.0,0.0,0.0,0.0,0.0,0.0,0.0,0.0,0.0,0.0,0.0,0.0,0.0,0.0,0.0,0.0,0.0,0.0,0.0,0.0,0.0,0.0,0.0,0.0,0.0,0.0,0.0,0.0,0.0,0.0,0.0,0.0,0.0,0.0,0.0,0.0,0.0,0.0,0.0,0.0,0.0,0.0,0.0,0.0,0.0,0.0,0.0,0.0,0.0,0.0,0.0,0.0,0.0,0.0,0.0,0.0,0.0,0.0,0.0,0.0,0.0,0.0,0.0,0.0,0.0,0.0,0.0,0.0,0.0,0.0,0.0,1.2501,1.2501,1.2501,1.2501,1.2501,0.0,0.0,0.0,0.0,0.0,0.0,0.0,0.0,0.0,1.2501,1.2501,1.2501,1.2501,1.2501,1.2501,1.2501,1.2501,1.2501,1.2501,1.2501,1.2501,1.2501,1.2501,1.1953,1.1011,0.992,0.8828,0.7816,0.0,0.0,0.0,0.0,0.4303,0.3679,0.4615,0.3508,0.0,0.1708,0.0,0.0,0.0,0.0,0.0,0.0,0.0,0.0,0.0,0.0,0.0,0.0,0.0,0.0,0.0,0.0,0.0,0.0,0.0,0.0,0.0,0.0,0.0,0.0,0.0,0.0,0.0,0.0,0.0,0.0,0.0,0.0,0.0,0.0,0.0,0.0,0.0,0.0,0.0,0.0,0.0,0.0,0.0,0.0,0.0,0.0,0.0,0.0,0.0,0.0,0.0,0.0,0.0,0.0,0.0,0.0,0.0,0.0,0.0,0.0,0.0,0.0,0.0,0.0,0.0,0.0,0.0,0.0,0.0,1.2501,1.2501,1.2501,1.2501,1.2501,0.0,0.0,0.0,0.0,0.0,0.0,1.2501,1.2501,1.2501,1.2501,1.2501,1.2501,1.2501,1.2501,1.2501,1.2501,1.2501,1.2501,1.2501,1.2501,1.2501,1.2501,1.2461,1.2447,1.2293,1.0845,1.0153,0.9998,0.789,0.71,0.708,0.708,0.6678,0.6273,0.6818,0.5547,0.3827,0.3827,0.0,0.0753,0.0754,0.0,0.0,0.0,0.0,0.0,0.0,0.0,0.0,0.0,0.0,0.0,0.0,0.0,0.0,0.0,0.0,0.0,0.0,0.0,0.0,0.0,0.0,0.0,0.0,0.0,0.0,0.0,0.0,0.0,0.0,0.0,0.0,0.0,0.0,0.0,0.0,0.0,0.0,0.0,0.0,0.0,0.0,0.0,0.0,0.0,0.0,0.0,0.0,0.0,0.0,0.0,0.0,0.0,0.0,0.0,0.0,0.0,0.0,0.0,0.0,0.0,0.0,0.0,0.0,0.0,0.0,0.0,0.0,1.2501,1.2501,0.0,0.0,0.0,0.0,1.2501,1.2501,1.2501,1.2501,1.2501,1.2501,1.2501,1.2501,1.2501,1.2501,1.2501,1.2501,1.2501,1.2501,1.2501,1.2501,1.2501,1.2501,1.2494,1.2359,1.2298,1.2311,1.237,1.2347,1.2108,1.0075,0.9151,0.9056,0.9056,0.7697,0.6115,0.8074,0.7394,0.5657,0.5657,0.4342,0.2746,0.2746,0.1473,0.0,0.0,0.0,0.0,0.0,0.0,0.0,0.0,0.0,0.0,0.0,0.0,0.0,0.0,0.0,0.0,0.0,0.0,0.0,0.0,0.0,0.0,0.0,0.0,0.0,0.0,0.0,0.0,0.0,0.0,0.0,0.0,0.0,0.0,0.0,0.0,0.0,0.0,0.0,0.0,0.0,0.0,0.0,0.0,0.0,0.0,0.0,0.0,0.0,0.0,0.0,0.0,0.0,0.0,0.0,0.0,0.0,0.0,0.0,0.0,0.0,0.0,0.0,0.0,0.0,0.0,0.0,1.4399,1.4399,0.0,1.2656,1.2501,1.2501,1.2501,1.2501,1.2501,1.2501,1.2501,1.2501,1.2501,1.2501,1.2461,1.2366,1.2366,1.2318,1.2216,1.2216,1.2216,1.2216,1.2216,1.2216,1.2216,1.2169,1.2142,1.2149,1.2196,1.2216,1.2141,1.1454,1.1114,1.107,1.107,1.0583,0.9944,1.0697,0.9595,0.7582,0.6271,0.5357,0.4754,0.4754,0.3409,0.1869,0.1869,0.0998,0.0,0.0,0.0,0.0,0.0,0.0,0.0,0.0,0.0,0.0,0.0,0.0,0.0,0.0,0.0,0.0,0.0,0.0,0.0,0.0,0.0,0.0,0.0,0.0,0.0,0.0,0.0,0.0,0.0,0.0,0.0,0.0,0.0,0.0,0.0,0.0,0.0,0.0,0.0,0.0,0.0,0.0,0.0,0.0,0.0,0.0,0.0,0.0,0.0,0.0,0.0,0.0,0.0,0.0,0.0,0.0,0.0,0.0,0.0,0.0,0.0,0.0,1.5922,1.5463,1.5463,1.4935,1.3945,1.2656,1.2501,1.2501,1.2501,1.2501,1.2481,1.2433,1.2433,1.2406,1.2359,1.2352,1.2311,1.2216,1.221,1.2162,1.2135,1.2135,1.2135,1.2135,1.2135,1.2135,1.2135,1.2006,1.1986,1.1979,1.1932,1.1911,1.1925,1.2026,1.2033,1.1986,1.1986,1.1952,1.1911,1.1911,1.103,0.9613,0.8222,0.7306,0.6705,0.6705,0.5288,0.361,0.2975,0.1896,0.0765,0.0139,0.0,0.0,0.0,0.0,0.0,0.0,0.0,0.0,0.0,0.0,0.0,0.0,0.0,0.0,0.0,0.0,0.0,0.0,0.0,0.0,0.0,0.0,0.0,0.0,0.0,0.0,0.0,0.0,0.0,0.0,0.0,0.0,0.0,0.0,0.0,0.0,0.0,0.0,0.0,0.0,0.0,0.0,0.0,0.0,0.0,0.0,0.0,0.0,0.0,0.0,0.0,0.0,0.0,0.0,0.0,0.0,0.0,0.0,0.0,1.895,1.698,1.5693,1.5693,1.3945,1.2726,1.2733,1.2656,1.2579,1.2579,1.2579,1.244,1.2305,1.2298,1.223,1.2155,1.2074,1.2074,1.2142,1.206,1.2135,1.2054,1.2121,1.2047,1.2047,1.2047,1.2047,1.204,1.1891,1.1823,1.1816,1.1674,1.1619,1.1647,1.1938,1.1959,1.1823,1.1823,1.1735,1.1619,1.1613,1.1613,1.1613,1.1606,1.0203,0.8596,0.8596,0.7112,0.509,0.3353,0.2769,0.2329,0.0549,0.0068,0.0,0.0,0.0,0.0,0.0,0.0,0.0,0.0,0.0,0.0,0.0,0.0,0.0,0.0,0.0,0.0,0.0,0.0,0.0,0.0,0.0,0.0,0.0,0.0,0.0,0.0,0.0,0.0,0.0,0.0,0.0,0.0,0.0,0.0,0.0,0.0,0.0,0.0,0.0,0.0,0.0,0.0,0.0,0.0,0.0,0.0,0.0,0.0,0.0,0.0,0.0,0.0,0.0,0.0,0.0,0.0,2.2434,2.3042,2.1066,2.0305,1.993,1.993,1.9403,1.8497,1.7056,1.554,1.4705,1.4705,1.3337,1.2481,1.2447,1.244,1.2427,1.2379,1.2379,1.2332,1.223,1.2121,1.2006,1.1891,1.1789,1.1742,1.1742,1.1742,1.1742,1.1735,1.1694,1.1681,1.1674,1.1633,1.1619,1.1626,1.1708,1.1714,1.1681,1.1681,1.1653,1.1606,1.1491,1.1457,1.1436,1.1321,1.0905,1.0449,1.0449,0.9101,0.7424,0.6876,0.4771,0.2566,0.2095,0.1012,0.0,0.0,0.0,0.0,0.0,0.0,0.0,0.0,0.0,0.0,0.0,0.0,0.0,0.0,0.0,0.0,0.0,0.0,0.0,0.0,0.0,0.0,0.0,0.0,0.0,0.0,0.0,0.0,0.0,0.0,0.0,0.0,0.0,0.0,0.0,0.0,0.0,0.0,0.0,0.0,0.0,0.0,0.0,0.0,0.0,0.0,0.0,0.0,0.0,0.0,0.0,0.0,0.0,0.0,0.0,0.0,2.387,2.4179,2.3042,2.2124,2.1601,2.1601,2.0841,1.9854,1.8723,1.7512,1.6828,1.6828,1.4935,1.3761,1.3694,1.2867,1.2386,1.2318,1.2318,1.2277,1.2196,1.2108,1.1986,1.183,1.1748,1.1681,1.1619,1.1619,1.1619,0.0,1.1619,1.1619,1.1619,1.1619,1.1579,0.0,0.0,0.0,0.0,0.0,1.1484,1.1416,1.1328,1.1294,1.128,1.1261,1.1124,1.107,1.107,1.0283,0.9148,0.8402,0.6602,0.4557,0.3086,0.1948,0.0941,0.0202,0.0,0.0,0.0,0.0,0.0,0.0,0.0,0.0,0.1077,0.0446,0.0,0.0,0.0,0.0,0.0,0.0,0.0,0.0,0.0,0.0,0.0,0.0,0.0,0.0,0.0,0.0,0.0,0.0,0.0,0.0,0.0,0.0,0.0,0.0,0.0,0.0,0.0,0.0,0.0,0.0,0.0,0.0,0.0,0.0,0.0,0.0,0.0,0.0,0.0,0.0,0.0,0.0,0.0,0.0,2.4636,2.4636,2.4636,2.3042,2.1975,2.1975,2.0391,1.9252,1.9252,1.9101,1.895,1.895,1.6828,1.5464,1.5294,0.0,0.0,0.0,0.0,1.219,1.219,1.2094,1.2013,1.1857,1.1837,1.1755,1.1619,1.1619,1.1619,1.1619,1.1619,1.1606,1.1592,1.1592,1.1504,1.1382,1.1511,1.1565,1.1552,1.1416,1.128,0.0,0.0,0.0,0.0,1.1118,1.1029,1.0853,1.0853,1.0759,1.0379,0.8767,0.8163,0.7293,0.4091,0.3153,0.255,0.0738,0.0332,0.0263,0.0066,0.0,0.0064,0.0253,0.1511,0.2564,0.2714,0.1558,0.0564,0.0556,0.037,0.0,0.0308,0.0123,0.0,0.0,0.0,0.0,0.0,0.0,0.0,0.0,0.0,0.0,0.0,0.0,0.0,0.0,0.0,0.0,0.0,0.0,0.0,0.0,0.0,0.0,0.0,0.0,0.0,0.0,0.0,0.0,0.0,0.0,0.0,0.0,0.0,0.0,0.0,0.0,0.0,2.4253,2.4636,2.4636,2.4636,2.4253,2.4031,2.4031,2.3648,2.3426,2.3426,2.1975,2.0991,2.0991,1.7588,1.5523,1.5489,1.3524,1.2447,1.242,1.242,1.242,1.242,1.2305,1.2169,1.2013,0.0,0.0,1.1619,1.1619,1.1619,1.1619,1.1619,1.1552,1.1436,1.1436,1.1348,1.1212,1.124,1.1253,1.1246,1.1219,1.1185,1.1145,1.1029,1.0989,1.0968,1.0846,1.0785,1.0765,1.0765,1.0744,0.0,1.0246,0.9105,0.7831,0.716,0.5964,0.4414,0.2582,0.2173,0.177,0.0325,0.0,0.038,0.1766,0.2307,0.2903,0.4183,0.4192,0.3948,0.3937,0.2831,0.2033,0.2033,0.0863,0.0,0.0,0.0,0.0,0.0,0.0,0.0,0.0,0.0,0.0,0.0,0.0,0.0,0.0,0.0,0.0,0.0,0.0,0.0,0.0,0.0,0.0,0.0,0.0,0.0,0.0,0.0,0.0,0.0,0.0,0.0,0.0,0.0,1.6447,1.9553,0.0,2.2237,2.4069,2.4543,2.4583,2.4436,2.4543,2.4636,2.4636,2.4636,2.4636,2.4636,2.3722,2.3116,2.3116,1.9327,1.7056,1.7056,1.4176,1.2501,1.2501,1.2501,1.2501,1.2501,1.2433,1.2284,1.2135,1.1986,1.183,1.1619,1.1619,1.1619,1.1619,1.1619,1.1531,1.1382,1.1233,1.1124,1.105,1.0968,1.0989,1.1056,1.1056,1.1009,1.0928,1.086,1.0766,1.0819,1.0744,1.0717,1.0717,1.0717,1.0717,1.0717,1.0717,1.0047,0.9154,0.8167,0.7224,0.6144,0.4234,0.3811,0.3527,0.2676,0.2454,0.2678,0.3546,0.4385,0.5219,0.6014,0.6813,0.6813,0.5161,0.4242,0.3689,0.3689,0.2954,0.2462,0.2462,0.2462,0.2462,0.2462,0.1701,0.1261,0.1251,0.0462,0.0,0.0,0.0,0.0,0.0,0.0,0.0,0.0,0.0,0.0,0.0,0.0,0.0,0.0,0.0,0.0,0.0,0.0,0.0,0.0,1.2501,1.2579,1.3035,1.4399,1.6209,1.8662,2.0389,2.214,2.3945,2.4396,2.4489,2.4315,2.4489,2.4636,2.4636,2.4636,2.4636,2.4636,2.4636,2.4636,2.4636,2.0841,1.8572,1.8572,1.4705,1.2501,1.2501,1.2501,1.2501,1.2501,1.2501,1.2352,1.2135,1.2135,1.1904,1.1619,1.1619,1.1619,1.1613,1.1558,1.1463,1.1321,1.1029,1.084,1.0826,1.0765,1.0799,1.084,1.084,1.0759,1.0717,1.0717,1.0717,1.0717,1.0717,1.0717,1.0717,1.0717,1.0717,1.0711,1.0683,1.0677,1.0307,0.8719,0.8296,0.7811,0.5898,0.5445,0.5331,0.5005,0.4895,0.4977,0.5345,0.6503,0.7484,0.7789,0.8958,0.8897,0.6263,0.559,0.5406,0.5406,0.51,0.4916,0.4916,0.4916,0.4909,0.4835,0.3698,0.2815,0.2456,0.1195,0.028,0.0,0.0,0.0,0.0,0.0,0.0,0.0,0.0,0.0,0.0,0.0,0.0,1.2501,1.2501,1.2501,1.2501,1.2501,1.2501,0.0,1.2501,1.3035,1.4782,1.531,1.6621,2.0251,2.1114,2.1922,2.3905,2.4235,2.4329,2.4556,2.4609,2.4636,2.4636,2.4636,2.4636,2.4636,2.4636,2.4636,2.4636,2.0841,1.8572,1.8572,1.4705,1.2501,1.2501,1.2501,1.2501,1.2501,1.2501,1.2352,1.2135,1.2135,1.1904,1.1619,1.1619,1.1619,1.1606,1.1335,1.1275,1.1165,1.0867,1.0744,1.0744,1.0724,1.0731,1.0744,1.0744,1.0731,1.0717,1.0717,1.0717,1.0717,1.0717,1.0717,1.0717,1.0717,1.0717,1.069,1.0555,1.0521,1.0415,1.0082,1.0048,0.9557,0.7702,0.7286,0.6878,0.5251,0.4923,0.5345,0.6808,0.7301,0.785,0.9268,0.97,0.97,0.9329,0.8039,0.7113,0.7113,0.5835,0.4916,0.4916,0.4916,0.4828,0.4761,0.4562,0.3847,0.23,0.2034,0.1343,0.0056,0.0,0.0,0.0,0.0,0.0,0.0,0.0,0.0,0.0,0.0,0.0,1.2352,1.2379,1.24,1.2481,1.2501,1.2481,1.24,1.2379,1.2581,1.3385,1.3514,1.4386,1.7109,1.8664,2.0117,2.1969,2.3482,2.4436,2.4396,2.4529,2.4636,2.4636,2.4636,2.4636,2.4636,2.4636,2.4636,2.4636,2.0841,1.8572,1.8572,1.4705,1.2501,1.2501,1.2501,1.2501,1.2501,1.2501,1.2352,1.2135,1.2135,1.1904,1.1619,1.1619,1.1619,1.1599,1.1294,1.1234,1.1138,1.0839,1.0717,1.0717,1.0717,1.0717,1.0717,1.0717,1.0717,1.0717,1.0717,1.0717,1.0717,1.0717,1.0717,1.0717,1.0717,1.0656,1.0575,1.0507,1.0432,1.0337,1.0181,1.0148,0.9919,0.9075,0.886,0.8658,0.7928,0.7734,0.7978,0.8653,0.8775,0.9019,0.97,0.9822,0.9822,0.9822,0.9207,0.8775,0.8775,0.816,0.7734,0.7734,0.7734,0.7686,0.7573,0.6681,0.5412,0.3782,0.2763,0.151,0.0056,0.0,0.0,0.0,0.0,0.0,0.0,0.0,0.0,0.0,0.0,0.0,1.2196,1.223,1.225,1.2352,1.2379,1.2352,1.225,1.223,1.2196,1.2088,1.2135,1.271,1.4637,1.6305,1.8161,2.0477,2.2458,2.3788,2.4269,2.4502,2.4636,2.4636,2.4636,2.4636,2.4636,2.4636,2.4636,2.4636,2.1377,1.9176,1.8648,1.5242,1.3035,1.2501,1.2501,1.2501,1.2501,1.2501,1.2352,1.2135,1.2135,1.1904,1.1619,1.1619,1.1599,1.1545,1.1274,1.1138,1.1084,1.0826,1.0717,1.0717,1.0717,1.0717,1.0717,1.0717,1.0717,1.0717,1.0717,1.0717,1.0717,1.0717,1.069,1.0656,1.0656,1.0555,1.0426,1.0385,1.0297,1.0181,0.9963,0.9923,0.9896,0.9849,0.9822,0.9822,0.9822,0.9822,0.9822,0.9822,0.9822,0.9822,0.9822,0.9822,0.9822,0.9822,0.9822,0.9822,0.9822,0.9822,0.9822,0.9822,0.9822,0.9747,0.9564,0.8435,0.7028,0.5346,0.4102,0.2571,0.0672,0.0616,0.0392,0.0,0.0,0.0,0.0,0.0,0.0,0.0,0.0,0.0,1.2067,1.2142,1.2149,1.2074,1.2074,1.2074,1.2149,1.2142,1.2067,1.206,1.2135,1.2607,1.4398,1.4872,1.6306,2.0238,2.1122,2.2056,2.4288,2.4549,2.4636,2.4636,2.4636,2.4636,2.4636,2.4636,2.4636,2.4636,2.2657,2.0692,1.8723,1.6599,1.4552,1.2579,1.2501,1.2501,1.2501,1.2501,1.2352,1.2135,1.2135,1.1904,1.1619,1.1619,1.1538,1.1389,1.1233,1.1084,1.0873,1.0785,1.0717,1.0717,1.0717,1.0717,1.0717,1.0717,1.0717,1.0717,1.0717,1.0717,1.0717,1.0717,1.0622,1.05,1.05,1.0399,1.0256,1.0044,0.9997,0.9957,0.9869,0.9829,0.9829,0.9822,0.9822,0.9822,0.9822,0.9822,0.9822,0.9822,0.9822,0.9822,0.9822,0.9822,0.9822,0.9822,0.9822,0.9822,0.9822,0.9822,0.9822,0.9822,0.9822,0.97,0.9415,0.9381,0.8558,0.6776,0.6589,0.5246,0.2235,0.2124,0.1454,0.0,0.0,0.0,0.0,0.0,0.0,0.0,0.0,0.0,1.1884,1.1911,1.1932,1.204,1.2135,1.2033,1.1932,1.1911,1.1884,1.1789,1.1843,1.2111,1.2634,1.408,1.5606,1.6934,1.9573,2.1731,2.2496,2.3722,2.4636,2.4636,2.4636,2.4636,2.4636,2.4636,0.0,2.4636,2.2732,2.0692,1.8723,1.6599,1.4552,1.2579,1.2501,1.2501,1.2501,1.2406,1.2264,1.2135,1.1864,1.1714,1.1619,1.1619,1.1538,1.1382,1.1226,1.1084,1.0867,1.0785,1.0717,1.0717,1.0717,1.0717,1.0717,1.0717,1.0717,1.0717,1.0717,1.0717,1.0704,1.0602,1.0534,1.0473,1.0378,1.0249,1.0114,1.0004,0.9916,0.9883,0.9836,0.9822,0.9822,0.9822,0.9822,0.9822,0.9822,0.9822,0.9822,0.9822,0.9822,0.9822,0.9822,0.9822,0.9822,0.9822,0.9822,0.9822,0.9822,0.9822,0.9822,0.9822,0.9734,0.9598,0.9401,0.9344,0.8514,0.6821,0.67,0.5361,0.2347,0.218,0.151,0.0056,0.0,0.0,0.0,0.0,0.0,0.0,0.0,0.0,1.1728,1.1755,1.1782,1.1877,1.1904,1.1877,1.1775,1.1755,1.1728,1.164,1.1735,1.183,1.183,1.3103,1.4442,1.5186,1.7594,1.9704,2.038,2.2273,2.35,2.35,2.4179,2.4636,2.4636,2.4636,2.4636,2.4636,2.3413,2.1452,1.8723,1.736,1.531,1.2579,1.2501,1.2501,1.2501,1.2359,1.2189,1.1979,1.1735,1.1619,1.1619,1.1619,1.1504,1.1301,1.1275,1.105,1.0793,1.0758,1.0717,1.0717,1.0717,1.0717,1.0717,1.0717,1.0717,1.0717,1.0717,1.0683,1.0622,1.0521,1.0419,1.0317,1.0222,1.0093,0.9909,0.9909,0.9897,0.9822,0.9822,0.9822,0.9822,0.9822,0.9822,0.9822,0.9822,0.9822,0.9822,0.9822,0.9822,0.9822,0.9822,0.9822,0.9822,0.9822,0.9822,0.9822,0.9822,0.9822,0.9822,0.9822,0.9693,0.9551,0.9395,0.9296,0.8689,0.7549,0.7482,0.6362,0.391,0.3296,0.2293,0.084,0.028,0.0,0.0,0.0,0.0,0.0,0.0,0.0,1.1619,1.1619,1.1619,1.1619,1.1619,1.1619,1.1619,1.1619,1.1619,1.1619,1.1735,1.183,1.1843,1.2088,1.296,1.4826,1.5345,1.6218,1.8194,2.0241,2.1601,2.1601,2.3351,2.4636,2.4636,2.4636,2.4636,2.4636,0.0,2.2806,1.8799,1.8572,1.6751,1.2656,1.2501,1.2501,1.2488,1.2338,1.2115,1.1816,1.1681,1.1619,1.1619,1.1613,1.1443,1.1234,1.1158,1.0989,1.0717,1.0717,1.0717,1.0717,1.0717,1.0717,1.0717,1.0717,1.0717,1.0717,1.0711,1.0616,1.0487,1.048,1.0283,0.9984,0.9977,0.9876,0.9822,0.9822,0.9822,0.9822,0.9822,0.9822,0.9822,0.9822,0.9822,0.9822,0.9822,0.9822,0.9822,0.9822,0.9822,0.9822,0.9822,0.9822,0.9822,0.9822,0.9822,0.9822,0.9822,0.9822,0.9822,0.9822,0.9686,0.9537,0.9395,0.9289,0.9083,0.8892,0.8885,0.8208,0.6755,0.5361,0.391,0.2347,0.084,0.0112,0.0112,0.0056,0.0,0.0,0.0,0.0,1.1619,1.1619,1.1619,1.1619,1.1619,1.1619,1.1619,1.1619,1.1619,1.1619,1.1735,1.1864,1.1979,1.2162,1.2477,1.3104,1.4528,1.5693,1.6218,1.9327,2.1601,2.1601,2.3351,2.4636,2.4636,2.4636,2.4636,2.4636,2.4636,2.2806,1.8799,1.8572,1.6751,1.2656,1.2501,1.2447,1.2345,1.2081,1.1857,1.1674,1.164,1.1619,1.1613,1.1504,1.1341,1.1158,1.105,1.0894,1.0717,1.0717,1.0717,1.0717,1.0717,1.0717,1.0717,1.0717,1.0717,1.0704,1.0588,1.0527,1.0473,1.0371,1.0209,0.9963,0.9856,0.9849,0.9822,0.9822,0.9822,0.9822,0.9822,0.9822,0.9822,0.9822,0.9822,0.9822,0.9822,0.9822,0.9822,0.9822,0.9822,0.9822,0.9822,0.9822,0.9822,0.9822,0.9822,0.9822,0.9822,0.9822,0.9822,0.9822,0.9591,0.9422,0.9388,0.9144,0.8981,0.8885,0.8885,0.8208,0.6755,0.6366,0.5417,0.3968,0.2403,0.1622,0.1622,0.056,0.0,0.0,0.0,0.0,1.1619,1.1619,1.1619,1.1619,1.1619,1.1619,1.1619,1.1619,1.1619,1.1619,1.1735,1.1857,1.1945,1.2088,1.2237,1.2386,1.3388,1.4091,1.416,1.6904,1.9252,2.0155,2.2049,2.3648,2.4488,2.4636,2.4636,2.4636,2.4636,2.2806,1.8799,1.8572,1.6751,1.2656,1.3271,1.3574,1.3349,1.2353,1.1762,1.1619,1.1619,1.1619,1.1613,1.1463,1.1307,1.1158,0.0,1.0793,1.0717,1.0717,1.0717,1.0717,1.0717,1.0717,1.0717,1.0717,1.0677,1.0609,1.0521,1.0405,1.0283,1.0209,1.0073,0.9869,0.9849,0.9822,0.9822,0.9822,0.9822,0.9822,0.9822,0.9822,0.9822,0.9822,0.9822,0.9822,0.9822,0.9822,0.9822,0.9822,0.9822,0.9822,0.9822,0.9822,0.9822,0.9822,0.9822,0.9822,0.9822,0.9822,0.9795,0.9734,0.9517,0.9354,0.9344,0.9069,0.8885,0.8885,0.8885,0.8546,0.7709,0.7038,0.6033,0.4526,0.2961,0.19,0.1231,0.0392,0.0,0.0,0.0,0.0,1.1548,1.1619,1.1619,1.1619,1.1619,1.1619,1.1619,1.1619,1.1619,1.1619,1.1714,1.1809,1.183,1.1938,1.2081,1.2237,1.2277,1.2332,1.2454,1.4237,1.6294,1.8345,2.0391,2.236,2.4401,2.4636,2.4636,2.4636,2.4636,2.2967,1.9176,1.8723,1.6818,1.3007,1.4557,1.5189,1.472,1.2962,1.1953,1.1619,1.1619,1.1606,1.1586,1.143,1.128,1.1124,0.0,0.0,1.0717,1.0717,1.0717,1.0717,1.0717,1.0717,1.0717,1.0697,1.0609,1.0487,1.0446,1.0263,0.9984,0.9984,0.9883,0.9822,0.9822,0.9822,0.9822,0.9822,0.9822,0.9822,0.9822,0.9822,0.9822,0.9822,0.9822,0.9822,0.9822,0.9822,0.9822,0.9822,0.9822,0.9822,0.9822,0.9822,0.9822,0.9822,0.9822,0.9822,0.9822,0.9822,0.9768,0.9625,0.9469,0.932,0.9221,0.9022,0.8885,0.8885,0.8885,0.8885,0.8885,0.7648,0.6311,0.4804,0.3296,0.179,0.028,0.0112,0.0,0.0,0.0,0.0,1.1181,1.1619,1.1619,1.1619,1.1619,1.1619,1.1619,1.1619,1.1619,1.1619,1.164,1.1694,1.1809,1.185,1.1918,1.2074,1.221,1.2298,1.2325,1.4167,1.6294,1.8345,2.0391,2.236,2.4401,2.4636,2.4636,2.4636,2.4636,2.3574,2.1216,1.9478,1.736,1.4716,1.6223,1.6292,1.472,1.4209,1.3126,1.1619,1.1619,1.1552,1.1423,1.1274,1.1124,1.0907,1.0826,0.0,1.0717,1.0717,1.0717,1.0717,1.0717,1.0717,1.0704,1.0575,1.0514,1.046,1.0209,1.0031,0.9984,0.9984,0.9883,0.9822,0.9822,0.9822,0.9822,0.9822,0.9822,0.9822,0.9822,0.9822,0.9822,0.9822,0.9822,0.9822,0.9822,0.9822,0.9822,0.9822,0.9822,0.9822,0.9822,0.9822,0.9822,0.9822,0.9822,0.9822,0.9822,0.9822,0.9768,0.9625,0.9469,0.932,0.9221,0.9022,0.8885,0.8885,0.8885,0.8885,0.8885,0.8657,0.782,0.6366,0.486,0.3352,0.1789,0.0616,0.0,0.0,0.0,0.0,0.9867,1.0815,1.1619,1.1619,1.1619,1.1619,1.1619,1.1619,1.1619,1.1619,1.1619,1.164,1.1708,1.1721,1.1769,1.1918,1.1999,1.2081,1.2162,1.3047,1.4918,1.8081,1.9287,2.114,2.4314,2.4636,2.4636,2.4636,2.4489,2.3568,2.1664,1.9511,1.8164,1.7832,1.7611,1.7021,1.5997,1.4972,1.3452,1.1619,1.1538,1.1463,1.1382,1.1151,1.1016,1.0873,1.0785,0.0,1.0717,1.0717,1.0717,1.0717,1.0717,1.0717,1.0704,1.0548,1.0446,1.0351,1.0127,0.9998,0.9869,0.9869,0.9883,0.9822,0.9822,0.9822,0.9822,0.9822,0.9822,0.9822,0.9822,0.9822,0.9822,0.9822,0.9822,0.9822,0.9822,0.9822,0.9822,0.9822,0.9822,0.9822,0.9822,0.9822,0.9822,0.9822,0.9822,0.9822,0.9822,0.9822,0.9734,0.9517,0.9422,0.9286,0.9062,0.8981,0.8885,0.8885,0.8885,0.8885,0.8885,0.8885,0.8208,0.67,0.6033,0.4522,0.218,0.151,0.0728,0.0,0.0,0.0,0.8487,0.9795,1.1109,1.1476,1.1619,1.1619,1.1619,1.1619,1.1619,1.1619,1.1619,1.1619,1.1619,1.1619,1.1653,1.1769,1.1809,1.187,1.1993,1.204,1.3506,1.7176,1.7936,1.9708,2.3443,2.4143,2.4449,2.4449,2.4235,2.331,2.1499,2.0003,1.9547,2.025,1.9249,1.841,1.7809,1.5981,1.4085,1.218,1.1676,1.1375,1.1335,1.107,1.086,1.0826,1.0772,0.0,0.0,1.0717,1.0717,1.0717,1.0717,1.0704,1.0656,1.05,1.0351,1.0209,1.0053,0.9924,0.9822,0.9822,0.9822,0.9822,0.9822,0.9822,0.9822,0.9822,0.9822,0.9822,0.9822,0.9822,0.9822,0.9822,0.9822,0.9822,0.9822,0.9822,0.9822,0.9822,0.9822,0.9822,0.9822,0.9822,0.9822,0.9822,0.9822,0.9822,0.9822,0.9795,0.9673,0.9408,0.9381,0.9259,0.8905,0.8885,0.8885,0.8885,0.8885,0.8885,0.8885,0.8885,0.8208,0.67,0.67,0.5361,0.2682,0.2347,0.1622,0.0448,0.0168,0.0,0.7761,0.8848,0.9357,1.1181,1.1619,1.1619,1.1619,1.1619,1.1619,1.1619,1.1619,1.1619,1.1619,1.1619,1.1619,1.164,1.1748,1.1837,1.185,1.1972,1.2947,1.5163,1.6911,1.881,2.1029,2.2806,2.3848,2.3848,2.3821,2.2937,2.0897,2.2111,2.2077,2.038,2.1691,2.1553,1.9843,1.7879,1.5981,1.4148,1.2299,1.1321,1.1179,1.1023,1.0806,1.0744,1.0724,0.0,0.0,1.0717,1.0717,1.0717,1.0717,1.0636,1.0493,1.0351,1.0202,0.9984,0.9897,0.9836,0.9822,0.9822,0.9822,0.9822,0.9822,0.9822,0.9822,0.9822,0.9822,0.9822,0.9822,0.9822,0.9822,0.9822,0.9822,0.9822,0.9822,0.9822,0.9822,0.9822,0.9822,0.9822,0.9822,0.9822,0.9822,0.9822,0.9822,0.9822,0.9822,0.9707,0.9564,0.9401,0.9381,0.9259,0.8905,0.8885,0.8885,0.8885,0.8885,0.8885,0.8885,0.8885,0.8208,0.67,0.67,0.5922,0.4303,0.2905,0.2124,0.1956,0.0616,0.0,0.4791,0.6094,0.7399,0.9357,0.9867,1.0161,1.1325,1.1619,1.1619,1.1619,1.1619,1.1619,1.1619,1.1619,1.1619,1.1619,1.1667,1.1701,1.1701,1.1755,1.2619,1.474,1.6629,1.863,2.0731,2.2658,2.3701,2.3514,2.35,2.3056,2.2078,2.2854,2.2885,2.1912,2.2569,2.2022,2.012,1.8159,1.6196,1.4255,1.2223,1.1179,1.1029,1.088,1.0778,1.0717,1.0717,0.0,0.0,1.0717,1.0717,1.0711,1.0616,1.0548,1.0466,1.0229,1.0038,0.9963,0.9876,0.9822,0.9822,0.9822,0.9822,0.9822,0.9822,0.9822,0.9822,0.9822,0.9822,0.9822,0.9822,0.9822,0.9822,0.9822,0.9822,0.9822,0.9822,0.9822,0.9822,0.9822,0.9822,0.9822,0.9822,0.9822,0.9822,0.9822,0.9822,0.9822,0.9822,0.97,0.9551,0.9395,0.9357,0.9164,0.8898,0.8885,0.8885,0.8885,0.8885,0.8885,0.8885,0.8885,0.8602,0.8042,0.8042,0.7315,0.581,0.5194,0.3965,0.218,0.1622,0.084,0.2732,0.3879,0.5529,0.8031,0.8607,0.9105,1.1051,1.1518,1.1552,1.1552,1.1552,1.1552,1.1552,1.1552,1.1552,1.1552,1.1592,1.1619,1.1619,1.1619,1.2151,1.3762,1.6062,1.8122,1.9641,2.2049,2.342,2.3207,2.3193,2.31,2.2941,2.3073,2.3086,2.2941,2.2928,2.2297,2.0963,1.893,1.6927,1.4979,1.2887,1.1514,1.0873,1.0792,1.0717,1.0717,0.0,0.0,0.0,1.0717,1.0717,1.0704,1.0555,1.0466,1.0399,1.0078,0.9957,0.9903,0.9856,0.9822,0.9822,0.9822,0.9822,0.9822,0.9822,0.9822,0.9822,0.9822,0.9822,0.9822,0.9822,0.9822,0.9822,0.9822,0.9822,0.9822,0.9822,0.9822,0.9822,0.9822,0.9822,0.9822,0.9822,0.9822,0.9822,0.9822,0.9822,0.9822,0.9822,0.9659,0.9503,0.9395,0.9205,0.9049,0.8892,0.8885,0.8885,0.8885,0.8885,0.8885,0.8885,0.8885,0.8885,0.8885,0.8885,0.838,0.7371,0.6922,0.5361,0.285,0.2403,0.1399,0.2381,0.2939,0.3846,0.7539,0.8516,0.9007,1.0819,1.1287,1.1396,1.1396,1.1396,1.1396,1.1396,1.1396,1.1396,1.1396,1.1518,1.1619,1.1619,1.1619,1.1619,1.1619,1.4937,1.7188,1.7258,2.0686,2.2941,2.2928,2.2928,0.0,2.2928,2.2928,2.2928,2.2928,2.2928,2.2859,2.2859,2.0705,1.8709,1.6904,1.4594,1.2546,1.0873,1.0792,1.0717,0.0,0.0,0.0,0.0,1.0717,1.0717,1.0704,1.0555,1.0405,1.0263,1.0044,0.9889,0.9822,0.9822,0.9822,0.9822,0.9822,0.9822,0.9822,0.9822,0.9822,0.9822,0.9822,0.9822,0.9822,0.9822,0.9822,0.9822,0.9822,0.9822,0.9822,0.9822,0.9822,0.9822,0.9822,0.9822,0.9822,0.9822,0.9822,0.9822,0.9822,0.9822,0.9822,0.9822,0.9564,0.9381,0.9381,0.9117,0.8885,0.8885,0.8885,0.8885,0.8885,0.8885,0.8885,0.8885,0.8885,0.8885,0.8885,0.8885,0.8885,0.8885,0.7426,0.5922,0.4414,0.2905,0.1399,0.0771,0.0911,0.182,0.5583,0.6488,0.7321,1.0461,1.1199,1.1233,1.1233,1.1233,1.1233,1.1233,1.1233,1.1233,1.1233,1.1274,1.1341,1.145,1.1463,1.1504,1.1606,1.38,1.6333,1.8938,2.0271,2.1527,2.2791,2.2928,2.2928,2.2928,2.2928,2.2928,2.2928,2.2928,2.2766,2.2565,2.0607,1.9217,1.8339,1.5052,1.3144,1.2492,1.1262,0.0,0.0,0.0,0.0,0.0,1.0717,1.0656,1.0548,1.0405,1.0256,1.0107,0.9951,0.9863,0.9822,0.9822,0.9822,0.9822,0.9822,0.9822,0.9822,0.9822,0.9822,0.9822,0.9822,0.9822,0.9822,0.9822,0.9822,0.9822,0.9822,0.9822,0.9822,0.9822,0.9822,0.9822,0.9822,0.9822,0.9822,0.9822,0.9822,0.9822,0.9822,0.9822,0.9822,0.9822,0.9564,0.9381,0.9381,0.9117,0.8885,0.8885,0.8885,0.8885,0.8885,0.8885,0.8885,0.8885,0.8885,0.8885,0.8885,0.8885,0.8885,0.8885,0.8436,0.7426,0.5922,0.3408,0.1956,0.0,0.0,0.0897,0.4607,0.5498,0.6457,1.0166,1.1043,1.1084,1.1084,1.1084,1.1084,1.1084,1.1084,1.1084,1.1084,1.1124,1.1199,1.1294,1.1307,1.1636,1.2492,1.3689,1.5628,1.8718,1.9634,2.0548,2.1734,2.2411,0.0,2.2699,2.2592,2.2525,2.2525,2.2632,2.2552,2.2258,2.0993,1.9893,1.8965,1.5903,1.4029,1.3259,1.1505,0.0,0.0,0.0,0.0,0.0,1.0656,1.0575,1.0473,1.027,1.0134,0.997,0.9876,0.9822,0.9822,0.9822,0.9822,0.9822,0.9822,0.9822,0.9822,0.9822,0.9822,0.9822,0.9822,0.9822,0.9822,0.9822,0.9822,0.9822,0.9822,0.9822,0.9822,0.9822,0.9822,0.9822,0.9822,0.9822,0.9822,0.9822,0.9822,0.9822,0.9822,0.9822,0.9822,0.9822,0.9564,0.9381,0.9381,0.9117,0.8885,0.8885,0.8885,0.8885,0.8885,0.8885,0.8885,0.8885,0.8885,0.8885,0.8885,0.8885,0.8885,0.8885,0.8325,0.7593,0.6644,0.4188,0.3073,0.0,0.0,0.0874,0.4492,0.5429,0.6297,0.9915,1.0833,0.0,1.0867,1.0867,1.0867,1.0867,1.0867,1.0867,1.0867,1.1043,1.12,1.1145,1.1158,1.1898,1.3763,1.4077,1.4956,1.6997,1.8813,1.9935,2.0211,2.1577,0.0,2.2392,2.2138,2.1977,2.1951,2.2218,2.2231,2.1951,2.1748,2.0812,1.9125,1.7055,1.5265,1.3587,1.1762,0.0,0.0,0.0,0.0,0.0,1.075,1.0616,1.0446,1.0161,0.9977,0.9957,0.9876,0.9822,0.9822,0.9822,0.9822,0.9822,0.9822,0.9822,0.9822,0.9822,0.9822,0.9822,0.9822,0.9822,0.9822,0.9822,0.9822,0.9822,0.9822,0.9822,0.9822,0.9822,0.9822,0.9822,0.9822,0.9822,0.9822,0.9822,0.9822,0.9822,0.9822,0.9822,0.9822,0.9822,0.9564,0.9381,0.9381,0.9117,0.8885,0.8885,0.8885,0.8885,0.8885,0.8885,0.8885,0.8885,0.8885,0.8885,0.8885,0.8885,0.8885,0.8885,0.7537,0.6871,0.6811,0.5361,0.4637,0.0,0.0,0.0874,0.4492,0.5429,0.6297,0.0,1.0751,1.0772,1.0772,1.0772,1.0772,1.0772,1.0772,1.0772,1.0772,1.0799,1.0867,1.0982,1.109,1.1379,1.1822,1.1934,1.3189,1.6401,1.7151,1.8575,2.1378,0.0,2.2084,2.2084,2.2017,2.1884,2.1722,2.1789,2.1789,2.1722,2.1655,2.1237,2.0553,1.8728,1.7667,1.7152,1.4101,0.0,0.0,0.0,0.0,1.266,1.254,1.1634,1.031,1.0058,0.9916,0.9869,0.9836,0.9822,0.9822,0.9822,0.9822,0.9822,0.9822,0.9822,0.9822,0.9822,0.9822,0.9822,0.9822,0.9822,0.9822,0.9822,0.9822,0.9822,0.9822,0.9822,0.9822,0.9822,0.9822,0.9822,0.9822,0.9822,0.9822,0.9822,0.9822,0.9822,0.9822,0.9822,0.9822,0.9822,0.9564,0.9381,0.9381,0.9117,0.8885,0.8885,0.8885,0.8885,0.8885,0.8885,0.8885,0.8885,0.8885,0.8885,0.8885,0.8885,0.8885,0.8885,0.8546,0.838,0.8325,0.6866,0.62,0.0,0.0,0.0672,0.3488,0.476,0.6097,0.8839,1.0114,1.0717,1.0717,1.0717,1.0717,1.0717,1.0717,1.0717,1.0717,1.0717,1.0751,1.0833,1.0968,1.1063,1.1063,1.1124,1.2253,0.0,1.6117,1.7736,2.0497,0.0,2.179,2.179,2.1657,2.151,2.1349,2.1349,2.1349,2.1349,2.1349,2.1269,2.1109,1.9355,1.8512,1.8436,1.5719,1.5005,0.0,0.0,0.0,1.3181,1.3059,1.187,1.0161,1.0005,0.9897,0.9822,0.9822,0.9822,0.9822,0.9822,0.9822,0.9822,0.9822,0.9822,0.9822,0.9822,0.9822,0.9822,0.9822,0.9822,0.9822,0.9822,0.9822,0.9822,0.9822,0.9822,0.9822,0.9822,0.9822,0.9822,0.9822,0.9822,0.9822,0.9822,0.9822,0.9822,0.9822,0.9822,0.9822,0.9822,0.9564,0.9381,0.9381,0.9117,0.8885,0.8885,0.8885,0.8885,0.8885,0.8885,0.8885,0.8885,0.8885,0.8885,0.8885,0.8885,0.8885,0.8885,0.8885,0.8885,0.8885,0.8097,0.7709,0.0,0.0,0.0404,0.2216,0.4091,0.583,0.7631,0.9377,1.0717,1.0717,1.0717,1.0717,1.0717,1.0717,1.0717,1.0717,1.0717,1.0717,1.0717,1.0833,1.0847,1.0847,1.1023,0.0,1.3518,1.5404,1.7227,0.0,0.0,2.1547,2.1547,2.1243,2.1109,2.1109,2.1109,2.1109,2.1109,2.1109,2.1109,2.1109,1.961,1.8896,1.8832,1.7076,1.6431,0.0,0.0,0.0,1.3468,1.3348,1.1987,0.997,0.9883,0.9822,0.9822,0.9822,0.9822,0.9822,0.9822,0.9822,0.9822,0.9822,0.9822,0.9822,0.9822,0.9822,0.9822,0.9822,0.9822,0.9822,0.9822,0.9822,0.9822,0.9822,0.9822,0.9822,0.9822,0.9822,0.9822,0.9822,0.9822,0.9822,0.9822,0.9822,0.9822,0.9822,0.9822,0.9822,0.9822,0.9564,0.9381,0.9381,0.9117,0.8885,0.8885,0.8885,0.8885,0.8885,0.8885,0.8885,0.8885,0.8885,0.8885,0.8885,0.8885,0.8885,0.8885,0.8885,0.8885,0.8885,0.8885,0.8885,0.0,0.0,0.0404,0.2216,0.4091,0.583,0.7631,0.9377,1.0717,1.0717,1.0717,1.0717,1.0717,1.0717,1.0717,1.0717,1.0717,1.0717,1.0717,1.0744,1.0758,1.0758,0.0,1.1445,1.3211,1.4978,0.0,0.0,0.0,2.1176,2.1176,2.1136,2.1109,2.1109,2.1109,2.1109,2.1109,2.1109,2.1109,2.1109,2.0843,2.0716,2.0652,1.8896,1.8896,0.0,0.0,1.7074,1.5306,1.516,1.3092,0.997,0.9883,0.9822,0.9822,0.9822,0.9822,0.9822,0.9822,0.9822,0.9822,0.9822,0.9822,0.9822,0.9822,0.9822,0.9822,0.9822,0.9822,0.9822,0.9822,0.9822,0.9822,0.9822,0.9822,0.9822,0.9822,0.9822,0.9822,0.9822,0.9822,0.9822,0.9822,0.9822,0.9822,0.9822,0.9822,0.9822,0.9822,0.9564,0.9381,0.9381,0.9117,0.8885,0.8885,0.8885,0.8885,0.8885,0.8885,0.8885,0.8885,0.8885,0.8885,0.8885,0.8885,0.8885,0.8885,0.8885,0.8885,0.8885,0.8885,0.8885,0.0,0.0,0.0202,0.1009,0.2618,0.4426,0.6164,0.7969,0.951,1.0518,1.0717,1.0717,1.0717,1.0717,1.0717,1.0717,1.0717,1.0717,1.0717,1.0717,1.0717,0.0,0.0,1.1372,1.3128,0.0,0.0,0.0,0.0,0.0,2.1109,2.1109,2.1109,2.1109,2.1109,2.1109,2.1109,2.1109,2.1109,2.1109,2.1109,2.1109,2.1046,2.0259,2.0322,2.1032,0.0,1.816,1.5575,1.5361,1.3119,0.9856,0.9849,0.9822,0.9822,0.9822,0.9822,0.9822,0.9822,0.9822,0.9822,0.9822,0.9822,0.9822,0.9822,0.9822,0.9822,0.9822,0.9822,0.9822,0.9822,0.9822,0.9822,0.9822,0.9822,0.9822,0.9822,0.9822,0.9822,0.9822,0.9822,0.9822,0.9822,0.9822,0.9822,0.9822,0.9822,0.9795,0.972,0.9517,0.9347,0.9323,0.9069,0.8885,0.8885,0.8885,0.8885,0.8885,0.8885,0.8885,0.8885,0.8885,0.8885,0.8885,0.8885,0.8885,0.8885,0.8885,0.8885,0.8885,0.8885,0.8885,0.0,0.0,0.0,0.0,0.1344,0.3153,0.4961,0.6765,0.8501,1.0319,1.0717,1.0717,1.0717,1.0717,1.0717,1.0717,1.0717,1.0717,1.0717,1.0717,1.0717,1.0717,1.0717,1.124,0.0,0.0,0.0,0.0,0.0,0.0,2.1109,2.1109,2.1109,2.1109,2.1109,2.1109,2.1109,2.1109,2.1109,2.1109,2.1109,2.1109,2.1109,2.1109,2.1109,2.1096,2.0802,1.8927,1.599,1.5268,1.3168,1.0361,1.0361,1.0361,1.0301,0.9943,0.9822,0.9822,0.9822,0.9822,0.9822,0.9822,0.9822,0.9822,0.9822,0.9822,0.9822,0.9822,0.9822,0.9822,0.9822,0.9822,0.9822,0.9822,0.9822,0.9822,0.9822,0.9822,0.9822,0.9822,0.9822,0.9822,0.9822,0.9822,0.9822,0.9822,0.9822,0.9768,0.9625,0.9476,0.932,0.9228,0.9022,0.8885,0.8885,0.8885,0.8885,0.8885,0.8885,0.8885,0.8885,0.8885,0.8885,0.8885,0.8885,0.8885,0.8885,0.8885,0.8885,0.8885,0.8885,0.8885,0.0,0.0,0.0,0.0,0.1344,0.3153,0.4961,0.6765,0.8501,1.0319,1.0717,1.0717,1.0717,1.0717,1.0717,1.0717,1.0717,1.0717,1.0717,0.0,1.0717,1.0717,1.0717,0.0,0.0,0.0,0.0,0.0,0.0,0.0,2.1109,2.1109,2.1109,2.1109,2.1109,2.1109,2.1109,2.1109,2.1109,2.1109,2.1109,2.1109,2.1109,2.1109,2.1109,2.1096,2.0802,1.9558,1.7591,1.5756,1.3835,1.2037,1.2037,1.2037,1.1856,1.0361,0.9822,0.9822,0.9822,0.9822,0.9822,0.9822,0.9822,0.9822,0.9822,0.9822,0.9822,0.9822,0.9822,0.9822,0.9822,0.9822,0.9822,0.9822,0.9822,0.9822,0.9822,0.9822,0.9822,0.9822,0.9822,0.9822,0.9822,0.9822,0.9822,0.9822,0.9822,0.9768,0.9625,0.9476,0.932,0.9228,0.9022,0.8885,0.8885,0.8885,0.8885,0.8885,0.8885,0.8885,0.8885,0.8885,0.8885,0.8885,0.8885,0.8885,0.8885,0.8885,0.8885,0.8885,0.8885,0.8885,0.0,0.0,0.0,0.0,0.0538,0.1814,0.476,0.5897,0.6898,0.8634,0.9915,1.0717,1.0717,1.0717,1.0717,1.0717,1.0717,1.0717,1.0717,1.0717,1.0717,1.0717,1.0717,0.0,0.0,0.0,0.0,0.0,0.0,0.0,2.1109,2.1109,2.1109,2.1109,2.1109,2.1109,2.1109,2.1109,2.1109,2.1109,2.1109,2.1109,2.1109,2.1109,2.1015,2.0828,2.0521,1.929,1.7418,1.5534,1.4321,1.3586,1.2569,1.2217,1.2037,1.0422,0.9822,0.9822,0.9822,0.9822,0.9822,0.9822,0.9822,0.9822,0.9822,0.9822,0.9822,0.9822,0.9822,0.9822,0.9822,0.9822,0.9822,0.9822,0.9822,0.9822,0.9822,0.9822,0.9822,0.9822,0.9822,0.9822,0.9822,0.9822,0.9822,0.9822,0.9822,0.9734,0.9496,0.9415,0.9286,0.9049,0.8974,0.8885,0.8885,0.8885,0.8885,0.8885,0.8885,0.8885,0.8885,0.8885,0.8885,0.8885,0.8885,0.8885,0.8885,0.8885,0.8885,0.8885,0.8885,0.8885,0.0,0.0,0.0,0.0,0.0,0.0941,0.4559,0.5429,0.5897,0.7631,0.9437,1.0717,1.0717,1.0717,1.0717,1.0717,1.0717,1.0717,1.0717,1.0717,1.0717,1.0717,0.0,0.0,0.0,0.0,0.0,0.0,0.0,0.0,0.0,2.1109,2.1109,2.1109,2.1109,2.1109,2.1109,2.1109,2.1109,2.1109,2.1109,2.1109,2.1109,2.1015,2.0869,2.0655,2.0267,1.9361,1.7996,1.612,1.537,1.5133,1.3048,1.2509,1.2689,1.0596,0.9822,0.9822,0.9822,0.9822,0.9822,0.9822,0.9822,0.9822,0.9822,0.9822,0.9822,0.9822,0.9822,0.9822,0.9822,0.9822,0.9822,0.9822,0.9822,0.9822,0.9822,0.9822,0.9822,0.9822,0.9822,0.9822,0.9822,0.9822,0.9822,0.9822,0.9822,0.9713,0.9422,0.9381,0.9266,0.8912,0.8885,0.8885,0.8885,0.8885,0.8885,0.8885,0.8885,0.8885,0.8885,0.8885,0.8885,0.8885,0.8885,0.8885,0.8885,0.8885,0.8885,0.8885,0.8885,0.8885,0.0,0.0,0.0,0.0,0.0,0.0941,0.4559,0.5362,0.5897,0.7631,0.9437,1.0651,1.0717,1.0717,1.0717,1.0717,1.0717,1.0717,1.0717,1.0717,1.0717,0.0,0.0,0.0,0.0,0.0,0.0,0.0,0.0,0.0,0.0,2.1109,2.1109,0.0,2.1109,2.1109,2.1109,2.1109,2.1109,2.1109,2.1109,2.1109,2.1096,2.0815,2.0681,2.0641,2.0054,1.98,1.9654,1.7799,1.702,1.6668,1.3467,1.3228,1.4183,1.102,0.9822,0.9822,0.9822,0.9822,0.9822,0.9822,0.9822,0.9822,0.9822,0.9822,0.9822,0.9822,0.9822,0.9822,0.9822,0.9822,0.9822,0.9822,0.9822,0.9822,0.9822,0.9822,0.9822,0.9822,0.9822,0.9822,0.9822,0.9822,0.9822,0.9822,0.9822,0.9713,0.9422,0.9381,0.9266,0.8912,0.8885,0.8885,0.8885,0.8885,0.8885,0.8885,0.8885,0.8885,0.8885,0.8885,0.8885,0.8885,0.8885,0.8885,0.8885,0.8885,0.8885,0.8885,0.8885,0.8885,0.0,0.0,0.0,0.0,0.0941,0.2148,0.3289,0.3488,0.4359,0.7365,0.8435,0.9172,1.0452,1.0717,1.0717,1.0717,1.0717,1.0717,1.0717,1.0717,0.0,0.0,0.0,0.0,0.0,0.0,0.0,0.0,0.0,0.0,0.0,2.1109,0.0,0.0,2.1109,2.1109,2.1109,2.1109,2.1109,2.1109,2.1109,2.1109,2.1096,2.0815,2.0561,2.0347,1.996,1.9679,1.9492,1.892,1.804,1.6786,1.4718,1.4183,1.4183,1.102,0.9822,0.9822,0.9822,0.9822,0.9822,0.9822,0.9822,0.9822,0.9822,0.9822,0.9822,0.9822,0.9822,0.9822,0.9822,0.9822,0.9822,0.9822,0.9822,0.9822,0.9822,0.9822,0.9822,0.9822,0.9822,0.9822,0.9822,0.9822,0.9822,0.9822,0.9822,0.9713,0.9422,0.9198,0.9035,0.8892,0.8885,0.8885,0.8885,0.8885,0.8885,0.8885,0.8885,0.8885,0.8885,0.8885,0.8885,0.8885,0.8885,0.8885,0.8885,0.8885,0.8885,0.8885,0.8885,0.8885,0.0874,0.1076,0.1076,0.1076,0.2417,0.3756,0.3756,0.4292,0.5626,0.8501,0.9105,0.9377,1.0518,1.0717,1.0717,1.0717,1.0717,1.0717,1.0717,1.0717,0.0,0.0,0.0,0.0,0.0,0.0,0.0,0.0,0.0,0.0,0.0,2.1109,0.0,0.0,2.1109,2.1109,2.1109,2.1109,2.1109,2.1109,2.0989,2.0935,2.0922,2.0628,2.0334,2.004,1.976,1.9533,1.943,1.943,1.8823,1.7806,1.6197,1.5133,1.4302,1.1675,1.0361,0.9822,0.9822,0.9822,0.9822,0.9822,0.9822,0.9822,0.9822,0.9822,0.9822,0.9822,0.9822,0.9822,0.9822,0.9822,0.9822,0.9822,0.9822,0.9822,0.9822,0.9822,0.9822,0.9822,0.9822,0.9822,0.9822,0.9822,0.9822,0.9822,0.972,0.9585,0.9401,0.9123,0.8885,0.8885,0.8885,0.8885,0.8885,0.8885,0.8885,0.8885,0.8885,0.8885,0.8885,0.8885,0.8885,0.8885,0.8885,0.8885,0.8885,0.8885,0.8885,0.8885,0.8885,0.8885,0.2216,0.2685,0.2752,0.2887,0.4292,0.5696,0.583,0.7098,0.8634,1.018,1.0585,1.0717,1.0717,1.0717,1.0717,1.0717,1.0717,1.0717,1.0717,1.0717,0.0,0.0,0.0,0.0,0.0,0.0,0.0,0.0,0.0,0.0,0.0,0.0,0.0,2.1109,2.1109,2.1109,2.1109,2.1082,2.1069,0.0,2.0775,2.0615,2.0588,2.0321,2.004,1.9746,1.9479,1.943,1.943,1.943,1.943,1.9243,1.7443,1.5902,1.4421,1.2808,1.1261,1.0004,1.0004,1.0004,0.9997,0.9822,0.9822,0.9822,0.9822,0.9822,0.9822,0.9822,0.9822,0.9822,0.9822,0.9822,0.9822,0.9822,0.9822,0.9822,0.9822,0.9822,0.9822,0.9822,0.9822,0.9822,0.9822,0.9822,0.9822,0.9822,0.9571,0.9381,0.9381,0.9123,0.8885,0.8885,0.8885,0.8885,0.8885,0.8885,0.8885,0.8885,0.8885,0.8885,0.8885,0.8885,0.8885,0.8885,0.8885,0.8885,0.8885,0.8885,0.8885,0.8885,0.8885,0.8885,0.2216,0.2685,0.3021,0.4492,0.6164,0.7831,0.9244,0.9848,0.9842,0.8767,0.9709,1.0717,1.0717,1.0717,1.0717,1.0717,1.0717,1.0717,1.0717,1.0717,0.0,0.0,0.0,0.0,0.0,0.0,0.0,0.0,0.0,0.0,0.0,0.0,0.0,2.1109,2.1109,2.1109,2.1109,2.0882,2.0775,0.0,2.0468,2.0214,1.9987,1.992,1.9733,1.9452,1.9457,1.943,1.943,1.943,1.943,1.9127,1.6267,1.4896,1.4421,1.2808,1.1976,1.1675,1.1675,1.1675,1.1495,1.0179,0.9822,0.9822,0.9822,0.9822,0.9822,0.9822,0.9822,0.9822,0.9822,0.9822,0.9822,0.9822,0.9822,0.9822,0.9822,0.9822,0.9822,0.9822,0.9822,0.9822,0.9822,0.9822,0.9822,0.9822,0.9571,0.9381,0.9381,0.9123,0.8885,0.8885,0.8885,0.8885,0.8885,0.8885,0.8885,0.8885,0.8885,0.8885,0.8885,0.8885,0.8885,0.8885,0.8885,0.8885,0.8885,0.8885,0.8885,0.8885,0.8885,0.8885,0.3289,0.4024,0.4626,0.7303,0.7969,0.8501,1.0313,1.0717,1.0452,0.951,1.0047,1.0717,1.0717,1.0717,1.0717,1.0717,1.0717,1.0717,1.0717,0.0,0.0,0.0,0.0,0.0,0.0,0.0,0.0,0.0,0.0,1.6677,0.0,2.0172,2.0695,2.0695,2.0695,2.0695,2.0695,2.0535,2.0468,2.0468,2.016,1.9867,1.9599,1.9599,1.9506,1.943,1.943,1.943,1.943,1.943,1.943,1.9243,1.7572,1.6444,1.5666,1.4826,1.4004,1.3218,1.2405,1.2082,1.1844,1.0254,0.972,0.9734,0.9802,0.9822,0.9822,0.9822,0.9822,0.9822,0.9822,0.9822,0.9822,0.9822,0.9822,0.9822,0.9822,0.9822,0.9822,0.9822,0.9822,0.9822,0.9822,0.9822,0.9822,0.9822,0.9571,0.9381,0.9381,0.9123,0.8885,0.8885,0.8885,0.8885,0.8885,0.8885,0.8885,0.8885,0.8885,0.8885,0.8885,0.8885,0.8885,0.8885,0.8885,0.8885,0.8885,0.8885,0.8885,0.8885,0.8885,0.8885,0.4225,0.5362,0.6631,0.9915,0.9576,0.8834,1.0386,1.0717,1.0717,1.0717,1.0717,1.0717,1.0717,1.0717,1.0717,1.0717,1.0717,1.0717,1.0717,0.0,0.0,0.0,0.0,0.0,0.0,0.0,0.0,0.0,0.0,0.0,1.9607,2.0045,2.0167,2.0167,2.0167,2.0167,2.0167,2.0127,2.016,2.0147,1.9867,1.9599,1.943,1.943,1.943,1.943,1.943,1.943,1.943,1.943,1.943,1.9372,1.9068,1.8169,1.702,1.702,1.6116,1.4695,1.3274,1.2606,1.2054,1.0443,0.9762,0.9632,0.9747,0.9802,0.9822,0.9822,0.9822,0.9822,0.9822,0.9822,0.9822,0.9822,0.9822,0.9822,0.9822,0.9822,0.9822,0.9822,0.9822,0.9822,0.9822,0.9822,0.9822,0.9822,0.9571,0.9381,0.9381,0.9123,0.8885,0.8885,0.8885,0.8885,0.8885,0.8885,0.8885,0.8885,0.8885,0.8885,0.8885,0.8885,0.8885,0.8885,0.8885,0.8885,0.8885,0.8885,0.8885,0.8885,0.8885,0.8885,0.3354,0.5292,0.8163,1.018,1.0518,1.0386,1.0651,1.0717,1.0717,1.0717,1.0717,1.0717,1.0717,1.0717,1.0717,1.0717,1.0717,1.0717,0.0,0.0,0.0,0.0,0.0,0.0,0.0,0.0,0.0,0.0,1.4447,0.0,1.786,1.9363,2.0167,2.0167,2.0167,2.0167,2.0167,1.9987,1.9853,1.9853,1.9559,1.9399,1.943,1.943,1.943,1.943,1.943,1.943,1.943,1.943,1.943,1.9243,1.7864,1.7208,1.702,1.702,1.6704,1.6218,1.6011,1.4938,1.3403,1.175,1.0478,0.9612,0.9632,0.9727,0.9822,0.9822,0.9822,0.9822,0.9822,0.9822,0.9822,0.9822,0.9822,0.9822,0.9822,0.9822,0.9822,0.9822,0.9822,0.9822,0.9822,0.9822,0.9822,0.9822,0.9571,0.9381,0.9381,0.9123,0.8885,0.8885,0.8885,0.8885,0.8885,0.8885,0.8885,0.8885,0.8885,0.8885,0.8885,0.8885,0.8885,0.8885,0.8885,0.8885,0.8885,0.8885,0.8885,0.8885,0.8885,0.8885,0.5626,0.7564,0.9709,1.0518,1.0717,1.0717,1.0717,1.0717,1.0717,1.0717,1.0717,1.0717,1.0717,1.0717,1.0717,1.0717,1.0717,1.069,0.0,0.0,0.0,0.0,0.0,0.0,0.0,0.0,0.0,0.0,1.3981,1.5608,1.7183,1.883,1.9746,1.9746,1.9746,1.9746,1.9746,1.9626,1.9559,1.9559,1.9484,1.943,1.943,1.943,1.943,1.943,1.943,1.943,1.943,1.943,1.943,1.9314,1.8648,1.8344,1.8319,1.8109,1.797,1.759,1.5626,1.4438,1.3404,1.0997,0.981,0.9388,0.9557,0.9652,0.972,0.9795,0.9822,0.9822,0.9822,0.9822,0.9822,0.9822,0.9822,0.9822,0.9822,0.9822,0.9822,0.9822,0.9822,0.9822,0.9822,0.9822,0.9822,0.9822,0.9646,0.9476,0.9395,0.9191,0.9028,0.8892,0.8885,0.8885,0.8885,0.8885,0.8885,0.8885,0.8885,0.8885,0.8885,0.8885,0.8885,0.8885,0.8885,0.8885,0.8885,0.8885,0.8885,0.8885,0.8885,0.8981,0.8102,0.9305,1.0114,1.0585,1.0717,1.0717,1.0717,1.0717,1.0717,1.0717,1.0717,1.0717,1.0717,1.0717,1.0717,1.0717,1.0683,0.0,0.0,0.0,0.0,0.0,0.0,0.0,0.0,0.0,0.0,0.0,1.3706,1.5311,1.6903,1.8519,1.943,1.943,1.943,1.943,1.943,1.943,1.943,1.943,1.943,1.943,1.943,1.943,1.943,1.943,1.943,1.943,1.943,1.943,1.943,1.943,1.943,1.9319,1.9225,1.8998,1.8824,1.8289,1.5664,1.4494,1.3672,1.109,1.001,0.9695,0.9538,0.9551,0.9632,0.9741,0.9795,0.9822,0.9822,0.9822,0.9822,0.9822,0.9822,0.9822,0.9822,0.9822,0.9822,0.9822,0.9822,0.9822,0.9822,0.9822,0.9822,0.9822,0.97,0.9557,0.9401,0.9303,0.9096,0.8898,0.8885,0.8885,0.8885,0.8885,0.8885,0.8885,0.8885,0.8885,0.8885,0.8885,0.8885,0.8885,0.8885,0.8885,0.8885,0.8885,0.8885,0.8885,0.8974,0.9049,0.9643,0.9371,0.8568,1.0246,1.0717,1.0717,1.0717,1.0717,1.0717,1.0717,1.0717,1.0717,1.0717,1.0717,1.0717,1.0717,1.0602,0.0,0.0,0.0,0.0,0.0,0.0,0.0,0.0,0.0,0.0,0.0,0.0,1.5311,1.6903,1.8519,1.943,1.943,1.943,1.943,1.943,1.943,1.943,1.943,1.943,1.943,1.943,1.943,1.943,1.943,1.943,1.943,1.943,1.943,1.943,1.943,1.943,1.9199,1.8945,1.8931,1.8515,1.8035,1.7833,1.6696,1.506,1.3555,1.222,1.0932,0.9617,0.9381,0.9612,0.9618,0.972,0.9822,0.9822,0.9822,0.9822,0.9822,0.9822,0.9822,0.9822,0.9822,0.9822,0.9822,0.9822,0.9822,0.9822,0.9822,0.9822,0.9822,0.97,0.9557,0.9401,0.9303,0.9096,0.8898,0.8885,0.8885,0.8885,0.8885,0.8885,0.8885,0.8885,0.8885,0.8885,0.8885,0.8885,0.8885,0.8885,0.8885,0.8885,0.8885,0.8885,0.8885,0.9076,0.92,1.0319,1.0246,0.9908,1.0518,1.0717,1.0717,1.0717,1.0717,1.0717,1.0717,1.0717,1.069,1.0595,1.0575,1.0575,1.0575,1.0453,0.0,0.0,0.0,0.0,0.0,0.0,0.0,0.0,0.0,0.0,0.0,0.0,0.0,1.5429,1.7935,1.943,1.943,1.943,1.943,1.943,1.943,1.943,1.943,1.943,1.943,1.943,1.943,1.943,1.943,1.943,1.943,1.943,1.943,1.943,1.9403,1.9158,1.9011,1.8878,1.8448,1.8169,1.7847,1.6725,1.5934,1.5144,1.375,1.2989,1.2311,1.0947,1.0625,1.0551,0.9787,0.9646,0.9707,0.9795,0.9822,0.9822,0.9822,0.9822,0.9822,0.9822,0.9822,0.9822,0.9822,0.9822,0.9822,0.9822,0.9822,0.9822,0.9822,0.9774,0.9693,0.9544,0.9395,0.9245,0.9089,0.8994,0.8885,0.8885,0.8885,0.8885,0.8885,0.8885,0.8885,0.8885,0.8885,0.8885,0.8885,0.8885,0.8885,0.8885,0.8885,0.8885,0.8885,0.9089,0.9262,1.0717,1.0717,1.0717,1.0717,1.0717,1.0717,1.0717,1.0677,1.0643,1.0643,1.0609,1.0541,1.0439,1.0378,1.0358,1.0412,0.0,0.0,0.0,0.0,0.0,0.0,0.0,0.0,0.0,0.0,0.0,0.0,0.0,0.0,1.4599,1.763,1.943,1.943,1.943,1.943,1.943,1.943,1.943,1.943,1.943,1.943,1.943,1.943,1.943,1.943,1.943,1.943,1.943,1.943,1.9305,1.9199,1.8998,1.8798,1.8528,1.8129,1.7929,1.7702,1.6562,1.6115,1.5902,1.4449,1.4019,1.3771,1.2394,1.1655,1.1141,1.0366,0.9877,0.9632,0.9727,0.9788,0.9822,0.9822,0.9822,0.9822,0.9822,0.9822,0.9822,0.9822,0.9822,0.9822,0.9822,0.9822,0.9822,0.9822,0.9822,0.9768,0.9625,0.9517,0.9401,0.9303,0.9096,0.9008,0.9008,0.8912,0.8885,0.8885,0.8885,0.8885,0.8885,0.8885,0.8885,0.8885,0.8885,0.8885,0.8885,0.8885,0.8905,0.9015,0.9164,0.934,0.0,0.0,0.0,1.0717,1.0711,1.0711,1.0711,1.0595,1.0487,1.0487,1.0378,1.0276,1.0276,1.0148,1.0038,1.0243,0.0,0.0,0.0,0.0,0.0,0.0,0.0,0.0,0.0,0.0,0.0,0.0,0.0,1.4599,1.4599,1.763,1.943,1.943,1.943,1.943,1.943,1.943,1.943,1.943,1.943,1.943,1.943,1.943,1.943,1.943,1.943,1.9359,1.9417,1.9417,1.9185,1.8918,1.8905,1.8488,1.7995,1.7982,1.7836,1.7582,1.7582,1.7582,1.7358,1.5902,1.5464,1.5198,1.3804,1.243,1.1419,1.1316,1.0509,0.9664,0.9612,0.972,0.9822,0.9822,0.9822,0.9822,0.9822,0.9822,0.9822,0.9822,0.9822,0.9822,0.9822,0.9822,0.9822,0.9822,0.9822,0.9774,0.9632,0.9612,0.9551,0.9401,0.9309,0.9214,0.9214,0.9028,0.8892,0.8892,0.8885,0.8885,0.8885,0.8885,0.8885,0.8885,0.8885,0.8885,0.8892,0.8885,0.9015,0.9214,0.9313,0.9544,1.0717,0.0,0.0,0.0,0.0,0.0,1.0426,1.0371,1.0337,1.0337,1.031,1.0249,1.0134,1.0017,0.9963,0.9958,0.0,0.0,0.0,0.0,0.0,0.0,0.0,0.0,0.0,0.0,0.0,0.0,1.2749,1.4599,1.4599,1.763,1.943,1.943,1.943,1.943,1.943,1.943,1.943,1.943,1.943,1.943,1.943,1.943,1.943,1.943,1.943,1.9239,1.9052,1.9052,1.8998,1.8878,1.8395,1.8129,1.7969,1.7796,1.7662,1.7582,1.7582,1.7582,1.7529,1.7094,1.6988,1.6711,1.5251,1.4546,1.3876,1.1886,1.1151,1.0755,0.994,0.9788,0.9822,0.9822,0.9822,0.9822,0.9822,0.9822,0.9822,0.9822,0.9822,0.9822,0.9822,0.9822,0.9822,0.9822,0.9822,0.9808,0.9768,0.9673,0.9591,0.9551,0.9408,0.932,0.932,0.9178,0.9096,0.9096,0.8994,0.8885,0.8885,0.8885,0.8885,0.8885,0.8885,0.8988,0.9096,0.8988,0.9015,0.9214,0.9422,0.9646,1.0555,1.0534,1.0514,1.0426,0.0,0.0,1.0297,1.0229,1.0181,1.0181,1.0134,1.0059,0.9909,0.9896,0.9862,0.0,0.0,0.0,0.0,0.0,0.0,0.0,0.0,0.0,0.0,0.9822,0.0,0.9822,1.2749,1.5192,1.6503,1.8357,1.943,1.943,1.943,1.943,1.943,1.943,1.943,1.943,1.943,1.943,1.943,1.943,1.943,1.9417,1.9239,1.9078,1.8905,1.8608,1.8502,1.8475,1.8129,1.7916,1.7836,1.7649,1.7582,1.7582,1.7582,1.7582,1.7582,1.7582,1.7582,1.7424,1.6605,1.5902,1.5072,1.3461,1.2786,1.2237,1.0963,1.0733,1.0657,0.9943,0.9822,0.9822,0.9822,0.9822,0.9822,0.9822,0.9822,0.9822,0.9822,0.9822,0.9822,0.9822,0.9822,0.9822,0.9822,0.9747,0.97,0.97,0.9564,0.9476,0.9476,0.9334,0.9303,0.9303,0.911,0.9028,0.9028,0.8974,0.8912,0.9028,0.9028,0.9103,0.9303,0.9103,0.9137,0.9347,0.9585,0.9741,1.0317,1.0283,1.0276,1.0256,1.0256,0.0,1.0236,1.012,0.9963,0.9963,0.9856,0.9822,0.9822,0.9822,0.9822,0.0,0.0,0.0,0.0,0.0,0.0,0.0,0.0,0.0,0.9822,0.9822,0.9822,0.9822,1.2749,1.5913,1.8952,1.9301,1.943,1.943,1.943,1.943,1.943,1.943,1.943,1.943,1.943,1.943,1.943,1.943,1.9403,1.9305,1.9038,1.8891,1.8784,1.8209,1.7995,1.7995,1.7955,1.7822,1.7582,1.7582,1.7582,1.7582,1.7582,1.7582,1.7582,1.7582,1.7582,1.7582,1.7582,1.6658,1.5583,1.5446,1.4691,1.3554,1.218,1.2005,1.1771,1.0179,0.9822,0.9822,0.9822,0.9822,0.9822,0.9822,0.9822,0.9822,0.9822,0.9822,0.9822,0.9822,0.9822,0.9822,0.9822,0.9822,0.9822,0.9822,0.9707,0.9632,0.9632,0.9496,0.9408,0.9408,0.9323,0.9234,0.9234,0.9055,0.9049,0.9234,0.9255,0.933,0.9408,0.933,0.9347,0.9612,0.9754,0.9822,1.029,1.0283,1.0249,1.0127,1.0031,0.0,0.9937,0.989,0.9863,0.9863,0.9842,0.9822,0.9822,0.9822,0.0,0.0,0.0,0.0,0.0,0.0,0.0,0.0,0.0,0.0,0.9822,0.9822,0.9822,0.9822,1.2749,1.5429,1.7384,1.8706,1.943,1.943,1.943,1.943,1.943,1.943,1.943,1.943,1.943,1.943,1.943,1.943,1.9239,1.9011,1.8945,1.8595,1.8155,1.8035,1.7995,1.7969,1.7769,1.7635,1.7582,1.7582,1.7582,1.7582,1.7582,1.7582,1.7582,1.7582,1.7582,1.7582,1.7582,1.7411,1.6974,1.5952,1.4647,1.3311,1.2087,1.1854,1.1506,1.0151,0.9822,0.9822,0.9822,0.9822,0.9822,0.9822,0.9822,0.9822,0.9822,0.9822,0.9822,0.9822,0.9822,0.9822,0.9822,0.9822,0.9822,0.9822,0.9795,0.9781,0.9781,0.9646,0.9564,0.9564,0.9422,0.934,0.934,0.9313,0.9306,0.9334,0.9456,0.9537,0.9564,0.9537,0.9551,0.9612,0.9754,0.9822,1.0073,1.0053,1.0032,0.9958,0.9876,0.0,0.0,0.9822,0.9822,0.9822,0.9822,0.9822,0.9822,0.0,0.9822,0.0,0.0,0.0,0.0,0.0,0.0,0.0,0.0,0.0,0.0,0.9822,1.0119,1.0959,1.3228,1.5311,1.6903,1.8519,1.943,1.943,1.943,1.943,1.943,1.943,1.943,1.943,1.943,1.943,1.9359,1.9212,1.9065,1.8905,1.8555,1.8262,1.7982,1.7876,1.7809,1.7796,1.7649,1.7582,1.7582,1.7582,1.7582,1.7582,1.7582,1.7582,1.7582,1.7582,1.7582,1.7582,1.7582,1.7582,1.745,1.6835,1.6205,1.5429,1.4097,1.3921,1.3761,1.2344,1.2081,1.1976,1.1201,1.102,1.0778,0.9943,0.9822,0.9822,0.9822,0.9822,0.9822,0.9822,0.9822,0.9822,0.9822,0.9822,0.9822,0.9822,0.9822,0.9822,0.9822,0.9754,0.9713,0.9713,0.9578,0.9496,0.9496,0.9422,0.9415,0.9496,0.9639,0.9713,0.9713,0.9713,0.9713,0.972,0.9788,0.9822,0.9856,0.9822,0.9822,0.9822,0.9822,0.9822,0.0,0.0,0.0,0.9822,0.0,0.0,0.0,0.0,0.0,0.0,0.0,0.0,0.0,0.0,0.0,0.0,0.0,0.0,0.0,0.9822,1.0361,1.1615,1.3526,1.5192,1.6492,1.8344,1.943,1.943,1.943,1.943,1.943,1.943,1.943,1.943,1.943,1.939,1.9279,1.9038,1.8865,1.8675,1.8195,1.7955,1.7889,1.7689,1.7582,1.7582,1.7582,1.7582,1.7582,1.7582,1.7582,1.7582,1.7582,1.7582,1.7582,1.7582,1.7582,1.7582,1.7582,1.7582,1.7582,1.7582,1.7756,1.7566,1.6084,1.6051,1.6058,1.4535,1.4368,1.4242,1.2928,1.2397,1.1796,1.0543,1.0004,0.9822,0.9822,0.9822,0.9822,0.9822,0.9822,0.9822,0.9822,0.9822,0.9822,0.9822,0.9822,0.9822,0.9822,0.9822,0.9822,0.9822,0.9713,0.9652,0.9652,0.953,0.9523,0.9646,0.9761,0.9822,0.9822,0.9822,0.9822,0.9822,0.9822,0.9822,0.9829,0.9822,0.9822,0.9822,0.9822,0.9822,0.9822,0.0,0.9822,0.9822,0.0,0.0,0.0,0.0,0.0,0.0,0.0,0.0,0.0,0.0,0.0,0.0,0.0,0.0,0.0,0.0,0.9883,1.0058,1.2868,1.4658,1.4837,1.7747,1.943,1.943,1.943,1.943,1.943,1.943,1.943,1.943,1.943,1.9225,1.8971,1.8945,1.8582,1.8089,1.8022,1.7889,1.7635,1.7595,1.7582,1.7582,1.7582,1.7582,1.7582,1.7582,1.7582,1.7582,1.7582,1.7582,1.7582,1.7582,1.7582,1.7582,1.7582,1.7582,1.7582,1.7582,1.7609,1.737,1.6036,1.5911,1.5841,1.4494,1.4368,1.454,1.4361,1.3228,1.2157,1.1976,1.0778,0.9822,0.9822,0.9822,0.9822,0.9822,0.9822,0.9822,0.9822,0.9822,0.9822,0.9822,0.9822,0.9822,0.9822,0.9822,0.9822,0.9822,0.9802,0.9795,0.9795,0.9781,0.9781,0.9795,0.9815,0.9822,0.9822,0.9822,0.9822,0.9822,0.9822,0.9822,0.9822,0.9822,0.9822,0.9822,0.9822,0.0,0.9822,0.0,0.9822,0.0,0.0,0.0,0.0,0.0,0.0,0.0,0.9822,0.0,0.0,0.0,0.0,0.0,0.0,0.0,0.0,0.0,0.0,0.0,0.0,1.4599,1.4599,1.763,1.943,1.943,1.943,1.943,1.943,1.943,1.9279,1.9105,1.9105,1.8958,1.8664,1.849,1.8222,1.7982,1.7862,1.7702,1.7582,1.7582,1.7582,1.7582,1.7582,1.7582,1.7582,1.7582,1.7582,1.7582,1.7582,1.7582,1.7582,1.7582,1.7582,1.7582,1.7582,1.7582,1.7582,1.7582,1.7582,1.7503,1.6917,1.7178,1.7378,1.6803,1.7026,1.7161,1.6197,1.5488,1.4411,1.2569,1.1675,1.0899,0.9943,0.9822,0.9822,0.9822,0.9822,0.9822,0.9822,0.9822,0.9822,0.9822,0.9822,0.9822,0.9822,0.9822,0.9822,0.9822,0.9822,0.9822,0.9822,0.9822,0.9822,0.9822,0.9822,0.9822,0.9822,0.9822,0.9822,0.9822,0.9822,0.9822,0.9822,0.0,0.0,0.0,0.0,0.0,0.0,0.0,0.0,0.0,0.0,0.0,0.0,0.0,0.9822,0.9822,0.0,0.9822,0.0,0.0,0.0,0.0,0.0,0.0,0.0,0.0,0.0,0.0,0.0,0.0,1.4599,1.763,1.943,1.943,1.943,1.943,1.943,1.9292,1.9132,1.8918,1.8838,1.8651,1.8357,1.8089,1.7942,1.7849,1.7675,1.7582,1.7582,1.7582,1.7582,1.7582,1.7582,1.7582,1.7582,1.7582,1.7582,1.7582,1.7582,1.7582,1.7582,1.7582,1.7582,1.7582,1.7582,1.7582,1.7582,1.7582,1.7582,1.7582,1.7582,1.8036,1.849,1.849,1.8945,1.9068,1.7923,1.7325,1.6315,1.3994,1.2808,1.1856,1.0664,1.0058,0.9822,0.9822,0.9822,0.9822,0.9822,0.9822,0.9822,0.9822,0.9822,0.9822,0.9822,0.9822,0.9822,0.9822,0.9822,0.9822,0.9822,0.9822,0.9822,0.9822,0.9822,0.9822,0.9822,0.9822,0.9822,0.9822,0.9822,0.9822,0.0,0.0,0.0,0.9822,0.0,0.0,0.0,0.0,0.9822,0.0,0.0,0.0,0.0,0.9822,0.9822,0.9822,0.9822,0.0,0.0,0.0,0.0,0.0,0.0,0.0,0.0,0.0,0.0,0.0,0.0,0.0,1.4599,1.763,1.943,1.943,1.943,1.943,1.943,1.9078,1.8931,1.8918,1.8637,1.8343,1.8009,1.7995,1.7876,1.7595,1.7582,1.7582,1.7582,1.7582,1.7582,1.7582,1.7582,1.7582,1.7582,1.7582,1.7582,1.7582,1.7582,1.7582,1.7582,1.7582,1.7582,1.7582,1.7582,1.7582,1.7582,1.7582,1.7582,1.7582,1.7582,1.8036,1.849,1.849,1.8945,1.9372,1.9314,1.811,1.6962,1.6844,1.4351,1.2157,1.2157,1.0838,0.9822,0.9822,0.9822,0.9822,0.9822,0.9822,0.9822,0.9822,0.9822,0.9822,0.9822,0.9822,0.9822,0.9822,0.9822,0.9822,0.9822,0.9822,0.9822,0.9822,0.9822,0.9822,0.9822,0.9822,0.9822,0.9822,0.9822,0.9822,0.0,0.0,0.9822,0.9822,0.0,0.0,0.0,0.0,0.0,0.0,0.0,0.0,0.0,0.9822,0.9822,0.9822,0.9822,0.9822,0.0,0.0,0.0,0.0,0.0,0.0,0.0,0.0,0.0,0.0,0.0,0.0,0.0,1.763,1.943,1.943,1.943,1.9265,1.9078,1.8971,1.8675,1.8288,1.8223,1.8023,1.7742,1.7742,1.7689,1.7582,1.7582,1.7582,1.7582,1.7582,1.7582,1.7582,1.7582,1.7582,1.7582,1.7582,1.7582,1.7582,1.7582,1.7582,1.7582,1.7582,1.7582,1.7582,1.7582,1.7582,1.7582,1.7582,1.7582,1.7582,1.7582,1.7889,1.825,1.8437,1.8784,1.9132,1.9332,1.8952,1.8286,1.7208,1.6138,1.4708,1.2569,1.1736,1.102,0.9943,0.9822,0.9822,0.9822,0.9822,0.9822,0.9822,0.9822,0.9822,0.9822,0.9822,0.9822,0.9822,0.9822,0.9822,0.9822,0.9822,0.9822,0.9822,0.9822,0.9822,0.9822,0.9822,0.9822,0.9822,0.9822,0.9822,1.1495,1.1495,0.0,1.0778,1.0657,0.0,0.9943,0.0,0.0,0.0,0.0,0.0,0.0,0.0,0.9822,0.9822,0.9822,0.9822,0.0,0.9822,0.0,0.0,0.0,0.9822,0.0,0.0,0.0,0.9822,1.2749,0.0,0.0,0.0,1.943,1.943,1.9265,1.9118,1.8931,1.8718,1.8368,1.7995,1.7916,1.7769,1.7582,1.7582,1.7582,1.7582,1.7582,1.7582,1.7582,1.7582,1.7582,1.7582,1.7582,1.7582,1.7582,1.7582,1.7582,1.7582,1.7582,1.7582,1.7582,1.7582,1.7582,1.7582,1.7582,1.7582,1.7582,1.7582,1.7582,1.7582,1.7582,1.7809,1.8062,1.8424,1.8704,1.8998,1.9305,1.943,1.9068,1.804,1.7384,1.6315,1.4232,1.3407,1.2337,1.0119,0.9822,0.9822,0.9822,0.9822,0.9822,0.9822,0.9822,0.9822,0.9822,0.9822,0.9822,0.9822,0.9822,0.9822,0.9822,0.9822,0.9849,0.9842,0.9849,0.9849,0.9903,0.9849,0.9822,0.9822,0.9822,0.9822]}]]